[[{"header":{"parameterUnit":"m.s-1","parameterCategory":1,"la1":30.6,"la2":29.2853,"lo1":-89.7004,"lo2":-87.6739,"dy":0.0162,"dx":0.0183,"nx":112,"ny":82,"refTime":"2024-08-31T00:00:00:Z","depth":0,"parameterNumber":2,"parameterNumberName":"U-component_of_WINDS"},"data":[0.0,0.0,0.0,0.0,0.0,0.0,0.0,0.0,0.0,0.0,0.0,0.0,0.0,0.0,0.0,0.0,0.0,0.0,0.0,0.0,0.0,0.0,0.0,0.0,0.0,0.0,0.0,0.0,0.0,0.0,0.0,0.0,0.0,0.0,0.0,0.0,0.0,0.0,0.0,0.0,0.0,0.0,0.0,0.0,0.0,0.0,0.0,0.0,0.0,0.0,0.0,0.0,0.0,0.0,0.0,0.0,0.0,0.0,0.0,0.0,0.0,0.0,0.0,0.0,0.0,0.0,0.0,0.0,0.0,0.0,0.0,0.0,0.0,0.0,0.0,0.0,0.0,0.0,0.0,0.0,0.0,0.0,0.0,0.0,0.0,0.0,0.0,0.0,0.0,0.0,-1.1257,-1.1792,-1.2442,-1.2497,-1.174,-1.1573,-1.1036,-0.9767,0.0,0.0,0.0,0.0,0.0,0.0,0.0,0.0,0.0,0.0,0.0,0.0,0.0,0.0,0.0,0.0,0.0,0.0,0.0,0.0,0.0,0.0,0.0,0.0,0.0,0.0,0.0,0.0,0.0,0.0,0.0,0.0,0.0,0.0,0.0,0.0,0.0,0.0,0.0,0.0,0.0,0.0,0.0,0.0,0.0,0.0,0.0,0.0,0.0,0.0,0.0,0.0,0.0,0.0,0.0,0.0,0.0,0.0,0.0,0.0,0.0,0.0,0.0,0.0,0.0,0.0,0.0,0.0,0.0,0.0,0.0,0.0,0.0,0.0,0.0,0.0,0.0,0.0,0.0,0.0,0.0,0.0,0.0,0.0,0.0,0.0,0.0,0.0,0.0,0.0,0.0,0.0,0.0,0.0,0.0,0.0,0.0,0.0,0.0,0.0,0.0,0.0,0.0,0.0,-1.1289,-1.2134,-1.2596,-1.2562,-1.1991,-1.1596,-1.1024,-1.025,0.0,0.0,0.0,0.0,0.0,0.0,0.0,0.0,0.0,0.0,0.0,0.0,0.0,0.0,0.0,0.0,0.0,0.0,0.0,0.0,0.0,0.0,0.0,0.0,0.0,0.0,0.0,0.0,0.0,0.0,0.0,0.0,0.0,0.0,0.0,0.0,0.0,0.0,0.0,0.0,0.0,0.0,0.0,0.0,0.0,0.0,0.0,0.0,0.0,0.0,0.0,0.0,0.0,0.0,0.0,0.0,0.0,0.0,0.0,0.0,0.0,0.0,0.0,0.0,0.0,0.0,0.0,0.0,0.0,0.0,0.0,0.0,0.0,0.0,0.0,0.0,0.0,0.0,0.0,0.0,0.0,0.0,0.0,0.0,0.0,0.0,0.0,0.0,0.0,0.0,0.0,0.0,0.0,0.0,0.0,0.0,0.0,0.0,0.0,0.0,0.0,0.0,0.0,-1.1256,-1.1679,-1.2369,-1.2588,-1.2483,-1.1923,-1.0798,-1.0066,-0.9925,-0.8828,0.0,0.0,0.0,0.0,0.0,0.0,0.0,0.0,0.0,0.0,0.0,0.0,0.0,0.0,0.0,0.0,0.0,0.0,0.0,0.0,0.0,0.0,0.0,0.0,0.0,0.0,0.0,0.0,0.0,0.0,0.0,0.0,0.0,0.0,0.0,0.0,0.0,0.0,0.0,0.0,0.0,0.0,0.0,0.0,0.0,0.0,0.0,0.0,0.0,0.0,0.0,0.0,0.0,0.0,0.0,0.0,0.0,0.0,0.0,0.0,0.0,0.0,0.0,0.0,0.0,0.0,0.0,0.0,0.0,0.0,0.0,0.0,0.0,0.0,0.0,0.0,0.0,0.0,0.0,0.0,0.0,0.0,0.0,0.0,0.0,0.0,0.0,0.0,0.0,0.0,0.0,0.0,0.0,0.0,0.0,0.0,0.0,0.0,0.0,0.0,0.0,0.0,-1.1792,-1.2052,-1.2394,-1.254,-1.2283,-1.1563,-1.0032,-0.9219,-0.9582,-0.7943,0.0,0.0,0.0,0.0,0.0,0.0,0.0,0.0,0.0,0.0,0.0,0.0,0.0,0.0,0.0,0.0,0.0,0.0,0.0,0.0,0.0,0.0,0.0,0.0,0.0,0.0,0.0,0.0,0.0,0.0,0.0,0.0,0.0,0.0,0.0,0.0,0.0,0.0,0.0,0.0,0.0,0.0,0.0,0.0,0.0,0.0,0.0,0.0,0.0,0.0,0.0,0.0,0.0,0.0,0.0,0.0,0.0,0.0,0.0,0.0,0.0,0.0,0.0,0.0,0.0,0.0,0.0,0.0,0.0,0.0,0.0,0.0,0.0,0.0,0.0,0.0,0.0,0.0,0.0,0.0,0.0,0.0,0.0,0.0,0.0,0.0,0.0,0.0,0.0,0.0,0.0,0.0,0.0,0.0,0.0,0.0,0.0,0.0,0.0,0.0,0.0,0.0,-1.1849,-1.2162,-1.1877,-1.2275,-1.2043,-1.071,-0.96,-0.9183,-0.9582,-0.7883,0.0,0.0,0.0,0.0,0.0,0.0,0.0,0.0,0.0,0.0,0.0,0.0,0.0,0.0,0.0,0.0,0.0,0.0,0.0,0.0,0.0,0.0,0.0,0.0,0.0,0.0,0.0,0.0,0.0,0.0,0.0,0.0,0.0,0.0,0.0,0.0,0.0,0.0,0.0,0.0,0.0,0.0,0.0,0.0,0.0,0.0,0.0,0.0,0.0,0.0,0.0,0.0,0.0,0.0,0.0,0.0,0.0,0.0,0.0,0.0,0.0,0.0,0.0,0.0,0.0,0.0,0.0,0.0,0.0,0.0,0.0,0.0,0.0,0.0,0.0,0.0,0.0,0.0,0.0,0.0,0.0,0.0,0.0,0.0,0.0,0.0,0.0,0.0,0.0,0.0,0.0,0.0,0.0,0.0,0.0,0.0,0.0,0.0,0.0,0.0,0.0,0.0,-1.1752,-1.212,-1.2107,-1.2306,-1.213,-1.1348,-0.9788,-0.9216,-0.9999,0.0,0.0,0.0,0.0,0.0,0.0,0.0,0.0,0.0,0.0,0.0,0.0,0.0,0.0,0.0,0.0,0.0,0.0,0.0,0.0,0.0,0.0,0.0,0.0,0.0,0.0,0.0,0.0,0.0,0.0,0.0,0.0,0.0,0.0,0.0,0.0,0.0,0.0,0.0,0.0,0.0,0.0,0.0,0.0,0.0,0.0,0.0,0.0,0.0,0.0,0.0,0.0,0.0,0.0,0.0,0.0,0.0,0.0,0.0,0.0,0.0,0.0,0.0,0.0,0.0,0.0,0.0,0.0,0.0,0.0,0.0,0.0,0.0,0.0,0.0,0.0,0.0,0.0,0.0,0.0,0.0,0.0,0.0,0.0,0.0,0.0,0.0,0.0,0.0,0.0,0.0,0.0,0.0,0.0,0.0,0.0,0.0,0.0,0.0,0.0,0.0,0.0,-1.1167,-1.1792,-1.216,-1.217,-1.2241,-1.2096,-1.1558,-0.9852,-0.9278,-1.0233,0.0,0.0,0.0,0.0,0.0,0.0,0.0,0.0,0.0,0.0,0.0,0.0,0.0,0.0,0.0,0.0,0.0,0.0,0.0,0.0,0.0,0.0,0.0,0.0,0.0,0.0,0.0,0.0,0.0,0.0,0.0,0.0,0.0,0.0,0.0,0.0,0.0,0.0,0.0,0.0,0.0,0.0,0.0,0.0,0.0,0.0,0.0,0.0,0.0,0.0,0.0,0.0,0.0,0.0,0.0,0.0,0.0,0.0,0.0,0.0,0.0,0.0,0.0,0.0,0.0,0.0,0.0,0.0,0.0,0.0,0.0,0.0,0.0,0.0,0.0,0.0,0.0,0.0,0.0,0.0,0.0,0.0,0.0,0.0,0.0,0.0,0.0,0.0,0.0,0.0,0.0,0.0,0.0,0.0,0.0,0.0,0.0,0.0,0.0,0.0,0.0,0.0,-1.12,-1.2012,-1.2371,-1.1885,-1.2115,-1.1908,-1.0876,-0.9685,-0.9356,0.0,0.0,0.0,0.0,0.0,0.0,0.0,0.0,0.0,0.0,0.0,0.0,0.0,0.0,0.0,0.0,0.0,0.0,0.0,0.0,0.0,0.0,0.0,0.0,0.0,0.0,0.0,0.0,0.0,0.0,0.0,0.0,0.0,0.0,0.0,0.0,0.0,0.0,0.0,0.0,0.0,0.0,0.0,0.0,0.0,0.0,0.0,0.0,0.0,0.0,0.0,0.0,0.0,0.0,0.0,0.0,0.0,0.0,0.0,0.0,0.0,0.0,0.0,0.0,0.0,0.0,0.0,0.0,0.0,0.0,0.0,0.0,0.0,0.0,0.0,0.0,0.0,0.0,0.0,0.0,0.0,0.0,0.0,0.0,0.0,0.0,0.0,0.0,0.0,0.0,0.0,0.0,0.0,0.0,0.0,0.0,0.0,0.0,0.0,0.0,0.0,0.0,0.0,-1.1216,-1.2117,-1.2572,-1.221,-1.2241,-1.2096,-1.1558,-1.085,-1.0463,-1.0555,0.0,0.0,0.0,0.0,0.0,0.0,0.0,0.0,0.0,0.0,0.0,0.0,0.0,0.0,0.0,0.0,0.0,0.0,0.0,0.0,0.0,0.0,0.0,0.0,0.0,0.0,0.0,0.0,0.0,0.0,0.0,0.0,0.0,0.0,0.0,0.0,0.0,0.0,0.0,0.0,0.0,0.0,0.0,0.0,0.0,0.0,0.0,0.0,0.0,0.0,0.0,0.0,0.0,0.0,0.0,0.0,0.0,0.0,0.0,0.0,0.0,0.0,0.0,0.0,0.0,0.0,0.0,0.0,0.0,0.0,0.0,0.0,0.0,0.0,0.0,0.0,0.0,0.0,0.0,0.0,0.0,0.0,0.0,0.0,0.0,0.0,0.0,0.0,0.0,0.0,0.0,0.0,0.0,0.0,0.0,0.0,0.0,0.0,0.0,0.0,0.0,0.0,-1.1224,-1.2166,-1.2726,-1.2442,-1.2345,-1.219,-1.1898,-1.1467,-1.1041,-1.0729,0.0,0.0,0.0,0.0,0.0,0.0,0.0,0.0,0.0,0.0,0.0,0.0,0.0,0.0,0.0,0.0,0.0,0.0,0.0,0.0,0.0,0.0,0.0,0.0,0.0,0.0,0.0,0.0,0.0,0.0,0.0,0.0,0.0,0.0,0.0,0.0,0.0,0.0,0.0,0.0,0.0,0.0,0.0,0.0,0.0,0.0,0.0,0.0,0.0,0.0,0.0,0.0,0.0,0.0,0.0,0.0,0.0,0.0,0.0,0.0,0.0,0.0,0.0,0.0,0.0,0.0,0.0,0.0,0.0,0.0,0.0,0.0,0.0,0.0,0.0,0.0,0.0,0.0,0.0,0.0,0.0,0.0,0.0,0.0,0.0,0.0,0.0,0.0,0.0,0.0,0.0,0.0,0.0,0.0,0.0,0.0,0.0,0.0,0.0,0.0,0.0,0.0,-1.1248,-1.2174,-1.2759,-1.2564,-1.2402,-1.2223,-1.202,-1.1695,-1.1273,-1.0753,0.0,0.0,0.0,0.0,0.0,0.0,0.0,0.0,0.0,0.0,0.0,0.0,0.0,0.0,0.0,0.0,0.0,0.0,0.0,0.0,0.0,0.0,0.0,0.0,0.0,0.0,0.0,0.0,0.0,0.0,0.0,0.0,0.0,0.0,0.0,0.0,0.0,0.0,0.0,0.0,0.0,0.0,0.0,0.0,0.0,0.0,0.0,0.0,0.0,0.0,0.0,0.0,0.0,0.0,0.0,0.0,0.0,0.0,0.0,0.0,-1.1704,-1.1788,0.0,0.0,0.0,0.0,0.0,0.0,0.0,0.0,0.0,0.0,0.0,0.0,0.0,0.0,0.0,0.0,0.0,0.0,0.0,0.0,0.0,0.0,0.0,0.0,0.0,0.0,0.0,0.0,0.0,0.0,0.0,0.0,0.0,0.0,0.0,0.0,0.0,0.0,0.0,0.0,-1.1419,-1.2255,-1.271,-1.2393,-1.2328,-1.2174,-1.1857,-1.163,-1.133,-1.0932,-1.049,0.0,0.0,0.0,0.0,0.0,0.0,0.0,0.0,0.0,0.0,0.0,0.0,0.0,0.0,0.0,0.0,0.0,0.0,0.0,0.0,0.0,0.0,0.0,0.0,0.0,0.0,0.0,0.0,0.0,0.0,0.0,0.0,0.0,0.0,0.0,0.0,0.0,0.0,0.0,0.0,0.0,0.0,0.0,0.0,0.0,0.0,0.0,0.0,0.0,0.0,0.0,0.0,0.0,0.0,0.0,0.0,0.0,0.0,0.0,-1.2365,-1.2203,0.0,0.0,0.0,0.0,0.0,0.0,0.0,0.0,0.0,0.0,0.0,0.0,0.0,0.0,0.0,0.0,0.0,0.0,0.0,0.0,0.0,0.0,0.0,0.0,0.0,0.0,0.0,0.0,0.0,0.0,0.0,0.0,0.0,0.0,0.0,0.0,0.0,0.0,0.0,0.0,-1.1598,-1.2337,-1.2735,-1.2458,-1.2353,-1.2199,-1.1922,-1.1736,-1.1476,-1.111,-1.0753,0.0,0.0,0.0,0.0,0.0,0.0,0.0,0.0,0.0,0.0,0.0,0.0,0.0,0.0,0.0,0.0,0.0,0.0,0.0,0.0,0.0,0.0,0.0,0.0,0.0,0.0,0.0,0.0,0.0,0.0,0.0,0.0,0.0,0.0,0.0,0.0,0.0,0.0,0.0,0.0,0.0,0.0,0.0,0.0,0.0,0.0,0.0,0.0,0.0,0.0,0.0,0.0,0.0,-1.3247,-1.3168,-1.351,-1.3131,-1.3008,-1.3195,-1.3146,-1.2758,-1.2095,-1.2521,0.0,0.0,0.0,0.0,0.0,0.0,0.0,0.0,0.0,0.0,0.0,0.0,0.0,0.0,0.0,0.0,0.0,0.0,0.0,0.0,0.0,0.0,-1.1459,-1.1459,-1.1695,-1.1792,-1.1346,0.0,0.0,0.0,0.0,0.0,0.0,0.0,0.0,0.0,0.0,0.0,-1.1817,-1.2434,-1.2767,-1.258,-1.241,-1.2231,-1.2044,-1.1874,-1.163,-1.1289,-1.111,-1.0857,0.0,0.0,0.0,0.0,0.0,0.0,0.0,0.0,0.0,0.0,0.0,0.0,0.0,0.0,0.0,0.0,0.0,0.0,0.0,0.0,0.0,0.0,0.0,0.0,0.0,0.0,0.0,0.0,0.0,0.0,0.0,0.0,-1.1981,-1.2673,0.0,0.0,0.0,0.0,0.0,0.0,0.0,0.0,0.0,0.0,0.0,0.0,0.0,-1.4128,-1.4724,-1.4775,-1.438,-1.3608,-1.3708,-1.328,-1.254,-1.3141,-1.3156,-1.2736,-1.323,0.0,-1.2264,-1.2126,0.0,0.0,0.0,0.0,0.0,0.0,0.0,0.0,0.0,0.0,0.0,0.0,0.0,0.0,0.0,0.0,0.0,0.0,0.0,0.0,0.0,0.0,-1.2449,-1.2449,-1.249,-1.2506,-1.2433,-1.176,-1.12,-1.1135,-1.1021,-1.0858,0.0,0.0,0.0,0.0,0.0,0.0,-1.2174,-1.2588,-1.2767,-1.258,-1.241,-1.2231,-1.2044,-1.1874,-1.1687,-1.1476,-1.1289,-1.1094,-1.0931,-1.0542,0.0,0.0,0.0,0.0,0.0,0.0,0.0,0.0,0.0,0.0,0.0,0.0,0.0,0.0,0.0,0.0,0.0,0.0,0.0,0.0,0.0,0.0,0.0,0.0,0.0,0.0,0.0,0.0,0.0,-1.2388,-1.2719,-1.2777,-1.2926,-1.3052,0.0,0.0,0.0,0.0,0.0,0.0,0.0,0.0,0.0,-1.4161,-1.447,-1.448,-1.4183,-1.4639,-1.4788,-1.4563,-1.4211,-1.402,-1.3991,-1.3481,-1.3333,-1.3297,-1.3175,-1.2925,-1.2599,-1.25,-1.2631,-1.2959,0.0,0.0,0.0,0.0,-1.349,-1.3393,-1.3086,-1.2857,-1.2681,-1.2327,0.0,0.0,0.0,0.0,0.0,0.0,0.0,-1.1887,-1.2033,-1.2247,-1.2467,-1.267,-1.2718,-1.2743,-1.284,-1.2548,-1.2158,-1.1752,-1.1703,-1.1533,-1.0948,-1.0948,0.0,0.0,0.0,-1.1955,-1.2393,-1.2678,-1.2767,-1.258,-1.2499,-1.2377,-1.2199,-1.2117,-1.2036,-1.1955,-1.1776,-1.1598,-1.1486,-1.107,-1.0745,0.0,0.0,0.0,0.0,0.0,0.0,0.0,0.0,0.0,0.0,0.0,0.0,0.0,0.0,0.0,0.0,0.0,0.0,0.0,0.0,0.0,0.0,0.0,0.0,0.0,0.0,0.0,0.0,-1.2875,-1.3028,-1.2989,-1.3132,-1.3259,0.0,0.0,0.0,0.0,0.0,0.0,-1.4272,-1.4701,-1.4679,-1.4094,-1.4711,-1.4759,-1.4083,-1.4753,-1.5035,-1.505,-1.4446,-1.4379,-1.4782,-1.3705,-1.3361,-1.3759,-1.317,-1.297,-1.2929,-1.283,-1.2766,-1.2795,-1.2862,-1.3021,-1.3175,-1.3361,-1.3356,-1.3295,-1.3213,-1.3049,-1.2727,-1.2291,-1.1922,-1.1665,-1.1938,0.0,0.0,0.0,0.0,-1.1817,-1.2312,-1.2475,-1.2572,-1.284,-1.2938,-1.3011,-1.3133,-1.3165,-1.2994,-1.2418,-1.2377,-1.2199,-1.1443,-1.1492,0.0,-1.1516,-1.1841,-1.2231,-1.2588,-1.2751,-1.2783,-1.2645,-1.2588,-1.2515,-1.2385,-1.2328,-1.2288,-1.2239,-1.215,-1.202,-1.1849,-1.1573,-1.1265,-1.0907,0.0,0.0,0.0,0.0,0.0,0.0,0.0,0.0,0.0,0.0,0.0,0.0,0.0,0.0,0.0,0.0,0.0,0.0,0.0,0.0,0.0,0.0,0.0,0.0,0.0,0.0,0.0,0.0,0.0,-1.3665,-1.3088,0.0,0.0,0.0,0.0,-1.3208,-1.3601,-1.4066,-1.4452,-1.4268,-1.4508,-1.5383,-1.4792,-1.4742,-1.5372,-1.5449,-1.5119,-1.4437,-1.4369,-1.4096,-1.3497,-1.3428,-1.342,-1.3412,-1.3412,-1.3344,-1.3303,-1.2824,-1.2917,-1.3468,-1.3321,-1.3617,-1.4054,-1.351,-1.3383,-1.3387,-1.2615,-1.2482,-1.2604,-1.2604,-1.2296,-1.2004,-1.1987,-1.1752,0.0,0.0,-1.2134,-1.2353,-1.2718,-1.2929,-1.3059,-1.3076,-1.3214,-1.3344,-1.336,-1.336,-1.3295,-1.3084,-1.2913,-1.2686,-1.2304,0.0,-1.206,-1.2231,-1.2272,-1.2418,-1.2775,-1.2832,-1.2832,-1.2758,-1.267,-1.262,-1.2612,-1.2402,-1.2231,-1.2052,-1.2199,-1.2215,-1.2028,-1.2004,-1.1825,-1.1468,-1.111,0.0,0.0,0.0,0.0,0.0,0.0,0.0,0.0,0.0,0.0,0.0,0.0,0.0,0.0,0.0,0.0,0.0,0.0,0.0,0.0,0.0,0.0,0.0,0.0,0.0,0.0,0.0,0.0,-1.3525,-1.3229,0.0,-1.3258,-1.3513,-1.3573,-1.335,-1.4107,-1.4586,-1.4454,-1.4818,-1.4928,-1.4796,-1.4523,-1.4318,-1.4122,-1.4591,-1.4722,-1.4648,-1.4648,-1.451,-1.4302,-1.3755,-1.3482,-1.3368,-1.3368,-1.3368,-1.336,-1.3165,-1.3218,-1.3403,-1.3211,-1.3333,-1.3447,-1.3141,-1.3011,-1.2988,-1.2735,-1.2686,-1.2743,-1.2743,-1.2653,-1.2483,-1.2483,-1.2458,-1.2385,-1.2451,-1.2596,-1.2702,-1.2938,-1.3051,-1.3124,-1.3246,-1.3319,-1.3401,-1.3522,-1.3547,-1.3522,-1.3457,-1.3303,-1.3068,-1.271,-1.2686,-1.2661,-1.2499,-1.2572,-1.2694,-1.275,-1.2774,-1.2774,-1.2774,-1.2775,-1.2743,-1.2743,-1.2572,-1.2442,-1.2377,-1.2223,-1.215,-1.2207,-1.1987,-1.1809,-1.1679,-1.1321,-1.0867,0.0,0.0,0.0,0.0,0.0,0.0,0.0,0.0,0.0,0.0,0.0,0.0,0.0,0.0,0.0,0.0,0.0,0.0,0.0,0.0,0.0,0.0,0.0,0.0,0.0,-1.3177,-1.3128,-1.3658,-1.3446,-1.3358,-1.3527,-1.378,-1.3743,-1.3416,-1.4115,-1.4488,-1.413,-1.4691,-1.4726,-1.4233,-1.4233,-1.4033,-1.3547,-1.4025,-1.4301,-1.4499,-1.4429,-1.4429,-1.4499,-1.3937,-1.3669,-1.3547,-1.3547,-1.3547,-1.3547,-1.3547,-1.3547,-1.3522,-1.3287,-1.3189,-1.3173,-1.3059,-1.3019,-1.3019,-1.3019,-1.2938,-1.2782,-1.2905,-1.2881,-1.2774,-1.2774,-1.2881,-1.2921,-1.2921,-1.297,-1.3043,-1.3157,-1.323,-1.3311,-1.3433,-1.3506,-1.3579,-1.3701,-1.3734,-1.3734,-1.3734,-1.3587,-1.3368,-1.3068,-1.3116,-1.3108,-1.2873,-1.2889,-1.2921,-1.2921,-1.2807,-1.2774,-1.2774,-1.2774,-1.2774,-1.2774,-1.267,-1.2628,-1.2628,-1.2345,-1.2239,-1.2304,-1.2077,-1.1931,-1.1866,-1.15,-1.1143,-1.0794,0.0,0.0,0.0,0.0,0.0,0.0,0.0,0.0,0.0,0.0,0.0,0.0,0.0,0.0,0.0,0.0,0.0,0.0,0.0,0.0,0.0,0.0,0.0,-1.343,-1.3269,-1.3339,-1.4022,-1.3676,-1.351,-1.3681,-1.3511,-1.3376,-1.3376,-1.3547,-1.3582,-1.3582,-1.3815,-1.3904,-1.3912,-1.3912,-1.3912,-1.392,-1.392,-1.392,-1.392,-1.392,-1.392,-1.392,-1.392,-1.392,-1.392,-1.392,-1.392,-1.392,-1.392,-1.3912,-1.3872,-1.3522,-1.3376,-1.3376,-1.3376,-1.3368,-1.3368,-1.3368,-1.3141,-1.2881,-1.3051,-1.2986,-1.279,-1.279,-1.297,-1.31,-1.31,-1.323,-1.3376,-1.3376,-1.3514,-1.3574,-1.3582,-1.3782,-1.3904,-1.3904,-1.3904,-1.3904,-1.3904,-1.3766,-1.3595,-1.3417,-1.3384,-1.3376,-1.3376,-1.3222,0.0,-1.31,-1.2954,-1.2848,-1.2782,-1.2782,-1.2782,-1.2774,-1.2678,-1.2572,-1.2628,-1.262,-1.2475,-1.232,-1.2304,-1.2215,-1.1982,-1.1695,-1.1516,-1.1516,0.0,0.0,0.0,0.0,0.0,0.0,0.0,0.0,0.0,0.0,0.0,0.0,0.0,0.0,0.0,0.0,0.0,0.0,0.0,0.0,0.0,-1.2676,-1.2838,-1.3356,-1.3229,-1.3186,-1.3528,-1.345,-1.3396,-1.351,-1.3502,-1.3571,-1.3571,-1.3734,-1.3831,-1.3831,-1.3872,-1.3961,-1.4099,-1.4099,-1.4164,-1.4286,-1.4286,-1.4286,-1.4286,-1.4286,-1.4286,-1.4286,-1.4286,-1.4286,-1.4286,-1.4286,-1.4286,-1.4286,-1.4286,-1.4213,-1.4066,-1.3709,-1.3571,-1.3555,-1.3417,-1.3368,-1.3368,-1.3368,-1.3303,-1.323,-1.3279,-1.3262,-1.3222,-1.3222,-1.3254,-1.3295,-1.3295,-1.3336,-1.3401,-1.3539,-1.3534,-1.3606,-1.3798,-1.3863,-1.3904,-1.3904,-1.3904,-1.3904,-1.3904,-1.3863,-1.3815,-1.3766,-1.3652,-1.3571,-1.3571,-1.3409,-1.3295,-1.3295,-1.3254,-1.3173,-1.3035,-1.3149,-1.3116,-1.279,-1.2791,-1.2702,-1.2637,-1.232,-1.2272,-1.2483,-1.2239,-1.2142,-1.2231,-1.2004,-1.1882,0.0,0.0,0.0,0.0,0.0,0.0,0.0,0.0,0.0,0.0,0.0,0.0,0.0,0.0,0.0,0.0,0.0,0.0,0.0,0.0,0.0,0.0,-1.2881,-1.3152,-1.3411,-1.3392,-1.3368,-1.3474,-1.3547,-1.3595,-1.3595,-1.3693,-1.3782,-1.3863,-1.3961,-1.405,-1.4123,-1.4123,-1.4172,-1.4278,-1.4286,-1.4335,-1.4432,-1.4432,-1.4432,-1.4432,-1.4432,-1.4432,-1.4432,-1.4432,-1.4432,-1.4432,-1.4432,-1.4432,-1.4432,-1.4432,-1.4375,-1.4253,0.0,0.0,0.0,0.0,-1.3547,-1.3498,-1.3571,-1.3498,-1.3384,-1.3465,-1.3433,-1.3368,-1.3368,-1.3425,-1.3482,-1.3482,-1.3539,-1.362,-1.3725,-1.3807,-1.3872,-1.3896,-1.4018,-1.4099,-1.4034,-1.4018,-1.4034,-1.4107,-1.4002,0.0,-1.4099,-1.392,-1.375,-1.375,-1.3595,-1.3482,-1.3482,-1.3417,-1.3327,-1.3222,-1.3303,-1.3287,-1.3076,-1.2921,0.0,0.0,0.0,-1.2312,-1.245,-1.2328,0.0,0.0,0.0,0.0,0.0,0.0,0.0,0.0,-1.2791,-1.2856,0.0,0.0,0.0,0.0,0.0,0.0,0.0,0.0,0.0,0.0,0.0,0.0,0.0,0.0,0.0,0.0,-1.3214,-1.359,-1.3631,-1.3701,-1.3631,-1.3606,-1.3807,-1.3912,-1.3928,-1.3953,-1.4034,-1.4229,-1.4253,-1.4326,-1.4456,-1.4464,0.0,0.0,0.0,-1.4473,-1.4489,-1.4489,-1.4489,-1.4489,-1.4489,-1.4489,-1.4489,-1.4489,-1.4489,-1.4489,-1.4489,-1.4489,-1.4489,-1.4489,-1.4481,-1.4448,-1.4253,-1.4075,-1.3928,-1.3912,-1.3807,-1.3623,-1.3847,0.0,0.0,-1.362,-1.3563,-1.3433,-1.3433,-1.3547,-1.3606,-1.3606,-1.3782,-1.3904,-1.3928,-1.4058,-1.414,-1.3993,-1.4205,-1.4391,-1.4237,-1.4205,-1.4253,-1.4399,-1.418,-1.4058,-1.4375,-1.414,-1.3904,-1.3928,-1.3782,-1.3606,-1.3606,-1.353,-1.3425,-1.3401,-1.3417,0.0,-1.3376,-1.31,-1.2986,-1.3116,-1.2832,-1.2572,-1.2402,-1.2605,-1.2767,-1.2686,-1.3035,-1.3376,-1.3701,-1.3855,-1.3945,-1.3953,-1.3465,-1.349,0.0,0.0,0.0,0.0,0.0,0.0,0.0,0.0,0.0,0.0,0.0,0.0,0.0,0.0,0.0,-1.3108,-1.3457,-1.3742,-1.4034,-1.4075,-1.4018,-1.3872,-1.388,-1.3961,-1.4107,-1.4253,-1.4408,-1.4594,-1.4732,-1.4765,-1.4659,-1.4651,-1.4651,-1.4651,-1.4651,-1.4724,-1.4862,-1.4862,-1.4862,-1.4862,-1.4862,0.0,-1.4862,-1.4862,-1.4862,-1.4862,-1.4862,-1.4862,-1.4862,-1.4862,-1.4781,-1.4627,-1.4302,-1.4156,-1.4107,-1.3953,-1.388,-1.3855,-1.3888,-1.3855,-1.3807,-1.3839,-1.3823,-1.3798,-1.3798,-1.3823,0.0,-1.3855,-1.3872,-1.3937,-1.4083,-1.4148,-1.4205,-1.4302,-1.4383,-1.4424,-1.4391,-1.4383,-1.4391,-1.4424,-1.4375,-1.4351,-1.4416,-1.414,-1.3953,-1.4099,-1.3969,-1.3855,-1.3855,-1.3823,-1.375,-1.3604,-1.3717,-1.3685,-1.3392,-1.3441,-1.3441,-1.3327,-1.3254,-1.3133,-1.2946,-1.3392,-1.3579,-1.3441,-1.379,-1.4002,-1.4075,-1.4107,-1.4196,-1.4326,-1.4221,-1.4156,0.0,0.0,0.0,0.0,0.0,0.0,0.0,0.0,0.0,0.0,0.0,-1.1955,-1.2588,0.0,-1.3149,-1.3685,-1.392,-1.4099,-1.4278,-1.4302,-1.427,-1.418,-1.4164,-1.4237,-1.4424,-1.4521,-1.4684,-1.4952,-1.5049,-1.5106,-1.5114,-1.5114,-1.5114,-1.5114,-1.5114,-1.5114,-1.5106,-1.5106,-1.5106,-1.5106,-1.5106,-1.5106,-1.5106,-1.5106,-1.5049,-1.4968,-1.4968,-1.4968,-1.4968,-1.4968,-1.4911,-1.4814,-1.4546,-1.4335,-1.4164,-1.4075,-1.3977,-1.3904,-1.3904,-1.3904,-1.3904,-1.3904,-1.3904,-1.3904,-1.3904,-1.3904,-1.392,-1.4018,-1.4042,-1.4083,-1.4261,-1.4302,-1.4326,-1.4408,-1.4505,-1.457,-1.457,-1.457,-1.4594,-1.4684,-1.4554,-1.4489,-1.4667,-1.4399,-1.4172,-1.418,-1.4099,-1.4002,-1.3912,-1.3904,-1.3872,-1.3782,-1.3847,-1.3831,-1.3652,-1.3717,-1.3734,-1.3644,-1.3636,-1.3595,-1.3498,-1.3847,-1.4002,-1.3912,-1.4172,-1.4351,-1.444,-1.4529,-1.4659,-1.4838,-1.4927,-1.483,0.0,0.0,0.0,0.0,0.0,0.0,0.0,-1.2028,-1.2093,-1.2296,-1.2491,-1.2759,-1.3222,-1.3547,-1.3855,-1.4172,-1.4343,-1.444,-1.4481,-1.4481,-1.4497,-1.4529,-1.4473,-1.4513,-1.4732,-1.4789,-1.496,-1.5317,-1.5374,-1.5447,-1.5561,-1.5569,-1.5553,-1.5512,-1.5512,-1.5447,-1.5293,-1.5293,-1.5293,-1.5293,-1.5293,-1.5293,-1.5293,-1.5252,-1.5155,-1.5017,-1.4984,-1.4968,-1.4968,-1.4968,-1.4968,-1.4952,-1.4814,-1.4562,-1.4278,-1.4245,-1.4115,-1.3953,-1.3953,-1.3928,-1.3904,-1.3904,-1.3904,-1.3904,-1.3904,-1.3904,-1.3937,-1.4083,-1.4123,-1.4164,-1.4335,-1.4383,-1.4399,-1.4473,-1.4603,-1.4716,-1.4749,-1.4757,-1.4797,-1.4935,-1.4732,-1.4627,-1.4919,-1.4724,-1.4464,-1.4261,-1.4196,-1.4115,-1.3928,-1.3937,-1.3945,-1.3904,-1.3937,-1.3953,-1.3953,-1.3985,-1.4002,-1.4002,-1.4002,-1.4002,-1.4002,-1.4213,-1.4318,-1.4286,-1.4521,-1.47,-1.4814,-1.4984,-1.5147,-1.5293,-1.5447,-1.5358,-1.1273,-1.1533,-1.1671,-1.1727,-1.1857,-1.2142,0.0,-1.2946,-1.3043,-1.3392,-1.3604,-1.379,-1.4018,-1.4091,-1.418,-1.4375,-1.4416,-1.4489,-1.4651,-1.4676,-1.4732,-1.4887,-1.4627,-1.4562,-1.4903,-1.5082,-1.5325,-1.5683,-1.5861,-1.5894,-1.5748,-1.5748,-1.5675,-1.552,-1.5512,-1.5504,-1.5488,-1.5488,-1.5488,-1.5488,-1.5488,-1.5488,-1.548,-1.5317,-1.5228,-1.5195,-1.5033,-1.4968,-1.4968,-1.4968,-1.4968,-1.496,-1.4944,-1.4822,-1.4627,-1.4464,-1.4294,-1.4148,-1.4148,-1.4042,-1.3904,-1.3904,-1.3904,-1.3904,-1.3904,-1.3904,-1.3904,-1.3928,-1.3937,-1.3977,-1.4156,-1.4205,-1.4286,-1.4603,-1.4692,-1.4749,-1.4903,-1.4935,-1.4944,-1.5037,-1.4935,-1.4919,-1.496,-1.4927,-1.4789,-1.4456,-1.4278,-1.4115,-1.3928,-1.405,-1.4083,-1.392,-1.405,-1.4148,-1.4148,-1.4286,-1.4375,-1.4375,-1.4375,-1.4375,-1.4375,-1.47,-1.4806,-1.4651,-1.5139,-1.5325,-1.5101,-1.5366,-1.5463,-1.5488,-1.5504,-1.5496,-1.1768,-1.2028,-1.2158,-1.2467,-1.2596,-1.2759,-1.3165,-1.3417,-1.3612,-1.3766,-1.4018,-1.427,-1.4448,-1.4489,-1.4578,-1.4854,-1.4903,-1.4927,-1.5009,-1.5017,-1.4968,-1.483,-1.4773,-1.4887,-1.5252,-1.5447,-1.5658,-1.591,-1.5999,-1.6016,-1.5934,-1.5934,-1.5902,-1.5829,-1.5821,-1.5772,-1.5666,-1.5666,-1.5666,-1.5666,-1.5666,-1.5666,-1.5658,-1.548,-1.5285,-1.5074,-1.5,-1.4968,-1.4968,-1.4968,-1.4968,-1.4968,-1.4968,-1.4919,-1.4838,-1.4659,-1.4481,-1.4326,-1.4326,-1.4213,-1.4066,-1.4066,-1.3985,-1.3904,-1.3904,-1.3904,-1.3945,-1.4148,-1.4205,-1.4278,-1.4562,-1.4481,-1.4416,-1.4773,-1.47,-1.4627,-1.4903,-1.4968,-1.4968,-1.4968,-1.4968,-1.4968,-1.4968,-1.4968,-1.4879,-1.4627,-1.4529,-1.4424,-1.4237,-1.4278,-1.4294,-1.4221,-1.4278,-1.4367,-1.4481,-1.4554,-1.4684,-1.4887,-1.4903,-1.4952,-1.5057,-1.5204,-1.5252,-1.5179,-1.5398,-1.548,-1.5398,-1.5577,-1.5666,-1.5666,-1.5772,-1.5821,-1.2028,-1.2337,-1.2588,-1.2881,-1.31,-1.3295,-1.3474,-1.379,-1.4058,-1.4115,-1.4367,-1.4619,-1.4757,-1.4781,-1.4879,-1.5187,-1.5236,-1.5236,-1.5236,-1.5236,-1.5122,-1.4814,-1.4935,-1.5163,-1.5488,-1.5626,-1.5796,-1.6032,-1.5966,-1.5966,-1.5966,-1.6089,-1.6113,-1.6113,-1.6113,-1.6056,-1.5918,-1.5869,-1.5845,-1.5845,-1.5845,-1.5845,-1.5845,-1.5666,-1.539,-1.5041,-1.5041,-1.5009,-1.4968,-1.4968,-1.4968,-1.4968,-1.4968,-1.4968,-1.4952,-1.483,-1.4667,-1.4505,-1.4505,-1.4359,-1.418,-1.418,-1.405,-1.3912,-1.3961,-1.3977,-1.4042,-1.4343,-1.4432,-1.4489,-1.4749,-1.4667,-1.4586,-1.4895,-1.4806,-1.4741,-1.5049,-1.5114,-1.5106,-1.5049,-1.5041,-1.5025,-1.4976,-1.4968,-1.4919,-1.4797,-1.4781,-1.4692,-1.4464,-1.4432,-1.4448,-1.4505,-1.4505,-1.4562,-1.47,-1.4797,-1.4968,-1.5142,-1.5285,-1.5374,-1.5512,-1.5561,-1.5569,-1.5512,-1.561,-1.5634,-1.5585,-1.5764,-1.5845,-1.5853,-1.5819,-1.5801,-1.1922,-1.2418,-1.2994,-1.2661,-1.3108,-1.3669,-1.3847,-1.4156,-1.4464,-1.4643,-1.483,-1.4952,-1.496,-1.496,-1.5017,-1.5204,-1.5236,-1.5236,-1.5236,-1.5236,-1.5171,-1.4984,-1.5122,-1.5301,-1.5496,-1.552,-1.5666,-1.6024,-1.5966,-1.5966,-1.5966,-1.6202,-1.6292,-1.6292,-1.6292,-1.6292,-1.6284,-1.6121,-1.5958,-1.5958,-1.5958,-1.5958,-1.595,-1.5845,-1.5569,-1.515,-1.515,-1.513,-1.4968,-1.4968,-1.4968,-1.4968,-1.4968,-1.4968,-1.4968,-1.496,-1.4846,-1.47,-1.47,-1.4473,-1.418,-1.418,-1.405,-1.3937,-1.4115,-1.4172,-1.4205,-1.4383,-1.4432,-1.4432,-1.4448,-1.457,-1.4749,-1.4919,-1.509,-1.5268,-1.5455,-1.5496,-1.5447,-1.526,-1.515,-1.5171,-1.5,-1.4968,-1.496,-1.496,-1.496,-1.483,-1.4473,-1.4432,-1.4497,-1.4684,-1.47,-1.47,-1.4708,-1.5025,-1.5228,-1.5236,-1.5407,-1.5512,-1.5512,-1.5675,-1.5691,-1.552,-1.5853,-1.5943,-1.5764,-1.5951,-1.5958,-1.5958,-1.5628,-1.5381,-1.2434,-1.2873,-1.3303,-1.3425,-1.3636,-1.3896,-1.4188,-1.444,-1.4594,-1.4538,-1.457,-1.4578,-1.4464,-1.4448,-1.4546,-1.4838,-1.5082,-1.5236,-1.5236,-1.5447,-1.539,-1.4854,-1.5163,-1.535,-1.5171,-1.5472,-1.5788,-1.5942,-1.6154,-1.6219,-1.6219,-1.6389,-1.6487,-1.6487,-1.6487,-1.6487,-1.6487,-1.643,-1.6397,-1.6397,-1.6276,-1.6089,-1.5861,-1.5796,-1.5642,-1.5423,-1.5423,-1.539,-1.5317,-1.5195,-1.5147,-1.5147,-1.5147,-1.5147,-1.5163,-1.5285,-1.5293,-1.5212,-1.4968,-1.4724,-1.4529,-1.4529,-1.4408,-1.4261,-1.4326,-1.4351,-1.4383,-1.4562,-1.47,-1.4814,-1.4935,-1.5017,-1.5106,-1.5285,-1.5285,-1.5293,-1.5472,-1.5512,-1.5496,-1.5431,-1.5423,-1.5407,-1.5342,-1.5228,-1.5147,-1.5147,-1.5041,-1.4919,-1.4797,-1.4789,-1.4806,-1.4871,-1.4984,-1.5057,-1.5057,-1.5285,-1.5472,-1.5585,-1.565,-1.574,-1.5861,-1.5926,-1.5926,-1.5869,-1.5901,-1.6016,-1.5951,-1.6016,-1.5875,-1.5628,-1.5463,-1.5216,-1.2816,-1.3189,-1.3539,-1.3831,-1.3953,-1.4091,-1.4448,-1.457,-1.4578,-1.4456,-1.4383,-1.4286,-1.4115,-1.4083,-1.4221,-1.4643,-1.4952,-1.5187,-1.5317,-1.5585,-1.5577,-1.5057,-1.5301,-1.5447,-1.5268,-1.5569,-1.5821,-1.5943,-1.617,-1.63,-1.63,-1.6544,-1.6674,-1.6674,-1.6674,-1.6674,-1.6674,-1.6617,-1.6544,-1.6479,-1.63,-1.6089,-1.5869,-1.5934,-1.5869,-1.5707,-1.5707,-1.5666,-1.5593,-1.5415,-1.5301,-1.5244,-1.5309,-1.5293,-1.5182,-1.5447,-1.5512,-1.5472,-1.5171,-1.4944,-1.4789,-1.4724,-1.4586,-1.444,-1.4513,-1.4529,-1.4586,-1.483,-1.4976,-1.509,-1.5204,-1.5333,-1.5447,-1.5504,-1.552,-1.5561,-1.5683,-1.5707,-1.5683,-1.5618,-1.561,-1.5585,-1.5528,-1.5415,-1.5333,-1.5333,-1.5236,-1.5163,-1.5163,-1.5106,-1.5065,-1.5065,-1.5114,-1.5171,-1.5236,-1.5407,-1.5585,-1.5764,-1.5837,-1.5926,-1.5958,-1.5966,-1.5966,-1.5966,-1.5966,-1.5966,-1.5966,-1.5875,-1.5628,-1.5381,-1.5051,-1.4803,-1.3068,-1.3392,-1.3717,-1.3896,-1.4066,-1.4286,-1.4627,-1.4554,-1.4416,-1.4408,-1.4261,-1.4083,-1.3896,-1.3863,-1.405,-1.4578,-1.4838,-1.5098,-1.5463,-1.5683,-1.574,-1.5561,-1.5561,-1.5626,-1.5772,-1.5804,-1.5813,-1.5804,-1.6121,-1.6324,-1.6332,-1.6674,-1.6782,-1.6782,-1.6782,-1.6782,-1.6782,-1.6682,-1.6503,-1.6316,-1.6146,-1.5974,-1.5974,-1.6219,-1.6202,-1.5974,-1.5966,-1.5951,-1.5788,-1.5601,-1.5423,-1.5285,-1.5463,-1.5423,-1.5285,-1.5472,-1.5545,-1.5512,-1.5333,-1.5147,-1.4968,-1.4789,-1.4619,-1.4505,-1.4684,-1.4732,-1.4789,-1.5139,-1.5244,-1.5252,-1.5252,-1.552,-1.5748,-1.5585,-1.5796,-1.5966,-1.5966,-1.5966,-1.5999,-1.5821,-1.5788,-1.5731,-1.5561,-1.5528,-1.5528,-1.5528,-1.5528,-1.5528,-1.552,-1.5366,-1.5252,-1.5252,-1.5106,-1.5074,-1.5252,-1.5439,-1.561,-1.578,-1.5951,-1.5966,-1.5966,-1.5966,-1.5966,-1.5966,-1.5966,-1.5966,-1.5966,-1.5628,-1.5381,-1.5298,-1.448,-1.4066,-1.3316,-1.3766,-1.4115,-1.4424,-1.4432,-1.4424,-1.4659,-1.4464,-1.4205,-1.4066,-1.379,-1.3522,-1.3336,-1.3417,-1.3636,-1.4042,-1.4594,-1.5098,-1.5463,-1.5894,-1.6105,-1.5934,-1.6146,-1.6219,-1.5999,-1.6219,-1.6316,-1.6178,-1.6381,-1.6568,-1.6706,-1.6925,-1.7047,-1.7047,-1.7047,-1.7047,-1.7047,-1.6868,-1.669,-1.6511,-1.6324,-1.617,-1.5966,-1.6089,-1.6154,-1.6227,-1.6105,-1.6089,-1.6146,-1.5837,-1.5683,-1.5642,-1.5691,-1.5683,-1.5658,-1.5845,-1.591,-1.5886,-1.5699,-1.552,-1.535,-1.5163,-1.5074,-1.5041,-1.509,-1.5009,-1.4944,-1.5179,-1.5342,-1.5447,-1.5447,-1.5707,-1.5967,-1.5918,-1.5983,-1.5966,-1.5966,-1.5966,-1.595,-1.5983,-1.5975,-1.5918,-1.574,-1.5707,-1.5707,-1.5707,-1.5707,-1.5658,-1.5536,-1.5472,-1.5447,-1.5447,-1.552,-1.5585,-1.5634,-1.5804,-1.5926,-1.5975,-1.6024,-1.5966,-1.5966,-1.5966,-1.5966,-1.5966,-1.5966,-1.5875,-1.5546,-1.5463,-1.5051,-1.4397,-1.4232,-1.3901,-1.3566,-1.3961,-1.4261,-1.4619,-1.457,-1.444,-1.4473,-1.4261,-1.3961,-1.362,-1.3384,-1.3197,-1.3011,-1.3124,-1.3417,-1.3937,-1.4489,-1.5065,-1.5666,-1.6064,-1.63,-1.6284,-1.6462,-1.6503,-1.63,-1.6462,-1.6568,-1.6544,-1.6641,-1.6747,-1.6758,-1.7015,-1.7112,-1.7112,-1.7112,-1.7112,-1.7112,-1.6942,-1.6763,-1.6576,-1.6389,-1.6211,-1.5966,-1.6121,-1.6211,-1.63,-1.6202,-1.6211,-1.6284,-1.6008,-1.5845,-1.578,-1.5861,-1.5845,-1.5796,-1.5975,-1.5966,-1.595,-1.5926,-1.5829,-1.5707,-1.5447,-1.5301,-1.5252,-1.5333,-1.5171,-1.5017,-1.5285,-1.5431,-1.5512,-1.5512,-1.578,-1.6024,-1.5943,-1.5991,-1.5966,-1.5966,-1.5966,-1.5966,-1.5966,-1.5966,-1.6016,-1.591,-1.5894,-1.5894,-1.5894,-1.5894,-1.5861,-1.5764,-1.5675,-1.5626,-1.5626,-1.565,-1.5691,-1.5764,-1.5869,-1.5959,-1.5958,-1.5966,-1.5966,-1.5966,-1.5801,-1.5711,-1.5711,-1.5546,-1.5298,-1.5133,-1.4886,-1.4563,-1.4073,-1.3971,-1.3749,-1.3872,-1.4107,-1.4326,-1.4635,-1.4554,-1.4351,-1.418,-1.3961,-1.366,-1.3189,-1.3076,-1.3011,-1.2798,-1.2978,-1.3336,-1.4058,-1.4481,-1.5017,-1.5918,-1.6219,-1.6405,-1.6592,-1.6641,-1.6649,-1.6649,-1.6649,-1.6714,-1.679,-1.6798,-1.6798,-1.6798,-1.7031,-1.7112,-1.7112,-1.7112,-1.7112,-1.7112,-1.6942,-1.6771,-1.6617,-1.6405,-1.6227,-1.5998,-1.6211,-1.6284,-1.63,-1.6276,-1.6284,-1.6292,-1.6113,-1.5951,-1.5829,-1.5983,-1.5951,-1.5829,-1.5991,-1.5966,-1.5966,-1.5966,-1.5966,-1.5991,-1.5658,-1.5423,-1.5301,-1.5463,-1.526,-1.5041,-1.5415,-1.5512,-1.552,-1.5545,-1.5796,-1.6008,-1.5845,-1.5934,-1.5966,-1.5966,-1.5966,-1.5966,-1.5966,-1.5966,-1.5966,-1.5966,-1.5966,-1.5966,-1.5966,-1.5966,-1.5966,-1.5966,-1.591,-1.5813,-1.5813,-1.5675,-1.5642,-1.5796,-1.5813,-1.5878,-1.595,-1.5966,-1.5966,-1.5883,-1.5628,-1.5381,-1.5298,-1.4878,-1.4631,-1.4631,-1.4232,-1.4081,-1.4019,-1.3734,-1.3641,-1.4172,-1.4473,-1.4635,-1.4692,-1.4464,-1.4172,-1.3993,-1.3579,-1.3206,-1.3116,-1.2978,-1.2807,-1.2774,-1.2978,-1.3336,-1.4058,-1.4481,-1.5017,-1.5918,-1.6324,-1.66,-1.6787,-1.6933,-1.7023,-1.7023,-1.7023,-1.7031,-1.7063,-1.7063,-1.7063,-1.7063,-1.7096,-1.7112,-1.7112,-1.7112,-1.7112,-1.7112,-1.6942,-1.675,-1.6803,-1.6462,-1.6292,-1.6251,-1.6146,-1.617,-1.6292,-1.6154,-1.617,-1.6292,-1.6113,-1.6024,-1.5999,-1.595,-1.6024,-1.5999,-1.595,-1.5966,-1.5966,-1.5966,-1.5966,-1.6008,-1.5796,-1.561,-1.5472,-1.5504,-1.526,-1.5041,-1.5415,-1.5512,-1.5545,-1.5691,-1.5886,-1.5958,-1.6008,-1.5942,-1.5966,-1.5966,-1.5966,-1.5966,-1.5966,-1.5966,-1.5966,-1.5966,-1.5966,-1.5966,-1.5966,-1.5966,-1.5966,-1.5966,-1.6016,-1.5999,-1.5999,-1.5893,-1.5967,-1.5999,-1.5999,-1.6016,-1.5958,-1.5966,-1.5875,-1.5546,-1.5463,-1.5216,-1.4796,-1.4713,-1.4555,-1.4232,-1.4149,-1.3971,-1.3677,-1.3614,-1.3695,-1.4261,-1.4497,-1.4586,-1.4684,-1.4367,-1.3961,-1.3685,-1.3352,-1.3043,-1.2856,-1.2824,-1.2774,-1.2774,-1.2978,-1.3303,-1.3928,-1.4261,-1.4773,-1.5764,-1.6137,-1.6438,-1.6725,-1.7006,-1.7112,-1.7112,-1.7112,-1.7112,-1.7112,-1.7112,-1.7112,-1.7112,-1.7112,-1.7112,-1.7112,-1.7023,-1.6974,-1.6974,-1.6806,-1.6717,-1.6714,-1.6633,-1.6487,-1.63,-1.6219,-1.6178,-1.6162,-1.5998,-1.6006,-1.6162,-1.6081,-1.5966,-1.5966,-1.5966,-1.5966,-1.5966,-1.5966,-1.6467,-1.7124,-1.7302,-1.7837,-1.8385,-1.7485,-1.6432,-1.5666,-1.5764,-1.5536,-1.5309,-1.5577,-1.565,-1.5666,-1.5748,-1.591,-1.5966,-1.5966,-1.5966,-1.5966,-1.5966,-1.5966,-1.5966,-1.5966,-1.5966,-1.5966,-1.5966,-1.5966,-1.5966,-1.5966,-1.5966,-1.5966,-1.5966,-1.5966,-1.5966,-1.5966,-1.5966,-1.5998,-1.617,-1.6097,-1.5924,-1.5846,-1.5766,-1.5463,-1.5051,-1.4803,-1.4638,-1.439,-1.4221,-1.3978,-1.3735,-1.3895,-1.3803,-1.3634,-1.379,-1.3899,-1.4725,-1.5055,-1.5393,-1.5471,-1.4907,-1.4305,-1.4207,-1.384,-1.3485,-1.3514,-1.3639,-1.3678,-1.3678,-1.3799,-1.4026,-1.4294,-1.4483,-1.491,-1.5649,-1.5943,-1.6276,-1.6738,-1.6982,-1.7112,-1.7112,-1.7112,-1.7112,-1.7112,-1.7112,-1.7112,-1.7112,-1.7112,-1.7112,-1.7112,-1.6982,-1.6822,-1.6822,-1.6822,-1.6836,-1.6698,-1.6803,-1.6682,-1.6357,-1.6324,-1.6211,-1.5966,-1.5966,-1.5966,-1.5966,-1.5966,-1.5966,-1.6048,-1.6451,-1.6525,-1.6607,-1.7018,-1.7882,-1.8892,-1.9056,-1.9886,-2.0703,-1.9434,-1.804,-1.6831,-1.6537,-1.6529,-1.6651,-1.6834,-1.6886,-1.6895,-1.6938,-1.6743,-1.6451,-1.6122,-1.5966,-1.5966,-1.5966,-1.5966,-1.5966,-1.5966,-1.5966,-1.5966,-1.5966,-1.5966,-1.5966,-1.5966,-1.5966,-1.5966,-1.5966,-1.5966,-1.5966,-1.5966,-1.5966,-1.6022,-1.6235,-1.6121,-1.5857,-1.5667,-1.5459,-1.5133,-1.4555,-1.4261,-1.4116,-1.395,-1.3768,-1.3614,-1.3498,-1.3729,-1.3797,-1.3729,-1.3966,-1.4089,-1.6137,-1.7339,-1.8414,-1.7947,-1.6817,-1.5891,-1.6676,-1.5741,-1.5117,-1.6312,-1.6635,-1.6592,-1.6592,-1.6602,-1.6455,-1.5878,-1.5901,-1.5881,-1.5565,-1.5967,-1.6357,-1.6576,-1.6901,-1.7112,-1.7112,-1.7112,-1.7112,-1.7112,-1.7112,-1.7112,-1.7112,-1.7112,-1.7112,-1.7112,-1.7096,-1.7088,-1.7088,-1.7088,-1.708,-1.7063,-1.6917,-1.6747,-1.6552,-1.6381,-1.6211,-1.5966,-1.5966,-1.5966,-1.5966,-1.5966,-1.5966,-1.6122,-1.7737,-1.8381,-1.8545,-2.017,-2.0797,-2.0948,-2.0969,-2.1039,-2.1109,-2.1028,-2.0718,-2.0189,-1.8433,-1.8986,-2.0252,-2.0395,-2.0459,-2.0512,-2.0642,-1.9501,-1.7983,-1.6369,-1.5966,-1.5966,-1.5966,-1.5966,-1.5966,-1.5966,-1.5966,-1.5966,-1.5966,-1.5966,-1.5966,-1.5966,-1.5966,-1.5966,-1.5966,-1.5966,-1.5966,-1.5966,-1.5966,-1.5974,-1.6064,-1.5974,-1.5801,-1.5487,-1.5389,-1.5051,-1.4149,-1.4202,-1.4105,-1.3607,-1.3749,-1.3817,-1.3797,-1.3824,-1.3905,-1.4034,-1.4061,-1.4143,-1.7379,-1.8133,-1.8656,-1.8336,-1.7558,-1.7,-1.7145,-1.6629,-1.6333,-1.6915,-1.698,-1.698,-1.698,-1.698,-1.6999,-1.7046,-1.7093,-1.7208,-1.7507,-1.7808,-1.7929,-1.7652,-1.7812,-1.7776,-1.7167,-1.7112,-1.7112,-1.7112,-1.8147,-1.8322,-1.72,-1.7015,-1.7006,-1.7104,-1.6901,-1.7354,-1.8581,-1.8581,-1.9177,-2.0296,-1.9223,-1.8474,-1.8246,-1.8091,-1.7311,-1.6048,-1.7091,-1.7574,-1.7574,-1.7574,-1.8072,-1.894,-1.9785,-2.0078,-2.0056,-2.0846,-2.1767,-2.2543,-2.2705,-2.3377,-2.3879,-2.2917,-2.3361,-2.3702,-2.0804,-2.0453,-2.1032,-2.105,-2.1071,-2.1093,-2.119,-1.9917,-1.8463,-1.7737,-1.6772,-1.6287,-1.7337,-1.6772,-1.6616,-1.8717,-1.8309,-1.7574,-1.7574,-1.7574,-1.7173,-1.6122,-1.5966,-1.5966,-1.5966,-1.5966,-1.5966,-1.5966,-1.5966,-1.6089,-1.6194,-1.5857,-1.551,-1.5196,-1.478,-1.4315,-1.3735,-1.3797,-1.3796,-1.3627,-1.3858,-1.3933,-1.3838,-1.4027,-1.4102,-1.4075,-1.4163,-1.4245,-1.8515,-1.9138,-1.9634,-1.9313,-1.871,-1.8261,-1.833,-1.7942,-1.7689,-1.8139,-1.8203,-1.8203,-1.8203,-1.8203,-1.8235,-1.8284,-1.8351,-1.8501,-1.8816,-1.9191,-1.9233,-1.8904,-1.9091,-1.908,-1.8527,-1.8601,-1.875,-1.875,-1.996,-2.0134,-1.8837,-1.8572,-1.8304,-1.7972,-1.7725,-1.8497,-2.0515,-2.0515,-2.1115,-2.247,-2.1196,-2.036,-2.0091,-1.9948,-1.9059,-1.7583,-1.8722,-1.929,-1.9349,-1.9221,-1.9795,-2.0985,-2.1632,-2.178,-2.1793,-2.2442,-2.3433,-2.434,-2.4472,-2.5214,-2.5923,-2.4721,-2.5255,-2.5898,-2.3472,-2.2751,-2.2751,-2.2751,-2.2751,-2.2591,-2.2108,-2.106,-1.9998,-1.9511,-1.8472,-1.791,-1.9115,-1.8391,-1.8228,-2.0737,-2.0241,-1.9349,-1.9349,-1.8952,-1.8137,-1.6936,-1.6369,-1.5966,-1.5966,-1.5966,-1.5966,-1.5966,-1.5966,-1.6014,-1.6044,-1.5617,-1.5187,-1.4725,-1.438,-1.3922,-1.3464,-1.3614,-1.3715,-1.3756,-1.4007,-1.4082,-1.3973,-1.4197,-1.4245,-1.4143,-1.4251,-1.4299,-1.9573,-2.0854,-2.1924,-2.1643,-2.0501,-1.9764,-2.0795,-2.0005,-1.9355,-2.0779,-2.1046,-2.1046,-2.1046,-2.1046,-2.0785,-1.9893,-1.9915,-1.9726,-1.8982,-1.9479,-1.9934,-2.0178,-2.0612,-2.109,-2.1723,-2.2267,-2.2536,-2.2536,-2.2536,-2.2536,-2.2536,-2.2406,-2.1542,-1.9951,-1.9873,-2.0732,-2.2536,-2.2536,-2.2622,-2.2622,-2.23,-2.2074,-2.1838,-2.1613,-2.1366,-2.112,-2.0894,-2.0927,-2.1098,-2.0558,-2.0633,-2.1351,-2.2791,-2.3562,-2.3976,-2.574,-2.6386,-2.6386,-2.6386,-2.6386,-2.6386,-2.6386,-2.6386,-2.6386,-2.6386,-2.6307,-2.6307,-2.6307,-2.6307,-2.599,-2.4215,-2.3736,-2.3324,-2.1545,-2.1141,-2.1141,-2.1141,-2.1141,-2.1141,-2.1222,-2.1222,-2.1141,-2.1141,-1.9755,-1.8626,-1.8545,-1.7091,-1.5966,-1.5966,-1.5966,-1.5966,-1.5966,-1.5966,-1.5883,-1.5471,-1.5381,-1.5051,-1.4156,-1.4066,-1.3971,-1.362,-1.3763,-1.3912,-1.4061,-1.4217,-1.4299,-1.4292,-1.4299,-1.4299,-1.4299,-1.4299,-1.4299,-2.0076,-2.0911,-2.1641,-2.1145,-2.0779,-2.0654,-2.0819,-2.0648,-2.0589,-2.0982,-2.1109,-2.1109,-2.1109,-2.1269,-2.1474,-2.1579,-2.1768,-2.2043,-2.2212,-2.2779,-2.2888,-2.2342,-2.2173,-2.2149,-2.23,-2.3648,-2.3926,-2.2481,-2.3648,-2.3841,-2.2395,-2.2471,-2.2289,-2.176,-2.1625,-2.2556,-2.4508,-2.452,-2.5117,-2.6406,-2.4855,-2.4007,-2.3762,-2.3423,-2.2506,-2.1281,-2.2157,-2.2758,-2.298,-2.2551,-2.3212,-2.4588,-2.5163,-2.5387,-2.54,-2.6148,-2.6386,-2.6386,-2.6386,-2.6386,-2.6386,-2.6386,-2.6386,-2.6386,-2.6386,-2.6386,-2.6386,-2.6386,-2.6386,-2.6307,-2.574,-2.4706,-2.3656,-2.3084,-2.2028,-2.1545,-2.2763,-2.2028,-2.1867,-2.4283,-2.3804,-2.3003,-2.3003,-2.1545,-1.9998,-1.8789,-1.7091,-1.5966,-1.5966,-1.5966,-1.5966,-1.5966,-1.5966,-1.5966,-1.5801,-1.5546,-1.5298,-1.4968,-1.4721,-1.438,-1.4119,-1.4188,-1.4256,-1.4068,-1.4224,-1.4299,-1.4299,-1.4299,-1.4299,-1.4299,-1.4299,-1.4299,-2.0227,-2.0641,-2.0989,-2.0735,-2.0815,-2.0922,-2.0855,-2.0975,-2.1109,-2.1109,-2.1109,-2.1109,-2.1109,-2.1256,-2.1577,-2.2164,-2.2405,-2.2779,-2.35,-2.4195,-2.4547,-2.4409,-2.4374,-2.4397,-2.4397,-2.5604,-2.5907,-2.4552,-2.5713,-2.5907,-2.4552,-2.4597,-2.4691,-2.4691,-2.3943,-2.4453,-2.6418,-2.6503,-2.7012,-2.8221,-2.6627,-2.5765,-2.5672,-2.51,-2.4185,-2.3208,-2.3889,-2.4422,0.0,-2.4359,-2.4959,-2.6132,-2.6199,-2.6186,-2.6146,-2.6319,-2.6386,-2.6386,-2.6386,-2.6386,-2.6386,-2.6386,-2.6386,-2.6386,-2.6386,-2.6386,-2.6386,-2.6386,-2.6386,-2.6386,-2.6386,-2.5581,-2.4786,-2.4786,-2.3964,-2.3472,-2.4534,-2.3964,-2.3804,-2.5977,-2.5502,-2.4786,-2.4786,-2.2751,-2.0807,-1.9755,-1.7501,-1.5966,-1.5966,-1.5966,-1.5966,-1.5966,-1.5966,-1.5966,-1.5966,-1.5628,-1.5298,-1.5133,-1.4878,-1.4651,-1.4626,-1.4735,-1.4636,-1.4412,-1.4509,-1.4476,-1.4299,-1.4299,-1.4299,-1.4299,-1.4299,-1.4299,0.0,-2.0174,-2.0267,-2.0521,-2.0615,-2.0722,-2.0989,-2.1082,0.0,-2.1109,-2.1109,-2.1122,-2.1136,-2.1149,-2.1336,-2.1951,-2.2044,-2.2365,-2.326,-2.4182,-2.5184,-2.6346,-2.6987,-2.7321,-2.7321,-2.7899,-2.8221,-2.8194,-2.8221,-2.8221,-2.8194,-2.8221,-2.8221,-2.8221,-2.6503,-2.6418,-2.8136,-2.8221,-2.8221,-2.8194,-2.7618,-2.7241,-2.7175,-2.6412,-2.6106,-2.6333,-2.5758,-2.5838,-2.6346,-2.5785,-2.5879,-2.636,-2.6092,-2.6146,-2.6386,-2.6386,-2.6386,-2.6386,-2.6386,-2.6386,-2.6386,-2.6386,-2.6386,-2.6386,-2.6386,-2.6386,-2.6386,-2.6386,-2.6386,-2.6386,-2.6386,-2.6386,-2.6386,-2.6386,-2.6386,-2.6386,-2.6386,-2.6386,-2.6386,-2.6386,-2.6386,-2.6386,-2.6386,-2.3644,-2.1383,-2.1222,-1.8309,-1.6122,-1.6048,-1.5966,-1.5966,-1.5966,-1.5966,-1.5966,-1.5966,-1.5628,-1.5298,-1.4796,-1.4796,-1.4946,-1.519,-1.5213,-1.5189,-1.497,-1.4992,-1.4734,-1.4387,-1.4299,-1.4299,-1.4299,-1.4299,-1.4299,-1.9405,0.0,-1.9867,-1.9706,-2.0013,-2.0347,0.0,-2.0788,-2.1109,-2.1109,-2.1109,-2.1176,-2.1467,-2.1443,-2.1775,-2.2593,-2.2659,-2.2966,-2.3875,-2.5144,-2.6333,-2.7281,-2.7709,-2.802,-2.802,-2.814,-2.8127,-2.7816,-2.81,-2.8127,-2.7816,-2.8016,-2.8221,-2.8221,-2.7799,-2.7714,-2.8221,-2.8221,-2.8114,-2.7802,-2.7442,-2.7028,-2.6573,-2.6159,-2.5999,-2.6039,-2.5665,-2.5838,-2.636,-2.5999,-2.6066,-2.6386,-2.6319,-2.6333,-2.6386,-2.6386,-2.6386,-2.6386,-2.6386,-2.6386,-2.6386,-2.6386,-2.6386,-2.6386,-2.6386,-2.6386,-2.6386,-2.6386,-2.6386,-2.6386,-2.6386,-2.6386,-2.6386,-2.6386,-2.6386,-2.6386,-2.6386,-2.6386,-2.6386,-2.6386,-2.6386,-2.6386,-2.6386,-2.4614,-2.2763,-2.1383,-1.9359,-1.7501,-1.6205,-1.5966,-1.5966,-1.5966,-1.5966,-1.5966,-1.5966,-1.5875,-1.5793,-1.5711,-1.5711,-1.5648,-1.5524,-1.5655,-1.5395,-1.4821,-1.459,-1.4557,-1.4822,-1.4476,-1.4299,-1.4299,-1.4299,-1.4299,-1.907,-1.9469,-1.9826,-1.9947,-2.0201,-2.0468,-2.0601,-2.0668,-2.0748,-2.0882,-2.0909,-2.1002,-2.1296,-2.1349,-2.159,-2.2338,-2.2579,-2.3166,-2.4609,-2.5598,-2.652,-2.7388,-2.7642,-2.7872,-2.7923,-2.7816,-2.7722,-2.7696,-2.7843,-2.7869,-2.7709,-2.7856,-2.7883,-2.7832,-2.7602,-2.7736,-2.8221,-2.7966,-2.7655,-2.7495,-2.6934,-2.6573,-2.6373,-2.5945,-2.5905,-2.6146,-2.5838,-2.5972,-2.6373,-2.6226,-2.6253,-2.6386,-2.6386,-2.6386,-2.6386,-2.6386,-2.6386,-2.6386,-2.6386,-2.6386,-2.6386,-2.6386,-2.6386,-2.6386,-2.6386,-2.6386,-2.6386,-2.6386,-2.6386,-2.6386,-2.6386,-2.6386,-2.6386,-2.6386,-2.6386,-2.6386,-2.6386,-2.6386,-2.6386,-2.6386,-2.6386,-2.6386,-2.6386,-2.4933,-2.3244,-2.1464,-1.9755,-1.7983,-1.6205,-1.5966,-1.5966,-1.5966,-1.5966,-1.5966,-1.5966,-1.5966,-1.5966,-1.5966,-1.5966,-1.5956,-1.5881,-1.6061,-1.5895,-1.5372,-1.4762,-1.4664,-1.4992,-1.4557,-1.4299,-1.4299,-1.4299,-1.4299,-1.9043,-1.9503,-1.9966,-2.0361,-2.0575,-2.0722,-2.0869,-2.0561,-2.0307,-2.0561,-2.0641,-2.0775,-2.1109,-2.1216,-2.1456,-2.2084,-2.2512,-2.338,-2.5197,-2.5785,-2.6319,-2.7108,-2.7241,-2.7362,-2.7602,-2.7415,-2.7362,-2.7615,-2.7629,-2.7629,-2.7629,-2.7589,-2.7468,-2.7268,-2.6974,-2.7175,-2.802,-2.7402,-2.7108,-2.7054,-2.6306,-2.6066,-2.6239,-2.5745,-2.5812,-2.6306,-2.6066,-2.6119,-2.6386,-2.6386,-2.6386,-2.6386,-2.6386,-2.6386,-2.6386,-2.6386,-2.6386,-2.6386,-2.6386,-2.6386,-2.6386,-2.6386,-2.6386,-2.6386,-2.6386,-2.636,-2.6333,-2.6373,-2.6386,-2.6386,-2.6386,-2.6386,-2.6386,-2.6386,-2.6386,-2.6386,-2.6386,-2.6386,-2.6386,-2.6386,-2.6386,-2.6386,-2.6386,-2.5184,-2.3484,-2.1464,-1.9917,-1.83,-1.6287,-1.5966,-1.5966,-1.5966,-1.5966,-1.5966,-1.5966,-1.5966,-1.5966,-1.5966,-1.5966,-1.6121,-1.63,-1.6216,-1.6225,-1.6231,-1.5285,-1.493,-1.5168,-1.4646,-1.4476,-1.4476,-1.4387,-1.4299,-1.9875,-2.0127,-2.0042,-1.9658,-2.012,-2.0561,-2.0107,-2.012,-2.018,-2.0294,-2.0508,-2.0842,-2.1454,-2.1683,-2.2124,-2.2979,-2.3781,-2.4489,-2.5064,-2.5825,-2.6466,-2.6841,-2.7108,-2.7281,-2.7321,-2.7295,-2.7281,-2.7321,-2.7335,-2.7335,-2.7335,-2.7094,-2.7054,-2.7255,-2.6974,-2.6894,-2.7028,-2.6694,-2.64,-2.6238,-2.6026,-2.5852,-2.5638,-2.5558,-2.5705,-2.6026,-2.605,-2.6119,-2.6386,-2.6386,-2.6386,-2.6386,-2.6386,-2.6386,-2.6386,-2.6386,-2.6386,-2.6386,-2.6386,-2.6386,-2.6386,-2.6386,-2.6386,-2.6386,-2.6386,-2.6213,-2.6079,-2.6319,-2.6386,-2.6386,-2.6386,-2.6386,-2.6386,-2.6386,-2.6386,-2.6386,-2.6386,-2.6386,-2.6386,-2.6386,-2.6386,-2.6386,-2.6386,-2.6149,-2.4933,-2.1706,-2.0969,-1.9602,-1.6451,-1.5966,-1.5966,-1.5966,-1.5966,-1.5966,-1.5966,-1.5966,-1.5966,-1.5966,-1.5966,-1.6121,-1.63,-1.5889,-1.6056,-1.6671,-1.5805,-1.562,-1.6225,-1.5344,-1.5087,-1.544,-1.4653,-1.4476,-1.9869,-2.026,-2.0419,-2.0142,-2.0617,-2.1145,-2.0877,-2.0601,-2.0468,-2.0468,-2.0575,-2.0855,-2.1507,-2.1722,-2.2151,-2.3367,-2.4168,-2.485,-2.5464,-2.5758,-2.6079,-2.6533,-2.6573,-2.668,-2.7001,-2.6881,-2.6854,-2.7014,-2.7028,-2.7028,-2.7028,-2.6894,-2.6814,-2.68,-2.6507,-2.6279,-2.6119,-2.5985,-2.5852,-2.5718,-2.5718,-2.5651,-2.5518,-2.5678,-2.5919,-2.6186,-2.6186,-2.6266,-2.6386,-2.6386,-2.6386,-2.6386,-2.6386,-2.6386,-2.6386,-2.6386,-2.6386,-2.6386,-2.6386,-2.6386,-2.636,-2.6199,-2.6266,-2.6333,-2.6012,-2.6039,-2.6186,-2.6159,-2.6159,-2.6186,-2.6346,-2.6386,-2.6386,-2.6386,-2.6386,-2.6386,-2.6386,-2.6386,-2.6386,-2.6386,-2.6386,-2.6386,-2.6386,-2.6386,-2.5502,-2.3003,-2.1786,-2.0251,-1.7737,-1.6607,-1.5966,-1.5966,-1.5966,-1.5966,-1.5966,-1.5966,-1.5966,-1.5966,-1.5966,-1.5998,-1.6162,-1.5921,-1.6089,-1.6698,-1.6012,-1.5877,-1.6401,-1.5697,-1.5528,-1.5704,-1.5264,-1.5175,-1.9805,-2.0215,-2.0629,-2.0847,-2.1169,-2.141,-2.148,-2.0989,-2.0615,-2.0748,-2.0828,-2.1015,-2.1534,-2.1842,-2.2392,-2.3661,-2.4422,-2.505,-2.5665,-2.5732,-2.5865,-2.6239,-2.6146,-2.6239,-2.668,-2.652,-2.648,-2.6707,-2.672,-2.672,-2.672,-2.6653,-2.6547,-2.6386,-2.6106,-2.5852,-2.5625,-2.5678,-2.5651,-2.5518,-2.5518,-2.5545,-2.5625,-2.5852,-2.6119,-2.6386,-2.6386,-2.6386,-2.6386,-2.6386,-2.6386,-2.6386,-2.6386,-2.6386,-2.6386,-2.6386,-2.6346,-2.6306,-2.636,-2.6346,-2.6253,-2.6104,-2.6106,-2.6186,-2.5665,-2.5785,-2.6052,-2.5892,-2.5852,-2.5932,-2.6293,-2.6386,-2.6386,-2.6386,-2.6386,-2.6386,-2.6386,-2.6386,-2.6386,-2.6386,-2.6386,-2.6386,-2.6386,-2.6386,-2.5819,-2.4056,-2.235,-2.0565,-1.8789,-1.7091,-1.5966,-1.5966,-1.5966,-1.5966,-1.5966,-1.5966,-1.5966,-1.5966,-1.5966,-1.5966,-1.5966,-1.5966,-1.6219,-1.6576,-1.6236,-1.6231,-1.6577,-1.6057,-1.5881,-1.6057,-1.5793,-1.5793,-2.0008,-2.0209,-2.0473,-2.1341,-2.1129,-2.0835,-2.1078,-2.0681,-2.0414,-2.0962,-2.1296,-2.1561,-2.1614,-2.2458,-2.3407,-2.4062,-2.489,-2.5384,-2.517,-2.5825,-2.6239,-2.6012,-2.6199,-2.6373,-2.6413,-2.64,-2.64,-2.6413,-2.6426,-2.6426,-2.6426,-2.6159,-2.6132,-2.6386,-2.6106,-2.6023,-2.5919,-2.6186,-2.6052,-2.5518,-2.5518,-2.5651,-2.5932,-2.6023,-2.6119,-2.6386,-2.6386,-2.6386,-2.6386,-2.6386,-2.6386,-2.6386,-2.6386,-2.6386,-2.6386,-2.6386,-2.6226,-2.6026,-2.6293,-2.6213,-2.6063,-2.6037,-2.605,-2.5932,-2.5611,-2.5358,-2.5224,-2.5478,-2.5545,-2.5678,-2.6239,-2.6386,-2.6386,-2.6386,-2.6386,-2.6386,-2.6386,-2.6386,-2.6386,-2.6386,-2.6386,-2.6386,-2.6386,-2.6386,-2.5819,-2.4056,-2.235,-2.0565,-1.8789,-1.7091,-1.5966,-1.5966,-1.5966,-1.5966,-1.5966,-1.5966,-1.5966,-1.5966,-1.5966,-1.5966,-1.5966,-1.5966,-1.6219,-1.6576,-1.6576,-1.6669,-1.7024,-1.6577,-1.6577,-1.7024,-1.6145,-1.5969,-1.9813,-2.0051,-2.0401,-2.1085,-2.1174,-2.11,-2.1583,-2.1457,-2.1416,-2.1641,-2.1737,-2.1817,-2.1817,-2.2645,-2.346,-2.3861,-2.4516,-2.5064,-2.5317,-2.5638,-2.5879,-2.6023,-2.6052,-2.6186,-2.6373,-2.6386,-2.6386,-2.6386,-2.6386,-2.6386,-2.6386,-2.6279,-2.6279,-2.6386,-2.6279,-2.6226,-2.6226,-2.6333,-2.6279,-2.6052,-2.6052,-2.6026,-2.6037,-2.6146,-2.6279,-2.6386,-2.6386,-2.6386,-2.6386,-2.6386,-2.6386,-2.6373,-2.6186,-2.6012,-2.5865,-2.6052,-2.5932,-2.5745,-2.6226,-2.6199,-2.6037,-2.6037,-2.6037,-2.5943,-2.5384,-2.5291,-2.5371,-2.5478,-2.5651,-2.5838,-2.6066,-2.6253,-2.6346,-2.6159,-2.6119,-2.6119,-2.6119,-2.5972,-2.5945,-2.6319,-2.6239,-2.6172,-2.636,-2.6386,-2.6149,-2.5502,-2.2992,-2.0969,-2.0322,-1.7746,-1.5966,-1.5966,-1.5966,-1.5966,-1.5966,-1.5966,-1.5966,-1.5966,-1.5966,-1.5966,-1.5966,-1.5966,-1.6162,-1.6405,-1.6519,-1.6706,-1.695,-1.688,-1.6928,-1.7112,-1.6761,-1.6673,-1.959,-2.0019,-2.0457,-2.0757,-2.1008,-2.132,-2.1897,-2.1988,-2.2046,-2.211,-2.2044,-2.2044,-2.2231,-2.2766,-2.3313,-2.3701,-2.4342,-2.4877,-2.5197,-2.5398,-2.5558,-2.5665,-2.5838,-2.6039,-2.6239,-2.6333,-2.6386,-2.6386,-2.6386,-2.6386,-2.6386,-2.6386,-2.6386,-2.6386,-2.6386,-2.6386,-2.6386,-2.6386,-2.6386,-2.6386,-2.6386,-2.6279,-2.6106,-2.6306,-2.6386,-2.6386,-2.6386,-2.6386,-2.6386,-2.6293,-2.6199,-2.6092,-2.5892,-2.5692,-2.5545,-2.5745,-2.5625,-2.5451,-2.5945,-2.5985,-2.5812,-2.5812,-2.5812,-2.5732,-2.5224,-2.5157,-2.5237,-2.5237,-2.5451,-2.5755,-2.5755,-2.5959,-2.6186,-2.5879,-2.5812,-2.5812,-2.5812,-2.5732,-2.5745,-2.6052,-2.6106,-2.6132,-2.6239,-2.6333,-2.6386,-2.6386,-2.3884,-2.2028,-2.2028,-1.8961,-1.6607,-1.6048,-1.5966,-1.5966,-1.5966,-1.5966,-1.5966,-1.5966,-1.5966,-1.5966,-1.5966,-1.5966,-1.6129,-1.63,-1.6487,-1.6674,-1.6766,-1.7023,-1.7112,-1.7112,-1.7112,-1.7112,-1.9381,-1.995,-2.0625,-2.0301,-2.0683,-2.1322,-2.1842,-2.2052,-2.2165,-2.2365,-2.2191,-2.2178,-2.282,-2.2928,-2.306,-2.3674,-2.4502,-2.497,-2.4676,-2.5144,-2.5398,-2.5117,-2.5598,-2.6037,-2.6037,-2.6213,-2.6386,-2.6386,-2.6386,-2.6386,-2.6386,-2.6386,-2.6386,-2.6386,-2.6386,-2.6386,-2.6386,-2.6386,-2.6386,-2.6386,-2.6386,-2.6386,-2.6386,-2.6386,-2.6386,-2.6386,-2.6386,-2.6386,-2.636,-2.6079,-2.5785,-2.5518,-2.5504,-2.5504,-2.5504,-2.5504,-2.5331,-2.5117,-2.5411,-2.5518,-2.5518,-2.5518,-2.5518,-2.5464,-2.517,-2.4877,-2.4636,-2.4562,-2.485,-2.5077,-2.5077,-2.5504,-2.5879,-2.5585,-2.5504,-2.5504,-2.5504,-2.5732,-2.5852,-2.5571,-2.5985,-2.6293,-2.609,-2.6199,-2.6386,-2.6386,-2.4945,-2.3816,-2.3736,-2.0727,-1.7983,-1.6205,-1.6048,-1.5966,-1.5966,-1.5966,-1.5966,-1.5966,-1.5966,-1.5966,-1.5966,-1.5966,-1.6121,-1.63,-1.6487,-1.6665,-1.6766,-1.7023,-1.7112,-1.7112,-1.7112,-1.7112,-1.943,-1.9668,-2.0118,-2.0161,-2.0676,-2.1299,-2.1614,-2.1902,-2.2155,-2.2633,-2.2659,-2.2592,-2.2552,-2.2899,-2.3247,-2.3434,-2.4022,-2.4502,-2.4623,-2.497,-2.5184,-2.509,-2.5411,-2.5651,-2.5651,-2.5905,-2.6092,-2.6092,-2.6279,-2.6386,-2.6386,-2.6386,-2.6386,-2.6386,-2.6386,-2.6386,-2.6386,-2.6186,-2.6092,-2.6079,-2.5879,-2.5985,-2.6386,-2.6386,-2.6386,-2.6386,-2.6386,-2.6279,-2.6066,-2.5772,-2.5598,-2.5491,-2.5291,-2.5077,-2.4917,-2.513,-2.5024,-2.4836,-2.5344,-2.5518,-2.5518,-2.5518,-2.5518,-2.5464,-2.517,-2.4877,-2.4676,-2.489,-2.501,-2.5077,-2.5077,-2.5211,-2.5317,-2.5224,-2.5211,-2.5211,-2.5211,-2.5117,-2.5117,-2.5451,-2.5651,-2.5812,-2.5932,-2.6199,-2.6386,-2.6386,-2.4945,-2.3265,-2.1873,-1.9907,-1.8326,-1.7629,-1.6613,-1.5966,-1.5966,-1.5966,-1.5966,-1.5966,-1.5966,-1.5966,-1.5966,-1.5966,-1.6073,-1.6121,-1.6422,-1.6609,-1.6665,-1.6966,-1.7112,-1.7112,-1.7112,-1.7112,-1.9895,-2.0089,-2.0357,-2.0378,-2.081,-2.1238,-2.1656,-2.1943,-2.2269,-2.2794,-2.2766,-2.2672,-2.2605,-2.2899,-2.322,-2.346,-2.3901,-2.4302,-2.4596,-2.4796,-2.4903,-2.4903,-2.5157,-2.5344,-2.5344,-2.5611,-2.5785,-2.5785,-2.5945,-2.6039,-2.6039,-2.6039,-2.6092,-2.6213,-2.6106,-2.6092,-2.6213,-2.5932,-2.5785,-2.5785,-2.5598,-2.5705,-2.6039,-2.6039,-2.6039,-2.6039,-2.6039,-2.5879,-2.5598,-2.5411,-2.5264,-2.5144,-2.497,-2.4796,-2.4589,-2.4836,-2.4796,-2.469,-2.5037,-2.5237,-2.5344,-2.5344,-2.5344,-2.5304,-2.513,-2.4877,-2.4676,-2.485,-2.4903,-2.4903,-2.4903,-2.4903,-2.4903,-2.4903,-2.4903,-2.4903,-2.4903,-2.485,-2.4917,-2.5277,-2.5438,-2.5571,-2.5745,-2.6026,-2.6213,-2.6213,-2.5437,-2.4117,-2.2089,-2.1151,-2.032,-1.9374,-1.7945,-1.7009,-1.7009,-1.6369,-1.5966,-1.5966,-1.5966,-1.5966,-1.5966,-1.5966,-1.5966,-1.5966,-1.6324,-1.6503,-1.6584,-1.6868,-1.7047,-1.7112,-1.7112,-1.7112,-2.057,-2.0852,-2.1005,-2.074,-2.0943,-2.1262,-2.1829,-2.2164,-2.2472,-2.2792,-2.2645,-2.2539,-2.2819,-2.2954,-2.3086,-2.3634,-2.3981,-2.4262,-2.4516,-2.4583,-2.4596,-2.4596,-2.4863,-2.5037,-2.5037,-2.5304,-2.5478,-2.5478,-2.5504,-2.5504,-2.5478,-2.5504,-2.5625,-2.5943,-2.5638,-2.5638,-2.5919,-2.5625,-2.5478,-2.5478,-2.5451,-2.5438,-2.5438,-2.5491,-2.5518,-2.5518,-2.5478,-2.5344,-2.5117,-2.5064,-2.489,-2.4676,-2.4649,-2.4636,-2.4636,-2.4636,-2.4636,-2.4636,-2.4636,-2.4836,-2.5077,-2.505,-2.5064,-2.5077,-2.505,-2.485,-2.4636,-2.4636,-2.4636,-2.4636,-2.4636,-2.4636,-2.4636,-2.4636,-2.4636,-2.4636,-2.4636,-2.485,-2.5037,-2.5037,-2.5277,-2.5478,-2.5478,-2.5745,-2.6037,-2.5999,-2.6226,-2.5714,-2.3901,-2.3714,-2.3058,-2.1184,-1.9695,-1.8779,-1.8598,-1.7164,-1.6205,-1.6048,-1.5966,-1.5966,-1.5966,-1.5966,-1.5966,-1.5966,-1.6219,-1.6389,-1.6552,-1.6755,-1.6846,-1.7088,-1.7104,-1.7112,-2.0018,-2.0186,-2.0474,-2.0665,-2.1091,-2.1545,-2.1668,-2.1871,-2.2231,-2.282,-2.2806,-2.2779,-2.2914,-2.306,-2.3273,-2.3407,-2.3674,-2.3888,-2.3941,-2.4155,-2.4302,-2.4302,-2.4556,-2.473,-2.473,-2.4997,-2.517,-2.517,-2.5384,-2.5411,-2.5184,-2.5384,-2.5438,-2.5277,-2.5424,-2.5545,-2.5611,-2.5317,-2.517,-2.517,-2.4943,-2.4823,-2.4836,-2.5304,-2.5518,-2.5504,-2.5277,-2.5264,-2.5384,-2.4917,-2.4836,-2.4957,-2.473,-2.4636,-2.4636,-2.4636,-2.4636,-2.4636,-2.4636,-2.4836,-2.5037,-2.481,-2.489,-2.5037,-2.4796,-2.469,-2.4636,-2.4636,-2.4636,-2.4636,-2.4636,-2.4636,-2.4636,-2.4636,-2.4636,-2.4636,-2.4636,-2.469,-2.473,-2.473,-2.497,-2.517,-2.517,-2.5611,-2.6039,-2.6266,-2.6346,-2.6201,-2.5505,-2.4452,-2.3464,-2.2584,-2.1362,-2.0008,-1.8399,-1.8126,-1.7501,-1.6122,-1.5966,-1.5966,-1.5966,-1.5966,-1.5966,-1.5966,-1.6219,-1.6324,-1.6365,-1.669,-1.6782,-1.6909,-1.7047,-1.7112,-2.0458,-2.0534,-2.0708,-2.0855,-2.1128,-2.1376,-2.1588,-2.1735,-2.1897,-2.2352,-2.2552,-2.2699,-2.2832,-2.2993,-2.3153,-2.33,-2.346,-2.3607,-2.3754,-2.3901,-2.3995,-2.3995,-2.4249,-2.4436,-2.4436,-2.469,-2.4863,-2.4863,-2.4877,-2.4877,-2.4863,-2.4743,-2.4796,-2.5077,-2.4957,-2.5024,-2.5304,-2.501,-2.4863,-2.4863,-2.4716,-2.4636,-2.4649,-2.4957,-2.509,-2.509,-2.493,-2.4957,-2.5064,-2.477,-2.473,-2.485,-2.469,-2.4636,-2.4636,-2.4636,-2.4636,-2.4636,-2.4636,-2.473,-2.4836,-2.469,-2.4743,-2.4836,-2.469,-2.4636,-2.4636,-2.4636,-2.4636,-2.4636,-2.4636,-2.4636,-2.4636,-2.4636,-2.4636,-2.4636,-2.4636,-2.4636,-2.4676,-2.4823,-2.4863,-2.4917,-2.505,-2.5451,-2.5892,-2.6319,-2.6386,-2.6279,-2.5999,-2.5412,-2.486,-2.4416,-2.3246,-2.2052,-2.097,-1.9452,-1.8218,-1.7337,-1.6451,-1.5966,-1.5966,-1.5966,-1.5966,-1.5966,-1.6137,-1.6219,-1.63,-1.6495,-1.6682,-1.6766,-1.6852,-1.6901,-2.0782,-2.1026,-2.1091,-2.1088,-2.1109,-2.1176,-2.1416,-2.1534,-2.1563,-2.1857,-2.2178,-2.2485,-2.2739,-2.2832,-2.2953,-2.3207,-2.3247,-2.334,-2.3581,-2.3661,-2.3688,-2.3688,-2.3955,-2.4128,-2.4128,-2.4396,-2.4556,-2.4556,-2.4382,-2.4369,-2.4556,-2.4102,-2.4155,-2.4836,-2.4436,-2.4436,-2.4917,-2.473,-2.4636,-2.4636,-2.4636,-2.4636,-2.4636,-2.4636,-2.4636,-2.4636,-2.4636,-2.4636,-2.4636,-2.4636,-2.4636,-2.4636,-2.4636,-2.4636,-2.4636,-2.4636,-2.4636,-2.4636,-2.4636,-2.4636,-2.4636,-2.4636,-2.4609,-2.4556,-2.4556,-2.4556,-2.4556,-2.4556,-2.4596,-2.4636,-2.4636,-2.4636,-2.4636,-2.4636,-2.4636,-2.4636,-2.4636,-2.4636,-2.4716,-2.4957,-2.481,-2.473,-2.5024,-2.5317,-2.5678,-2.6172,-2.6279,-2.6213,-2.5919,-2.6092,-2.6132,-2.5838,-2.4837,-2.405,-2.3671,-2.1087,-1.9349,-1.9105,-1.7665,-1.6936,-1.6936,-1.6936,-1.6936,-1.6936,-1.6287,-1.6113,-1.6259,-1.6292,-1.6462,-1.6669,-1.6633,-1.6665,-1.9889,-2.0324,-2.0801,-2.1025,-2.1109,-2.1122,-2.1162,-2.1162,-2.1256,-2.1614,-2.2044,-2.2432,-2.2472,-2.2686,-2.2873,-2.2913,-2.2926,-2.2939,-2.2979,-2.322,-2.338,-2.338,-2.3647,-2.3834,-2.3834,-2.4088,-2.4262,-2.4262,-2.4462,-2.4489,-2.4275,-2.4195,-2.4088,-2.3955,-2.4115,-2.4235,-2.4315,-2.4529,-2.4636,-2.4636,-2.4636,-2.4636,-2.4636,-2.4636,-2.4636,-2.4636,-2.4636,-2.4636,-2.4636,-2.4636,-2.4636,-2.4636,-2.4636,-2.4636,-2.4636,-2.4636,-2.4636,-2.4636,-2.4636,-2.4636,-2.4636,-2.4636,-2.4462,-2.4262,-2.4262,-2.4262,-2.4262,-2.4262,-2.4436,-2.4636,-2.4636,-2.4636,-2.4636,-2.4636,-2.4636,-2.4636,-2.4636,-2.4636,-2.4649,-2.469,-2.4663,-2.473,-2.5024,-2.5317,-2.5545,-2.5625,-2.5852,-2.5905,-2.5611,-2.5598,-2.5518,-2.5224,-2.5524,-2.4959,-2.3206,-2.3064,-2.243,-2.098,-2.0656,-2.0494,-2.0494,-2.0494,-2.0494,-2.0494,-1.7501,-1.5974,-1.6081,-1.6227,-1.6324,-1.6381,-1.6519,-1.6592,-2.0161,-2.0472,-2.074,-2.1025,-2.1109,-2.1109,-2.1109,-2.1109,-2.1149,-2.1269,-2.1643,-2.1977,-2.2151,-2.2552,-2.2806,-2.2645,-2.2752,-2.2928,-2.2928,-2.2979,-2.3073,-2.3073,-2.334,-2.3527,-2.3527,-2.3794,-2.3968,-2.3968,-2.3928,-2.3915,-2.3955,-2.3808,-2.3808,-2.4008,-2.4142,-2.4289,-2.4449,-2.4409,-2.4396,-2.4396,-2.4556,-2.4636,-2.4636,-2.4636,-2.4636,-2.4636,-2.4636,-2.4636,-2.4636,-2.4636,-2.4636,-2.4636,-2.4636,-2.4636,-2.4636,-2.4636,-2.4636,-2.4609,-2.4449,-2.4502,-2.4583,-2.4262,-2.4168,-2.4168,-2.4008,-2.3968,-2.3968,-2.3968,-2.4168,-2.4396,-2.4396,-2.4516,-2.4636,-2.4636,-2.4636,-2.4636,-2.4636,-2.4636,-2.4636,-2.4636,-2.4636,-2.473,-2.5024,-2.5184,-2.5331,-2.5491,-2.5625,-2.5665,-2.5531,-2.5518,-2.5464,-2.5331,-2.5705,-2.5257,-2.3302,-2.2702,-2.2028,-2.1222,-2.0241,-2.016,-2.1141,-2.1222,-2.0727,-1.9755,-1.8228,-1.7501,-1.7419,-1.6609,-1.6211,-1.63,-1.6292,-1.6332,-2.0316,-2.0545,-2.075,-2.0921,-2.1128,-2.1172,-2.1109,-2.1109,-2.1109,-2.1109,-2.1349,-2.1655,-2.1737,-2.2245,-2.2592,-2.2445,-2.2605,-2.2779,-2.2914,-2.2928,-2.2928,-2.2928,-2.3073,-2.3207,-2.3207,-2.3487,-2.3661,-2.3661,-2.3527,-2.3541,-2.3754,-2.3487,-2.3567,-2.4075,-2.4102,-2.4235,-2.4529,-2.4315,-2.4209,-2.4209,-2.4342,-2.4422,-2.4422,-2.4422,-2.4422,-2.4422,-2.4569,-2.4636,-2.4636,-2.4636,-2.4636,-2.4636,-2.4636,-2.4636,-2.4636,-2.4636,-2.4596,-2.4489,-2.4275,-2.4302,-2.4342,-2.3915,-2.3861,-2.3941,-2.3728,-2.3661,-2.3661,-2.3661,-2.3861,-2.4115,-2.4182,-2.4369,-2.4543,-2.4549,-2.4636,-2.4636,-2.4636,-2.4636,-2.4636,-2.4636,-2.4636,-2.4703,-2.493,-2.5024,-2.513,-2.5264,-2.5358,-2.5371,-2.5304,-2.5291,-2.5291,-2.5291,-2.5238,-2.4623,-2.3356,-2.1907,-2.1125,-2.1125,-1.9917,-1.9997,-2.1687,-2.1767,-2.1366,-2.0481,-1.9644,-1.8789,-1.7983,-1.6607,-1.6113,-1.6235,-1.6105,-1.6113,-1.9685,-2.0217,-2.0713,-2.0736,-2.1128,-2.1488,-2.1172,-2.1109,-2.1109,-2.1109,-2.1349,-2.1534,-2.1203,-2.163,-2.2111,-2.2378,-2.2432,-2.2539,-2.2887,-2.2928,-2.2928,-2.2928,-2.2873,-2.2886,-2.2886,-2.3166,-2.3354,-2.3354,-2.3594,-2.3754,-2.3768,-2.3487,-2.3474,-2.3781,-2.3794,-2.3928,-2.4222,-2.4209,-2.4209,-2.4195,-2.3941,-2.3808,-2.3808,-2.3808,-2.3808,-2.3848,-2.4396,-2.4636,-2.4636,-2.4636,-2.4636,-2.4636,-2.4636,-2.4636,-2.4636,-2.4636,-2.4462,-2.4222,-2.4209,-2.4035,-2.3808,-2.3781,-2.3594,-2.3367,-2.3354,-2.3354,-2.3354,-2.3354,-2.3567,-2.3861,-2.4128,-2.4209,-2.4289,-2.4569,-2.4636,-2.4636,-2.4636,-2.4636,-2.4636,-2.4636,-2.4636,-2.4636,-2.4589,-2.489,-2.4997,-2.4716,-2.4917,-2.4997,-2.4716,-2.4676,-2.4676,-2.4676,-2.3568,-2.2821,-2.2733,-2.1715,-2.1036,-2.1036,-2.0957,-2.1591,-2.326,-2.3339,-2.4058,-2.5583,-2.2624,-1.944,-1.6122,-1.6048,-1.6048,-1.6056,-1.5966,-1.6048,-1.9573,-2.0003,-2.0416,-2.0628,-2.0997,-2.1251,-2.1127,-2.1101,-2.1109,-2.1109,-2.1189,-2.1229,-2.1122,-2.159,-2.1964,-2.1884,-2.2017,-2.2245,-2.2539,-2.2579,-2.2645,-2.2846,-2.2928,-2.2928,-2.2928,-2.2966,-2.3033,-2.3033,-2.3126,-2.3193,-2.3193,-2.3273,-2.338,-2.3487,-2.3848,-2.4102,-2.4209,-2.4209,-2.4115,-2.3928,-2.3821,-2.3768,-2.3768,-2.3768,-2.3768,-2.3781,-2.3995,-2.4182,-2.4369,-2.4556,-2.4529,-2.4356,-2.4356,-2.4249,-2.4075,-2.4075,-2.4022,-2.3901,-2.3714,-2.3701,-2.3701,-2.3313,-2.3247,-2.3287,-2.3086,-2.3033,-2.3033,-2.3033,-2.3394,-2.3794,-2.3901,-2.4209,-2.4502,-2.4609,-2.4636,-2.4636,-2.4636,-2.4636,-2.4636,-2.4636,-2.4636,-2.4636,-2.4636,-2.473,-2.4756,-2.4649,-2.473,-2.4756,-2.4649,-2.4636,-2.4179,-2.3203,-2.2841,-2.1849,-1.9695,-1.9277,-1.9144,-1.9144,-1.9144,-1.9995,-2.1806,-2.2922,-2.2767,-2.1242,-2.1249,-2.1141,-2.098,-1.8789,-1.8228,-1.9277,-1.8228,-1.7656,-1.9449,-1.9895,-2.0272,-2.0598,-2.091,-2.1188,-2.1245,-2.1194,-2.1115,-2.1096,-2.1109,-2.1109,-2.1109,-2.143,-2.1657,-2.1628,-2.1775,-2.1937,-2.2231,-2.2271,-2.2378,-2.2672,-2.2712,-2.2752,-2.2914,-2.2928,-2.2928,-2.2928,-2.2928,-2.2928,-2.2928,-2.306,-2.322,-2.3327,-2.3808,-2.4062,-2.4062,-2.3955,-2.3808,-2.3621,-2.3514,-2.346,-2.346,-2.346,-2.346,-2.3474,-2.3581,-2.3781,-2.4075,-2.4262,-2.4235,-2.4062,-2.4062,-2.3941,-2.3768,-2.3768,-2.3714,-2.3594,-2.3394,-2.3394,-2.3394,-2.3062,-2.3006,-2.314,-2.2926,-2.2928,-2.2928,-2.2928,-2.3222,-2.3487,-2.3594,-2.4048,-2.4516,-2.4609,-2.4556,-2.4489,-2.4489,-2.4569,-2.4636,-2.4636,-2.4636,-2.4636,-2.4636,-2.4636,-2.4636,-2.4636,-2.4636,-2.4636,-2.4636,-2.4105,-2.3351,-2.2297,-2.1401,-2.0048,-1.775,-1.7391,-1.7205,-1.7132,-1.725,-1.8144,-1.9868,-2.114,-2.1022,-1.9402,-1.9968,-2.1222,-2.2923,-1.944,-1.8626,-2.0322,-1.9105,-1.8952,0.0,0.0,0.0,-2.0615,-2.0901,-2.1254,-2.1479,-2.1341,-2.1094,-2.1092,-2.1096,-2.1096,-2.1109,-2.1109,-2.1203,-2.1561,-2.1601,-2.1708,-2.1937,-2.1977,-2.2084,-2.2378,-2.2405,-2.2525,-2.2819,-2.2914,-2.2914,-2.2928,-2.2928,-2.2928,-2.2928,-2.2928,-2.3006,-2.3313,-2.3607,-2.3768,-2.3768,-2.3474,-2.3327,-2.3327,-2.3006,-2.2928,-2.2928,-2.2928,-2.2928,-2.2886,-2.318,-2.3474,-2.3741,-2.3768,-2.3768,-2.3754,-2.3754,-2.3754,-2.3741,-2.3741,-2.3567,-2.3313,-2.3313,-2.3113,-2.2928,-2.2928,-2.2928,-2.2928,-2.2928,-2.2928,-2.2928,-2.2928,-2.2941,-2.2953,-2.3273,-2.3781,-2.4275,-2.4556,-2.4422,-2.4209,-2.4209,-2.4436,-2.4636,-2.4623,-2.4549,-2.4636,-2.4636,-2.4636,-2.4636,-2.4636,-2.4636,-2.4636,-2.4636,-2.3203,-2.2148,-2.2148,-1.9283,-1.7398,-1.7331,-1.6233,-1.5423,-1.5244,-1.5561,-1.6398,-1.7794,-1.822,-1.9124,-2.0628,-1.9321,-1.943,-2.105,-1.7665,-1.7009,-1.8789,-1.8708,-1.9592,-1.8913,0.0,0.0,0.0,0.0,0.0,-2.0866,-2.0886,-2.0898,-2.1053,-2.11,-2.1105,-2.1132,-2.1109,-2.1136,-2.1216,-2.1229,-2.1336,-2.1695,-2.1735,-2.1777,-2.2071,-2.2111,-2.2218,-2.2512,-2.2539,-2.2632,-2.2846,-2.2928,-2.2928,-2.2928,-2.2928,-2.3006,-2.3313,-2.3407,-2.3554,-2.3768,-2.3474,-2.3327,-2.3327,-2.3006,-2.2928,-2.2928,-2.2928,-2.2928,-2.2928,-2.2953,-2.3033,-2.3153,-2.3594,-2.3647,-2.3447,-2.3447,-2.3313,-2.3182,-2.3182,-2.306,-2.2993,-2.2993,-2.2939,-2.2928,-2.2928,-2.2928,-2.2928,-2.2928,-2.2928,-2.2928,-2.2928,-2.302,-2.3313,-2.3834,-2.4088,-2.4222,-2.4302,-2.4422,-2.4462,-2.4249,-2.4436,-2.4569,-2.4369,-2.4489,-2.4636,-2.4636,-2.4636,-2.4636,-2.4636,-2.4636,-2.4636,-2.4636,-2.3203,-2.1775,-2.0564,-1.8613,-1.695,-1.5727,-1.5366,-1.5098,-1.5041,-1.526,-1.5581,-1.614,-1.759,-1.8012,-1.7208,-1.7987,-1.8096,-1.7288,-1.7665,-1.944,-2.235,-2.106,-2.0727,-1.8957,-1.9426,-1.9881,-2.0091,0.0,0.0,-2.0984,-2.1005,-2.0976,-2.1094,-2.1091,-2.1083,-2.1082,-2.1109,-2.1109,-2.1109,-2.1109,-2.1162,-2.1336,-2.1363,-2.1483,-2.1764,-2.1804,-2.1964,-2.2378,-2.2418,-2.2539,-2.2846,-2.2928,-2.2928,-2.2928,-2.2928,-2.2939,-2.3126,-2.314,-2.322,-2.3394,-2.322,-2.314,-2.3126,-2.2953,-2.2928,-2.2928,-2.2928,-2.2928,-2.2928,-2.2928,-2.2928,-2.2954,-2.3316,-2.3287,-2.314,-2.314,-2.302,-2.2928,-2.2928,-2.2928,-2.2928,-2.2928,-2.2928,-2.2928,-2.2928,-2.2928,-2.2928,-2.2928,-2.2928,-2.2928,-2.2928,-2.2993,-2.3247,-2.3714,-2.3834,-2.3875,-2.3995,-2.4062,-2.4048,-2.3875,-2.3968,-2.4155,-2.4342,-2.4422,-2.4489,-2.4609,-2.4529,-2.4489,-2.4549,-2.4636,-2.4636,-2.4636,-2.3203,-2.155,-1.9962,-1.8385,-1.6721,-1.5122,-1.5033,-1.5049,-1.4968,-1.5212,-1.5407,-1.5512,-1.6561,-1.6736,-1.5853,-1.6736,-1.6701,-1.5666,-1.6883,-1.8827,-2.1563,-2.1151,-2.1071,-1.9155,-1.9558,-1.9945,-2.0486,-2.0691,0.0,-2.1389,-2.1324,-2.119,-2.1091,-2.1088,-2.1038,-2.1065,-2.1042,-2.1069,-2.1069,-2.1122,-2.1149,-2.1109,-2.1109,-2.1203,-2.1534,-2.1574,-2.1724,-2.2271,-2.2325,-2.2445,-2.2807,-2.2792,-2.2819,-2.2819,-2.2914,-2.2928,-2.2928,-2.2928,-2.2928,-2.2928,-2.2928,-2.2928,-2.2928,-2.2928,-2.2928,-2.2928,-2.2928,-2.2928,-2.2928,-2.2928,-2.2928,-2.2928,-2.2928,-2.2928,-2.2928,-2.2928,-2.2928,-2.2928,-2.2928,-2.2928,-2.2928,-2.2928,-2.2928,-2.2928,-2.2928,-2.2928,-2.2928,-2.2928,-2.2928,-2.2928,-2.2928,-2.2928,-2.2939,-2.3247,-2.3327,-2.3394,-2.3661,-2.3541,-2.3367,-2.334,-2.3354,-2.3607,-2.4396,-2.4329,-2.4235,-2.4489,-2.4356,-2.4289,-2.4556,-2.4609,-2.4636,-2.4636,-2.3203,-2.155,-1.9962,-1.8385,-1.6797,-1.542,-1.5192,-1.5216,-1.5283,-1.5371,-1.5488,-1.5488,-1.5504,-1.5577,-1.5707,-1.5561,-1.5488,-1.5488,-1.5916,-1.6886,-1.8375,-1.9822,-2.0776,-1.9008,-1.9506,-2.012,-1.9989,-2.053,0.0,-2.093,-2.1018,-2.122,-2.118,-2.0952,-2.0768,-2.0787,-2.0786,-2.0762,-2.0762,-2.1226,-2.139,-2.1149,-2.1109,-2.1136,-2.1189,-2.1189,-2.1336,-2.1748,-2.1789,-2.1844,-2.2138,-2.2378,-2.2498,-2.2498,-2.2726,-2.2928,-2.2928,-2.2928,-2.2928,-2.2928,-2.2928,-2.2928,-2.2928,-2.2928,-2.2928,-2.2928,-2.2928,-2.2928,-2.2928,-2.2928,-2.2928,-2.2928,-2.2928,-2.2928,-2.2928,-2.2928,-2.2928,-2.2928,-2.2928,-2.2928,-2.2928,-2.2928,-2.2928,-2.2928,-2.2928,-2.2928,-2.2928,-2.2928,-2.2928,-2.2928,-2.2928,-2.2928,-2.2939,-2.3247,-2.3327,-2.334,-2.3407,-2.3554,-2.3621,-2.338,-2.3514,-2.3741,-2.3901,-2.3888,-2.3875,-2.3928,-2.4088,-2.4222,-2.4275,-2.4489,-2.4636,-2.4636,-2.3203,-2.155,-1.9962,-1.8385,-1.7255,-1.695,-1.5761,-1.5616,-1.6873,-1.5871,-1.5293,-1.5293,-1.5439,-1.5463,-1.5342,-1.5309,-1.5293,-1.5293,-1.704,-1.7999,-1.8157,-1.8647,-2.0216,-1.9169,-1.9506,-2.0003,-2.0003,-2.0486,0.0,0.0,-2.0975,-2.1161,-2.1978,-2.1711,-2.1398,-2.1576,-2.1591,-2.1396,-2.0805,-2.1042,-2.1524,-2.2055,-2.1797,-2.1496,-2.1349,-2.1336,-2.139,-2.1601,-2.1614,-2.1735,-2.1964,-2.2258,-2.2418,-2.2418,-2.2699,-2.2928,-2.2928,-2.2928,-2.2928,-2.2928,-2.2928,-2.2928,-2.2928,-2.2928,-2.2928,-2.2928,-2.2928,-2.2928,-2.2928,-2.2928,-2.2928,-2.2928,-2.2928,-2.2928,-2.2928,-2.2928,-2.2928,-2.2928,-2.2928,-2.2928,-2.2928,-2.2928,-2.2928,-2.2928,-2.2928,-2.2928,-2.2928,-2.2928,-2.2928,-2.2928,-2.2928,-2.2928,-2.2899,-2.306,-2.31,-2.31,-2.31,-2.3207,-2.3273,-2.3126,-2.3207,-2.3313,-2.3313,-2.3313,-2.342,-2.3714,-2.3768,-2.3861,-2.4155,-2.4329,-2.4476,-2.4549,-2.3883,-2.2744,-2.1164,-2.0263,-1.9132,-1.755,-1.6644,-1.6186,-1.6186,-1.5512,-1.5147,-1.5236,-1.5236,-1.5195,-1.5106,-1.5106,-1.5106,-1.5106,-1.6232,-1.7178,-1.7939,-1.8818,-1.9668,-1.955,-1.974,-2.0091,-2.0281,-2.0676,-2.1058,0.0,0.0,0.0,-2.2767,-2.2542,-2.2216,-2.2289,-2.2452,-2.2149,-2.0964,-2.1175,-2.1853,-2.2889,-2.2686,-2.225,-2.1947,-2.1663,-2.1534,-2.1534,-2.1534,-2.1563,-2.1804,-2.2084,-2.2271,-2.2338,-2.2619,-2.2806,-2.2928,-2.2928,-2.2928,-2.2928,-2.2928,-2.2928,-2.2928,-2.2928,-2.2928,-2.2928,-2.2928,-2.2928,-2.2928,-2.2928,-2.2928,-2.2928,-2.2928,-2.2928,-2.2928,-2.2928,-2.2928,-2.2928,-2.2928,-2.2928,-2.2928,-2.2928,-2.2928,-2.2928,-2.2928,-2.2928,-2.2928,-2.2928,-2.2928,-2.2928,-2.2928,-2.2928,-2.2928,-2.2928,-2.2928,-2.2928,-2.2928,-2.2928,-2.2928,-2.2928,-2.2928,-2.2928,-2.2928,-2.2928,-2.302,-2.3514,-2.3447,-2.35,-2.4035,-2.4168,-2.4302,-2.4596,-2.4636,-2.3957,-2.2372,-2.2223,-2.1164,-1.8537,-1.7778,-1.694,-1.6024,-1.5344,-1.5033,-1.5179,-1.5041,-1.4968,-1.4968,-1.5267,-1.5344,-1.4968,-1.5726,-1.6492,-1.718,-1.8521,-1.8752,-2.0223,-2.0574,-2.0984,-2.0735,-2.135,-2.1891,-2.1321,0.0,-2.2686,-2.257,0.0,-2.2418,-2.1515,0.0,0.0,-2.1335,-2.2014,-2.2779,-2.2889,-2.3391,-2.358,-2.302,-2.1894,-2.1162,-2.1162,-2.1162,-2.1176,-2.1203,-2.1483,-2.1764,-2.2017,-2.2311,-2.2592,-2.2928,-2.2928,-2.2928,-2.2928,-2.2928,-2.2928,-2.2928,-2.2928,-2.2928,-2.2928,-2.2928,-2.2928,-2.2928,-2.2928,-2.2928,-2.2928,-2.2928,-2.2928,-2.2928,-2.2928,-2.2928,-2.2928,-2.2928,-2.2928,-2.2928,-2.2928,-2.2928,-2.2928,-2.2928,-2.2928,-2.2928,-2.2928,-2.2928,-2.2928,-2.2928,-2.2928,-2.2928,-2.2928,-2.2928,-2.2928,-2.2928,-2.2928,-2.2928,-2.2928,-2.2928,-2.2928,-2.2928,-2.2928,-2.2954,-2.3021,-2.3166,-2.3434,-2.3768,-2.4035,-2.4302,-2.4596,-2.4636,-2.3957,-2.2372,-2.2223,-2.2073,-2.17,-1.9057,-1.793,-1.9208,-1.6559,-1.4976,-1.4992,-1.4976,-1.4968,-1.4968,-1.6415,-1.6415,-1.5045,-1.7873,-1.7883,-1.5308,-1.5621,-1.7143,-2.0047,-2.0296,-2.0814,-2.1566,-2.1523,-2.165,-2.2724,-2.2761,-2.2871,-2.4168,0.0,0.0,0.0,0.0,0.0,0.0,-2.2467,-2.3414,-2.3535,-2.3734,-2.3838,-2.3625,-2.2976,-2.2096,-2.1186,-2.1109,-2.1109,-2.1109,-2.139,-2.1668,-2.1724,-2.2164,-2.2472,-2.2605,-2.2779,-2.2928,-2.2928,-2.2928,-2.2928,-2.2928,-2.2928,-2.2928,-2.2928,-2.2928,-2.2928,-2.2928,-2.2928,-2.2928,-2.2928,-2.2928,-2.2928,-2.2928,-2.2928,-2.2928,-2.2928,-2.2928,-2.2928,-2.2928,-2.2928,-2.2928,-2.2928,-2.2928,-2.2928,-2.2928,-2.2928,-2.2928,-2.2928,-2.2928,-2.2928,-2.2928,-2.2928,-2.2928,-2.2928,-2.2928,-2.2928,-2.2928,-2.2928,-2.2928,-2.2928,-2.2928,-2.2928,-2.2928,-2.2928,-2.2966,-2.3166,-2.3474,-2.3621,-2.3861,-2.4329,-2.4382,-2.4156,-2.3635,-2.3574,-2.3203,-2.2297,-2.0939,-1.9661,-1.8461,-1.6254,-1.4968,-1.4968,-1.4968,-1.4968,-1.4968,-1.565,-1.565,-1.5045,-1.7321,-1.7702,-1.6415,-1.7406,-1.8541,-2.0807,-2.1076,-2.1673,-2.2789,-2.2427,-2.2283,-2.4028,-2.3825,-2.3698,-2.528,-2.5453,0.0,0.0,0.0,-2.4709,-2.243,0.0,-2.4214,-2.4331,-2.4412,-2.4428,-2.4301,-2.4172,-2.3577,-2.2418,-2.1964,-2.1727,-2.1664,-2.1615,-2.1598,-2.1614,-2.2031,-2.2338,-2.2418,-2.2712,-2.2928,-2.2928,-2.2928,-2.2928,-2.2928,-2.2928,-2.2928,-2.2928,-2.2928,-2.2928,-2.2928,-2.2928,-2.2928,-2.2928,-2.2928,-2.2928,-2.2928,-2.2928,-2.2928,-2.2928,-2.2928,-2.2928,-2.2928,-2.2928,-2.2928,-2.2928,-2.2928,-2.2928,-2.2928,-2.2928,-2.2928,-2.2928,-2.2928,-2.2928,-2.2928,-2.2928,-2.2928,-2.2928,-2.2928,-2.2928,-2.2928,-2.2928,-2.2928,-2.2928,-2.2928,-2.2928,-2.2928,-2.2928,-2.2928,-2.2966,-2.3287,-2.3327,-2.3514,-2.4022,-2.4088,-2.4168,-2.4382,-2.4396,-2.387,-2.2755,-2.23,-2.0946,-1.8224,-1.6559,-1.565,-1.565,-1.519,-1.4968,-1.4968,-1.542,-1.542,-1.4968,-1.7093,-1.7854,-1.7407,-1.9057,-1.9811,-2.3207,-2.3694,-2.4582,-2.4599,-2.4599,-2.4599,-2.4671,-2.5426,-2.596,-2.5271,-2.5865,-2.5955,-2.4015,0.0,0.0,0.0,0.0,0.0,0.0,-2.5709,-2.5853,-2.5158,-2.5274,-2.5407,-2.533,-2.424,-2.3387,-2.3076,-2.2167,-2.1624,-2.1601,-2.1844,-2.2124,-2.2405,-2.2712,-2.2928,-2.2928,-2.2928,-2.2928,-2.2928,-2.2928,-2.2928,-2.2928,-2.2928,-2.2928,-2.2928,-2.2928,-2.2928,-2.2928,-2.2928,-2.2928,-2.2928,-2.2928,-2.2928,-2.2928,-2.2928,-2.2928,-2.2928,-2.2928,-2.2928,-2.2928,-2.2928,-2.2928,-2.2928,-2.2928,-2.2928,-2.2928,-2.2928,-2.2928,-2.2928,-2.2928,-2.2928,-2.2928,-2.2928,-2.2928,-2.2928,-2.2928,-2.2928,-2.2928,-2.2928,-2.2928,-2.2928,-2.2928,-2.2928,-2.2966,-2.3287,-2.3327,-2.3434,-2.3741,-2.3781,-2.3794,-2.3794,-2.3794,-2.3794,-2.3723,-2.2576,-2.1207,-1.9801,-1.8234,-1.7331,-1.7331,-1.5803,-1.4968,-1.4968,-1.6568,-1.6568,-1.5045,-1.8148,-1.8905,-1.7407,-1.9057,-1.9811,-2.412,-2.4692,-2.5587,-2.5805,-2.5488,-2.5444,-2.6573,-2.6664,-2.646,-2.6061,-2.6825,-2.6792,0.0,0.0,0.0,0.0,0.0,0.0,0.0,-2.6102,-2.6832,-2.7646,-2.7328,-2.6636,-2.5619,-2.4363,-2.345,-2.3139,-2.1978,-2.1276,-2.1256,-2.1537,-2.1815,-2.1844,-2.2124,-2.2378,-2.2565,-2.2565,-2.2672,-2.2928,-2.2928,-2.2928,-2.2928,-2.2928,-2.2928,-2.2928,-2.2928,-2.2928,-2.2928,-2.2928,-2.2928,-2.2928,-2.2928,-2.2928,-2.2928,-2.2928,-2.2928,-2.2928,-2.2928,-2.2928,-2.2928,-2.2928,-2.2928,-2.2928,-2.2928,-2.2928,-2.2928,-2.2928,-2.2928,-2.2928,-2.2928,-2.2928,-2.2928,-2.2928,-2.2928,-2.2928,-2.2928,-2.2928,-2.2928,-2.2928,-2.2928,-2.2928,-2.2928,-2.2928,-2.2899,-2.3006,-2.302,-2.3126,-2.3434,-2.3474,-2.3554,-2.3754,-2.3768,-2.3768,-2.3768,-2.2563,-2.164,-2.1145,-1.98,-1.8981,-1.8981,-1.8451,-1.8148,-1.8148,-1.8678,-1.8234,-1.6568,-1.9811,-2.0564,-1.9057,-2.17,-2.1849,-2.5692,-2.6379,-2.7316,-2.753,-2.7271,-2.7085,-2.786,-2.767,-2.7233,-2.6827,-2.7179,-2.7116,0.0,0.0,0.0,0.0,0.0,0.0,0.0,-2.6921,-2.7846,-2.912,-2.8841,-2.7953,-2.653,-2.5774,-2.4733,-2.3201,-2.2529,-2.1853,-2.1172,-2.139,-2.1614,-2.1614,-2.183,-2.2071,-2.2258,-2.2258,-2.2418,-2.2699,-2.2605,-2.2659,-2.2928,-2.2645,-2.2605,-2.2699,-2.2699,-2.2699,-2.2712,-2.2819,-2.2928,-2.2928,-2.2928,-2.2928,-2.2928,-2.2928,-2.2928,-2.2928,-2.2928,-2.2928,-2.2928,-2.2928,-2.2928,-2.2928,-2.2928,-2.2928,-2.2928,-2.2928,-2.2928,-2.2928,-2.2928,-2.2928,-2.2928,-2.2928,-2.2928,-2.2928,-2.2928,-2.2928,-2.2928,-2.2928,-2.2928,-2.2928,-2.2928,-2.2928,-2.2928,-2.2928,-2.2928,-2.2939,-2.314,-2.3166,-2.3233,-2.3434,-2.3447,-2.35,-2.3607,-2.2839,-2.2391,-2.2491,-2.1114,-2.0426,-2.0504,-1.9981,-1.9725,-1.9811,-1.9811,-1.9283,-1.8234,-2.0338,-2.1089,-2.0714,-2.2744,-2.267]},{"header":{"parameterUnit":"m.s-1","parameterCategory":1,"la1":30.6,"la2":29.2853,"lo1":-89.7004,"lo2":-87.6739,"dy":0.0162,"dx":0.0183,"nx":112,"ny":82,"refTime":"2024-08-31T00:00:00:Z","depth":0,"parameterNumber":3,"parameterNumberName":"V-component_of_WINDS"},"data":[0.0,0.0,0.0,0.0,0.0,0.0,0.0,0.0,0.0,0.0,0.0,0.0,0.0,0.0,0.0,0.0,0.0,0.0,0.0,0.0,0.0,0.0,0.0,0.0,0.0,0.0,0.0,0.0,0.0,0.0,0.0,0.0,0.0,0.0,0.0,0.0,0.0,0.0,0.0,0.0,0.0,0.0,0.0,0.0,0.0,0.0,0.0,0.0,0.0,0.0,0.0,0.0,0.0,0.0,0.0,0.0,0.0,0.0,0.0,0.0,0.0,0.0,0.0,0.0,0.0,0.0,0.0,0.0,0.0,0.0,0.0,0.0,0.0,0.0,0.0,0.0,0.0,0.0,0.0,0.0,0.0,0.0,0.0,0.0,0.0,0.0,0.0,0.0,0.0,0.0,5.2678,5.5479,5.8536,6.0081,5.9358,5.9192,5.7107,5.2378,0.0,0.0,0.0,0.0,0.0,0.0,0.0,0.0,0.0,0.0,0.0,0.0,0.0,0.0,0.0,0.0,0.0,0.0,0.0,0.0,0.0,0.0,0.0,0.0,0.0,0.0,0.0,0.0,0.0,0.0,0.0,0.0,0.0,0.0,0.0,0.0,0.0,0.0,0.0,0.0,0.0,0.0,0.0,0.0,0.0,0.0,0.0,0.0,0.0,0.0,0.0,0.0,0.0,0.0,0.0,0.0,0.0,0.0,0.0,0.0,0.0,0.0,0.0,0.0,0.0,0.0,0.0,0.0,0.0,0.0,0.0,0.0,0.0,0.0,0.0,0.0,0.0,0.0,0.0,0.0,0.0,0.0,0.0,0.0,0.0,0.0,0.0,0.0,0.0,0.0,0.0,0.0,0.0,0.0,0.0,0.0,0.0,0.0,0.0,0.0,0.0,0.0,0.0,0.0,5.311,5.7084,5.9262,6.0067,5.9268,5.863,5.6712,5.3042,0.0,0.0,0.0,0.0,0.0,0.0,0.0,0.0,0.0,0.0,0.0,0.0,0.0,0.0,0.0,0.0,0.0,0.0,0.0,0.0,0.0,0.0,0.0,0.0,0.0,0.0,0.0,0.0,0.0,0.0,0.0,0.0,0.0,0.0,0.0,0.0,0.0,0.0,0.0,0.0,0.0,0.0,0.0,0.0,0.0,0.0,0.0,0.0,0.0,0.0,0.0,0.0,0.0,0.0,0.0,0.0,0.0,0.0,0.0,0.0,0.0,0.0,0.0,0.0,0.0,0.0,0.0,0.0,0.0,0.0,0.0,0.0,0.0,0.0,0.0,0.0,0.0,0.0,0.0,0.0,0.0,0.0,0.0,0.0,0.0,0.0,0.0,0.0,0.0,0.0,0.0,0.0,0.0,0.0,0.0,0.0,0.0,0.0,0.0,0.0,0.0,0.0,0.0,5.2957,5.4944,5.8192,5.9224,5.9366,5.8604,5.7908,5.6017,5.2587,5.1713,0.0,0.0,0.0,0.0,0.0,0.0,0.0,0.0,0.0,0.0,0.0,0.0,0.0,0.0,0.0,0.0,0.0,0.0,0.0,0.0,0.0,0.0,0.0,0.0,0.0,0.0,0.0,0.0,0.0,0.0,0.0,0.0,0.0,0.0,0.0,0.0,0.0,0.0,0.0,0.0,0.0,0.0,0.0,0.0,0.0,0.0,0.0,0.0,0.0,0.0,0.0,0.0,0.0,0.0,0.0,0.0,0.0,0.0,0.0,0.0,0.0,0.0,0.0,0.0,0.0,0.0,0.0,0.0,0.0,0.0,0.0,0.0,0.0,0.0,0.0,0.0,0.0,0.0,0.0,0.0,0.0,0.0,0.0,0.0,0.0,0.0,0.0,0.0,0.0,0.0,0.0,0.0,0.0,0.0,0.0,0.0,0.0,0.0,0.0,0.0,0.0,0.0,5.5479,5.6702,5.8626,5.8994,5.8729,5.78,5.6896,5.5093,5.2015,5.0868,0.0,0.0,0.0,0.0,0.0,0.0,0.0,0.0,0.0,0.0,0.0,0.0,0.0,0.0,0.0,0.0,0.0,0.0,0.0,0.0,0.0,0.0,0.0,0.0,0.0,0.0,0.0,0.0,0.0,0.0,0.0,0.0,0.0,0.0,0.0,0.0,0.0,0.0,0.0,0.0,0.0,0.0,0.0,0.0,0.0,0.0,0.0,0.0,0.0,0.0,0.0,0.0,0.0,0.0,0.0,0.0,0.0,0.0,0.0,0.0,0.0,0.0,0.0,0.0,0.0,0.0,0.0,0.0,0.0,0.0,0.0,0.0,0.0,0.0,0.0,0.0,0.0,0.0,0.0,0.0,0.0,0.0,0.0,0.0,0.0,0.0,0.0,0.0,0.0,0.0,0.0,0.0,0.0,0.0,0.0,0.0,0.0,0.0,0.0,0.0,0.0,0.0,5.5747,5.7837,5.8055,5.8691,5.854,5.709,5.5504,5.3792,5.2015,4.977,0.0,0.0,0.0,0.0,0.0,0.0,0.0,0.0,0.0,0.0,0.0,0.0,0.0,0.0,0.0,0.0,0.0,0.0,0.0,0.0,0.0,0.0,0.0,0.0,0.0,0.0,0.0,0.0,0.0,0.0,0.0,0.0,0.0,0.0,0.0,0.0,0.0,0.0,0.0,0.0,0.0,0.0,0.0,0.0,0.0,0.0,0.0,0.0,0.0,0.0,0.0,0.0,0.0,0.0,0.0,0.0,0.0,0.0,0.0,0.0,0.0,0.0,0.0,0.0,0.0,0.0,0.0,0.0,0.0,0.0,0.0,0.0,0.0,0.0,0.0,0.0,0.0,0.0,0.0,0.0,0.0,0.0,0.0,0.0,0.0,0.0,0.0,0.0,0.0,0.0,0.0,0.0,0.0,0.0,0.0,0.0,0.0,0.0,0.0,0.0,0.0,0.0,5.5288,5.7326,5.7888,5.8205,5.7684,5.609,5.5511,5.3985,5.1141,0.0,0.0,0.0,0.0,0.0,0.0,0.0,0.0,0.0,0.0,0.0,0.0,0.0,0.0,0.0,0.0,0.0,0.0,0.0,0.0,0.0,0.0,0.0,0.0,0.0,0.0,0.0,0.0,0.0,0.0,0.0,0.0,0.0,0.0,0.0,0.0,0.0,0.0,0.0,0.0,0.0,0.0,0.0,0.0,0.0,0.0,0.0,0.0,0.0,0.0,0.0,0.0,0.0,0.0,0.0,0.0,0.0,0.0,0.0,0.0,0.0,0.0,0.0,0.0,0.0,0.0,0.0,0.0,0.0,0.0,0.0,0.0,0.0,0.0,0.0,0.0,0.0,0.0,0.0,0.0,0.0,0.0,0.0,0.0,0.0,0.0,0.0,0.0,0.0,0.0,0.0,0.0,0.0,0.0,0.0,0.0,0.0,0.0,0.0,0.0,0.0,0.0,5.2537,5.5479,5.7518,5.7875,5.79,5.7212,5.5568,5.4825,5.33,5.0577,0.0,0.0,0.0,0.0,0.0,0.0,0.0,0.0,0.0,0.0,0.0,0.0,0.0,0.0,0.0,0.0,0.0,0.0,0.0,0.0,0.0,0.0,0.0,0.0,0.0,0.0,0.0,0.0,0.0,0.0,0.0,0.0,0.0,0.0,0.0,0.0,0.0,0.0,0.0,0.0,0.0,0.0,0.0,0.0,0.0,0.0,0.0,0.0,0.0,0.0,0.0,0.0,0.0,0.0,0.0,0.0,0.0,0.0,0.0,0.0,0.0,0.0,0.0,0.0,0.0,0.0,0.0,0.0,0.0,0.0,0.0,0.0,0.0,0.0,0.0,0.0,0.0,0.0,0.0,0.0,0.0,0.0,0.0,0.0,0.0,0.0,0.0,0.0,0.0,0.0,0.0,0.0,0.0,0.0,0.0,0.0,0.0,0.0,0.0,0.0,0.0,0.0,5.269,5.6511,5.883,5.8093,5.7926,5.7251,5.5626,5.3227,5.1421,0.0,0.0,0.0,0.0,0.0,0.0,0.0,0.0,0.0,0.0,0.0,0.0,0.0,0.0,0.0,0.0,0.0,0.0,0.0,0.0,0.0,0.0,0.0,0.0,0.0,0.0,0.0,0.0,0.0,0.0,0.0,0.0,0.0,0.0,0.0,0.0,0.0,0.0,0.0,0.0,0.0,0.0,0.0,0.0,0.0,0.0,0.0,0.0,0.0,0.0,0.0,0.0,0.0,0.0,0.0,0.0,0.0,0.0,0.0,0.0,0.0,0.0,0.0,0.0,0.0,0.0,0.0,0.0,0.0,0.0,0.0,0.0,0.0,0.0,0.0,0.0,0.0,0.0,0.0,0.0,0.0,0.0,0.0,0.0,0.0,0.0,0.0,0.0,0.0,0.0,0.0,0.0,0.0,0.0,0.0,0.0,0.0,0.0,0.0,0.0,0.0,0.0,0.0,5.2766,5.7008,5.9467,5.8066,5.79,5.7212,5.5568,5.4238,5.2602,5.047,0.0,0.0,0.0,0.0,0.0,0.0,0.0,0.0,0.0,0.0,0.0,0.0,0.0,0.0,0.0,0.0,0.0,0.0,0.0,0.0,0.0,0.0,0.0,0.0,0.0,0.0,0.0,0.0,0.0,0.0,0.0,0.0,0.0,0.0,0.0,0.0,0.0,0.0,0.0,0.0,0.0,0.0,0.0,0.0,0.0,0.0,0.0,0.0,0.0,0.0,0.0,0.0,0.0,0.0,0.0,0.0,0.0,0.0,0.0,0.0,0.0,0.0,0.0,0.0,0.0,0.0,0.0,0.0,0.0,0.0,0.0,0.0,0.0,0.0,0.0,0.0,0.0,0.0,0.0,0.0,0.0,0.0,0.0,0.0,0.0,0.0,0.0,0.0,0.0,0.0,0.0,0.0,0.0,0.0,0.0,0.0,0.0,0.0,0.0,0.0,0.0,0.0,5.2805,5.7237,5.9873,5.8536,5.8077,5.7351,5.5976,5.4829,5.3082,5.0474,0.0,0.0,0.0,0.0,0.0,0.0,0.0,0.0,0.0,0.0,0.0,0.0,0.0,0.0,0.0,0.0,0.0,0.0,0.0,0.0,0.0,0.0,0.0,0.0,0.0,0.0,0.0,0.0,0.0,0.0,0.0,0.0,0.0,0.0,0.0,0.0,0.0,0.0,0.0,0.0,0.0,0.0,0.0,0.0,0.0,0.0,0.0,0.0,0.0,0.0,0.0,0.0,0.0,0.0,0.0,0.0,0.0,0.0,0.0,0.0,0.0,0.0,0.0,0.0,0.0,0.0,0.0,0.0,0.0,0.0,0.0,0.0,0.0,0.0,0.0,0.0,0.0,0.0,0.0,0.0,0.0,0.0,0.0,0.0,0.0,0.0,0.0,0.0,0.0,0.0,0.0,0.0,0.0,0.0,0.0,0.0,0.0,0.0,0.0,0.0,0.0,0.0,5.2919,5.7275,6.0026,5.9109,5.8345,5.7504,5.6549,5.5021,5.3034,5.0588,0.0,0.0,0.0,0.0,0.0,0.0,0.0,0.0,0.0,0.0,0.0,0.0,0.0,0.0,0.0,0.0,0.0,0.0,0.0,0.0,0.0,0.0,0.0,0.0,0.0,0.0,0.0,0.0,0.0,0.0,0.0,0.0,0.0,0.0,0.0,0.0,0.0,0.0,0.0,0.0,0.0,0.0,0.0,0.0,0.0,0.0,0.0,0.0,0.0,0.0,0.0,0.0,0.0,0.0,0.0,0.0,0.0,0.0,0.0,0.0,4.5874,4.3995,0.0,0.0,0.0,0.0,0.0,0.0,0.0,0.0,0.0,0.0,0.0,0.0,0.0,0.0,0.0,0.0,0.0,0.0,0.0,0.0,0.0,0.0,0.0,0.0,0.0,0.0,0.0,0.0,0.0,0.0,0.0,0.0,0.0,0.0,0.0,0.0,0.0,0.0,0.0,0.0,5.3722,5.7657,5.9797,5.8307,5.8001,5.7275,5.5785,5.4715,5.3301,5.1429,4.9087,0.0,0.0,0.0,0.0,0.0,0.0,0.0,0.0,0.0,0.0,0.0,0.0,0.0,0.0,0.0,0.0,0.0,0.0,0.0,0.0,0.0,0.0,0.0,0.0,0.0,0.0,0.0,0.0,0.0,0.0,0.0,0.0,0.0,0.0,0.0,0.0,0.0,0.0,0.0,0.0,0.0,0.0,0.0,0.0,0.0,0.0,0.0,0.0,0.0,0.0,0.0,0.0,0.0,0.0,0.0,0.0,0.0,0.0,0.0,4.8689,4.74,0.0,0.0,0.0,0.0,0.0,0.0,0.0,0.0,0.0,0.0,0.0,0.0,0.0,0.0,0.0,0.0,0.0,0.0,0.0,0.0,0.0,0.0,0.0,0.0,0.0,0.0,0.0,0.0,0.0,0.0,0.0,0.0,0.0,0.0,0.0,0.0,0.0,0.0,0.0,0.0,5.4562,5.8039,5.9911,5.8612,5.8116,5.739,5.6091,5.5212,5.3989,5.227,5.0588,0.0,0.0,0.0,0.0,0.0,0.0,0.0,0.0,0.0,0.0,0.0,0.0,0.0,0.0,0.0,0.0,0.0,0.0,0.0,0.0,0.0,0.0,0.0,0.0,0.0,0.0,0.0,0.0,0.0,0.0,0.0,0.0,0.0,0.0,0.0,0.0,0.0,0.0,0.0,0.0,0.0,0.0,0.0,0.0,0.0,0.0,0.0,0.0,0.0,0.0,0.0,0.0,0.0,5.3381,5.3561,5.3194,5.3409,5.3922,5.4439,5.2238,5.1892,5.2652,5.022,0.0,0.0,0.0,0.0,0.0,0.0,0.0,0.0,0.0,0.0,0.0,0.0,0.0,0.0,0.0,0.0,0.0,0.0,0.0,0.0,0.0,0.0,5.3913,5.3913,5.5021,5.5479,5.3378,0.0,0.0,0.0,0.0,0.0,0.0,0.0,0.0,0.0,0.0,0.0,5.5594,5.8498,6.0064,5.9185,5.8383,5.7542,5.6664,5.5861,5.4715,5.311,5.227,5.0806,0.0,0.0,0.0,0.0,0.0,0.0,0.0,0.0,0.0,0.0,0.0,0.0,0.0,0.0,0.0,0.0,0.0,0.0,0.0,0.0,0.0,0.0,0.0,0.0,0.0,0.0,0.0,0.0,0.0,0.0,0.0,0.0,4.7174,4.7923,0.0,0.0,0.0,0.0,0.0,0.0,0.0,0.0,0.0,0.0,0.0,0.0,0.0,5.182,5.1775,5.4194,5.5108,5.4579,5.765,5.8392,5.7156,5.7782,5.8139,5.8353,5.7882,0.0,5.3655,5.2525,0.0,0.0,0.0,0.0,0.0,0.0,0.0,0.0,0.0,0.0,0.0,0.0,0.0,0.0,0.0,0.0,0.0,0.0,0.0,0.0,0.0,0.0,5.8255,5.8255,5.8446,5.8522,5.8178,5.5326,5.269,5.2384,5.1849,5.1085,0.0,0.0,0.0,0.0,0.0,0.0,5.7275,5.9224,6.0064,5.9185,5.8383,5.7542,5.6664,5.5861,5.4982,5.3989,5.311,5.2193,5.115,4.9595,0.0,0.0,0.0,0.0,0.0,0.0,0.0,0.0,0.0,0.0,0.0,0.0,0.0,0.0,0.0,0.0,0.0,0.0,0.0,0.0,0.0,0.0,0.0,0.0,0.0,0.0,0.0,0.0,0.0,4.7473,4.8961,4.7895,4.8664,4.8711,0.0,0.0,0.0,0.0,0.0,0.0,0.0,0.0,0.0,5.355,5.4478,5.5243,5.5844,5.7381,5.8229,5.8407,6.006,6.0426,5.9711,6.0188,6.0141,5.9669,5.9736,5.8911,5.7423,5.5524,5.4172,5.321,0.0,0.0,0.0,0.0,5.3118,5.3223,5.4506,5.46,5.412,5.4202,0.0,0.0,0.0,0.0,0.0,0.0,0.0,5.446,5.6307,5.7619,5.8651,5.9606,5.9835,5.995,6.0408,5.9033,5.7199,5.5288,5.5059,5.4256,5.1505,5.1505,0.0,0.0,0.0,5.6243,5.8307,5.9644,6.0064,5.9185,5.8803,5.823,5.739,5.7008,5.6625,5.6243,5.5403,5.4562,5.3747,5.2079,5.055,0.0,0.0,0.0,0.0,0.0,0.0,0.0,0.0,0.0,0.0,0.0,0.0,0.0,0.0,0.0,0.0,0.0,0.0,0.0,0.0,0.0,0.0,0.0,0.0,0.0,0.0,0.0,0.0,4.9122,5.0374,4.8688,5.0549,5.104,0.0,0.0,0.0,0.0,0.0,0.0,5.4692,5.5104,5.5756,5.6793,5.7927,5.8922,5.9809,6.0291,6.0866,6.1506,6.165,6.1666,6.1571,6.1819,6.1535,6.0806,6.0977,6.1019,6.0828,5.8172,5.6706,5.5978,5.4358,5.3718,5.3841,5.5122,5.5365,5.5379,5.7806,5.7963,5.7115,5.721,5.6091,5.4588,5.3849,0.0,0.0,0.0,0.0,5.5594,5.7925,5.8689,5.9147,6.0408,6.0867,6.1211,6.1784,6.1936,6.1134,5.8421,5.823,5.739,5.3836,5.4065,0.0,5.418,5.5708,5.7542,5.9224,5.9988,6.0141,5.9491,5.9224,5.888,5.8268,5.8001,5.781,5.7581,5.716,5.6549,5.5747,5.4448,5.2996,5.1314,0.0,0.0,0.0,0.0,0.0,0.0,0.0,0.0,0.0,0.0,0.0,0.0,0.0,0.0,0.0,0.0,0.0,0.0,0.0,0.0,0.0,0.0,0.0,0.0,0.0,0.0,0.0,0.0,0.0,5.1903,5.3742,0.0,0.0,0.0,0.0,5.3471,5.5064,5.6679,5.8233,6.0007,6.1315,6.1987,6.2211,6.2303,6.2231,6.2252,6.2373,6.2535,6.255,6.2612,6.2824,6.2839,6.2801,6.2762,6.2762,6.2777,6.2586,6.0012,5.8873,5.8629,5.7701,5.727,5.7165,5.7376,5.7967,5.8568,5.8099,5.8408,5.8981,5.8981,5.7848,5.6473,5.6396,5.5288,0.0,0.0,5.7084,5.8116,5.9835,6.0828,6.144,6.1516,6.2166,6.2777,6.2853,6.2853,6.2548,6.1554,6.0752,5.9682,5.7886,0.0,5.674,5.7542,5.7734,5.8421,6.0102,6.037,6.037,6.0346,5.9606,5.9057,5.9019,5.8345,5.7542,5.6702,5.739,5.7466,5.6587,5.6473,5.5632,5.3951,5.227,0.0,0.0,0.0,0.0,0.0,0.0,0.0,0.0,0.0,0.0,0.0,0.0,0.0,0.0,0.0,0.0,0.0,0.0,0.0,0.0,0.0,0.0,0.0,0.0,0.0,0.0,0.0,0.0,5.3996,5.5636,0.0,5.4183,5.4965,5.5996,5.6972,5.8479,5.989,6.1086,6.1723,6.2178,6.2531,6.2595,6.2642,6.2727,6.2579,6.2829,6.3448,6.3448,6.348,6.3527,6.3688,6.3427,6.2892,6.2892,6.2892,6.2853,6.1936,6.1526,6.1406,6.0528,6.0141,6.0036,5.9584,5.9612,5.9817,5.9592,5.9682,5.995,5.995,5.9529,5.9046,5.9046,5.8612,5.8268,5.8893,5.9262,5.9759,6.0867,6.1402,6.1745,6.2319,6.2662,6.3045,6.3618,6.3732,6.3618,6.3312,6.2586,6.1478,5.9797,5.9682,5.9568,5.8803,5.9147,5.972,6.0307,6.0422,6.0422,6.0422,6.0102,5.995,5.995,5.9147,5.8536,5.823,5.7504,5.716,5.7428,5.6396,5.5556,5.4944,5.3263,5.1123,0.0,0.0,0.0,0.0,0.0,0.0,0.0,0.0,0.0,0.0,0.0,0.0,0.0,0.0,0.0,0.0,0.0,0.0,0.0,0.0,0.0,0.0,0.0,0.0,0.0,5.4886,5.6583,5.5814,5.7953,5.8734,5.689,5.8236,5.9528,6.0203,6.1446,6.2443,6.3085,6.3318,6.347,6.3543,6.3543,6.3627,6.3732,6.3589,6.3848,6.4404,6.4419,6.4419,6.4404,6.4528,6.4305,6.3732,6.3732,6.3732,6.3732,6.3732,6.3732,6.3618,6.251,6.2051,6.1975,6.144,6.1249,6.1249,6.1249,6.0867,6.046,6.0714,6.0599,6.0422,6.0422,6.0599,6.079,6.079,6.1019,6.1363,6.1898,6.2242,6.2624,6.3197,6.3541,6.3885,6.4458,6.4611,6.4611,6.4611,6.3923,6.2892,6.1478,6.1707,6.1669,6.0561,6.0637,6.079,6.079,6.0575,6.0422,6.0422,6.0422,6.0422,6.0422,5.9606,5.9095,5.9095,5.8077,5.7581,5.7886,5.6816,5.6129,5.5823,5.4104,5.2422,5.0779,0.0,0.0,0.0,0.0,0.0,0.0,0.0,0.0,0.0,0.0,0.0,0.0,0.0,0.0,0.0,0.0,0.0,0.0,0.0,0.0,0.0,0.0,0.0,5.5146,5.663,5.7777,5.7575,6.0745,6.2222,6.0463,6.1902,6.293,6.293,6.3732,6.4244,6.4244,6.4993,6.5413,6.5452,6.5452,6.5452,6.549,6.549,6.549,6.549,6.549,6.549,6.549,6.549,6.549,6.549,6.549,6.549,6.549,6.549,6.5452,6.5261,6.3618,6.293,6.293,6.293,6.2892,6.2892,6.2892,6.1822,6.0599,6.1402,6.1096,6.0499,6.0499,6.1019,6.1631,6.1631,6.2242,6.293,6.293,6.3579,6.4206,6.4244,6.484,6.5413,6.5413,6.5413,6.5413,6.5413,6.4764,6.3962,6.3121,6.2968,6.293,6.293,6.2204,0.0,6.1631,6.0943,6.0446,6.046,6.046,6.046,6.0422,5.9644,5.9147,5.9095,5.9057,5.8689,5.7963,5.7886,5.7466,5.6677,5.5021,5.418,5.418,0.0,0.0,0.0,0.0,0.0,0.0,0.0,0.0,0.0,0.0,0.0,0.0,0.0,0.0,0.0,0.0,0.0,0.0,0.0,0.0,0.0,5.6886,5.821,5.7853,5.9364,6.0733,6.1338,6.2275,6.2686,6.2222,6.3183,6.3847,6.3847,6.4611,6.507,6.507,6.5261,6.5681,6.633,6.633,6.6636,6.7209,6.7209,6.7209,6.7209,6.7209,6.7209,6.7209,6.7209,6.7209,6.7209,6.7209,6.7209,6.7209,6.7209,6.6865,6.6178,6.4496,6.3847,6.377,6.3121,6.2892,6.2892,6.2892,6.2586,6.2242,6.2471,6.2395,6.2204,6.2204,6.2357,6.2548,6.2548,6.2739,6.3045,6.3694,6.4015,6.4359,6.4917,6.5222,6.5413,6.5413,6.5413,6.5413,6.5413,6.5222,6.4993,6.4764,6.4229,6.3847,6.3847,6.3083,6.2548,6.2548,6.2357,6.1975,6.1325,6.186,6.1707,6.0499,6.0179,5.9759,5.9133,5.7963,5.7734,5.8727,5.7581,5.7122,5.7542,5.6473,5.5899,0.0,0.0,0.0,0.0,0.0,0.0,0.0,0.0,0.0,0.0,0.0,0.0,0.0,0.0,0.0,0.0,0.0,0.0,0.0,0.0,0.0,0.0,5.964,6.122,6.1124,6.2008,6.2892,6.3388,6.3732,6.3962,6.3962,6.442,6.484,6.5222,6.5681,6.6101,6.6445,6.6445,6.6674,6.7171,6.7209,6.7439,6.7897,6.7897,6.7897,6.7897,6.7897,6.7897,6.7897,6.7897,6.7897,6.7897,6.7897,6.7897,6.7897,6.7897,6.763,6.7056,0.0,0.0,0.0,0.0,6.3732,6.3503,6.3847,6.3503,6.2968,6.335,6.3197,6.2892,6.2892,6.3159,6.3427,6.3427,6.3694,6.4076,6.4573,6.4955,6.5261,6.5375,6.5948,6.633,6.6025,6.5948,6.6025,6.6369,6.5872,0.0,6.633,6.549,6.4688,6.4688,6.3962,6.3427,6.3427,6.3121,6.2701,6.2204,6.2586,6.251,6.1516,6.079,0.0,0.0,0.0,5.7925,5.8574,5.8001,0.0,0.0,0.0,0.0,0.0,0.0,0.0,0.0,6.0179,6.0485,0.0,0.0,0.0,0.0,0.0,0.0,0.0,0.0,0.0,0.0,0.0,0.0,0.0,0.0,0.0,0.0,6.2166,6.4282,6.4473,6.4458,6.4473,6.4359,6.4955,6.5452,6.5528,6.5643,6.6025,6.6942,6.7056,6.74,6.8012,6.805,0.0,0.0,0.0,6.8088,6.8165,6.8165,6.8165,6.8165,6.8165,6.8165,6.8165,6.8165,6.8165,6.8165,6.8165,6.8165,6.8165,6.8165,6.8126,6.7973,6.7056,6.6216,6.5528,6.5452,6.4955,6.4435,6.5146,0.0,0.0,6.4076,6.3809,6.3197,6.3197,6.3732,6.4359,6.4359,6.484,6.5413,6.5528,6.6139,6.6522,6.5834,6.6827,6.7706,6.698,6.6827,6.7056,6.7744,6.6713,6.6139,6.763,6.6522,6.5413,6.5528,6.484,6.4359,6.4359,6.3656,6.3159,6.3045,6.3121,0.0,6.293,6.1631,6.1096,6.1707,6.037,5.9147,5.8345,5.93,5.9745,5.9682,6.1325,6.293,6.4458,6.5184,6.5605,6.5643,6.335,6.3465,0.0,0.0,0.0,0.0,0.0,0.0,0.0,0.0,0.0,0.0,0.0,0.0,0.0,0.0,0.0,6.1669,6.3312,6.4649,6.6025,6.6216,6.5948,6.5261,6.5299,6.5681,6.6369,6.7056,6.7782,6.8661,6.9311,6.9464,6.8967,6.8929,6.8929,6.8929,6.8929,6.9273,6.9922,6.9922,6.9922,6.9922,6.9922,0.0,6.9922,6.9922,6.9922,6.9922,6.9922,6.9922,6.9922,6.9922,6.954,6.8814,6.7286,6.6598,6.6369,6.5643,6.5299,6.5184,6.5337,6.5184,6.4955,6.5108,6.5031,6.4917,6.4917,6.5031,0.0,6.5184,6.5261,6.5566,6.6254,6.656,6.6827,6.7286,6.7668,6.7859,6.7706,6.7668,6.7706,6.7859,6.763,6.7515,6.7821,6.6522,6.5643,6.633,6.5719,6.5184,6.5184,6.5031,6.4688,6.4,6.4535,6.4382,6.3006,6.3236,6.3236,6.2701,6.2357,6.1784,6.0905,6.3006,6.3885,6.3236,6.4879,6.5872,6.6216,6.6369,6.6789,6.74,6.6904,6.6598,0.0,0.0,0.0,0.0,0.0,0.0,0.0,0.0,0.0,0.0,0.0,5.6243,5.9224,0.0,6.186,6.4382,6.549,6.633,6.7171,6.7286,6.7133,6.6713,6.6636,6.698,6.7859,6.8317,6.9082,7.0342,7.0801,7.1068,7.1107,7.1107,7.1107,7.1107,7.1107,7.1107,7.1068,7.1068,7.1068,7.1068,7.1068,7.1068,7.1068,7.1068,7.0801,7.0419,7.0419,7.0419,7.0419,7.0419,7.0151,6.9693,6.8432,6.7439,6.6636,6.6216,6.5757,6.5413,6.5413,6.5413,6.5413,6.5413,6.5413,6.5413,6.5413,6.5413,6.549,6.5948,6.6063,6.6254,6.7095,6.7286,6.74,6.7782,6.8241,6.8547,6.8547,6.8547,6.8661,6.9082,6.847,6.8165,6.9005,6.7744,6.6674,6.6713,6.633,6.5872,6.5452,6.5413,6.5261,6.484,6.5146,6.507,6.4229,6.4535,6.4611,6.4191,6.4153,6.3962,6.3503,6.5146,6.5872,6.5452,6.6674,6.7515,6.7935,6.8356,6.8967,6.9807,7.0228,6.9769,0.0,0.0,0.0,0.0,0.0,0.0,0.0,5.6587,5.6893,5.7848,5.8765,6.0026,6.2204,6.3732,6.5184,6.6674,6.7477,6.7935,6.8126,6.8126,6.8203,6.8356,6.8088,6.8279,6.9311,6.9578,7.0381,7.2062,7.2329,7.2673,7.3208,7.3246,7.317,7.2979,7.2979,7.2673,7.1947,7.1947,7.1947,7.1947,7.1947,7.1947,7.1947,7.1756,7.1298,7.0648,7.0495,7.0419,7.0419,7.0419,7.0419,7.0342,6.9693,6.8508,6.7171,6.7018,6.6407,6.5643,6.5643,6.5528,6.5413,6.5413,6.5413,6.5413,6.5413,6.5413,6.5566,6.6254,6.6445,6.6636,6.7439,6.7668,6.7744,6.8088,6.8699,6.9234,6.9387,6.9425,6.9616,7.0266,6.9311,6.8814,7.019,6.9273,6.805,6.7095,6.6789,6.6407,6.5528,6.5566,6.5605,6.5413,6.5566,6.5643,6.5643,6.5796,6.5872,6.5872,6.5872,6.5872,6.5872,6.6865,6.7362,6.7209,6.8317,6.9158,6.9693,7.0495,7.1259,7.1947,7.2673,7.2253,5.3034,5.4256,5.4906,5.5174,5.5785,5.7122,0.0,6.0905,6.1363,6.3006,6.4,6.4879,6.5948,6.6292,6.6713,6.763,6.7821,6.8165,6.8929,6.9043,6.9311,7.0037,6.8814,6.8508,7.0113,7.0954,7.21,7.3781,7.4622,7.4775,7.4087,7.4087,7.3743,7.3017,7.2979,7.2941,7.2864,7.2864,7.2864,7.2864,7.2864,7.2864,7.2826,7.2062,7.1642,7.1489,7.0724,7.0419,7.0419,7.0419,7.0419,7.0381,7.0304,6.9731,6.8814,6.805,6.7247,6.656,6.656,6.6063,6.5413,6.5413,6.5413,6.5413,6.5413,6.5413,6.5413,6.5528,6.5566,6.5757,6.6598,6.6827,6.7209,6.8699,6.912,6.9387,7.0113,7.0266,7.0304,7.0364,7.0266,7.019,7.0381,7.0228,6.9578,6.8012,6.7171,6.6407,6.5528,6.6101,6.6254,6.549,6.6101,6.656,6.656,6.7209,6.763,6.763,6.763,6.763,6.763,6.9158,6.9655,6.8929,7.1221,7.21,7.1429,7.2291,7.275,7.2864,7.2941,7.2902,5.5365,5.6587,5.7199,5.8651,5.9262,6.0026,6.1936,6.3121,6.4038,6.4764,6.5948,6.7133,6.7973,6.8165,6.8585,6.9884,7.0113,7.0228,7.061,7.0648,7.0419,6.9769,6.9502,7.0037,7.1756,7.2673,7.3667,7.4851,7.5271,7.5348,7.4966,7.4966,7.4813,7.4469,7.4431,7.4201,7.3705,7.3705,7.3705,7.3705,7.3705,7.3705,7.3667,7.2826,7.1909,7.0916,7.0572,7.0419,7.0419,7.0419,7.0419,7.0419,7.0419,7.019,6.9807,6.8967,6.8126,6.74,6.74,6.6865,6.6178,6.6178,6.5796,6.5413,6.5413,6.5413,6.5605,6.656,6.6827,6.7171,6.8508,6.8126,6.7821,6.9502,6.9158,6.8814,7.0113,7.0419,7.0419,7.0419,7.0419,7.0419,7.0419,7.0419,6.9999,6.8814,6.8356,6.7859,6.698,6.7171,6.7247,6.6904,6.7171,6.7591,6.8126,6.847,6.9082,7.0037,7.0113,7.0342,7.0839,7.1527,7.1756,7.1412,7.2444,7.2826,7.2444,7.3284,7.3705,7.3705,7.4201,7.4431,5.6587,5.8039,5.9224,6.0599,6.1631,6.2548,6.3388,6.4879,6.6139,6.6407,6.7591,6.8776,6.9425,6.954,6.9999,7.145,7.168,7.168,7.168,7.168,7.1145,6.9693,7.0266,7.1336,7.2864,7.3514,7.4316,7.5424,7.5518,7.5518,7.5518,7.5692,7.5806,7.5806,7.5806,7.5539,7.4889,7.466,7.4545,7.4545,7.4545,7.4545,7.4545,7.3705,7.2406,7.0763,7.0763,7.061,7.0419,7.0419,7.0419,7.0419,7.0419,7.0419,7.0342,6.9769,6.9005,6.8241,6.8241,6.7553,6.6713,6.6713,6.6101,6.5452,6.5681,6.5757,6.6063,6.7477,6.7897,6.8165,6.9387,6.9005,6.8623,7.0075,6.9655,6.9349,7.0801,7.1107,7.1068,7.0801,7.0763,7.0686,7.0457,7.0419,7.019,6.9616,6.954,6.912,6.805,6.7897,6.7973,6.8241,6.8241,6.8508,6.9158,6.9616,7.0419,7.162,7.1909,7.2329,7.2979,7.3208,7.3246,7.2979,7.3437,7.3552,7.3323,7.4163,7.4545,7.4584,7.523,7.5553,5.6091,5.8421,6.1134,5.9568,6.1669,6.4305,6.5146,6.6598,6.805,6.889,6.9769,7.0342,7.0381,7.0381,7.0648,7.1527,7.168,7.168,7.168,7.168,7.1374,7.0495,7.1145,7.1985,7.2902,7.3017,7.3705,7.5386,7.5518,7.5518,7.5518,7.6227,7.6647,7.6647,7.6647,7.6647,7.6609,7.5844,7.548,7.548,7.548,7.548,7.5442,7.4545,7.3246,7.1658,7.1658,7.1183,7.0419,7.0419,7.0419,7.0419,7.0419,7.0419,7.0419,7.0381,6.9846,6.9158,6.9158,6.8088,6.6713,6.6713,6.6101,6.5566,6.6407,6.6674,6.6827,6.7668,6.7897,6.7897,6.7973,6.8547,6.9387,7.019,7.0992,7.1833,7.2711,7.2902,7.2673,7.1794,7.1658,7.1374,7.0572,7.0419,7.0381,7.0381,7.0381,6.9769,6.8088,6.7897,6.8203,6.9082,6.9158,6.9158,6.9196,7.0686,7.1642,7.168,7.2482,7.2979,7.2979,7.3743,7.3819,7.3017,7.4584,7.5004,7.4163,7.5042,7.548,7.548,7.5549,7.5599,5.8498,6.0561,6.2586,6.3159,6.4153,6.5375,6.6751,6.7935,6.8661,6.8394,6.8547,6.8585,6.805,6.7973,6.8432,6.9807,7.0954,7.168,7.168,7.2673,7.2406,6.9884,7.1336,7.2215,7.1374,7.2788,7.4278,7.5403,7.5997,7.6303,7.6303,7.7105,7.7564,7.7564,7.7564,7.7564,7.7564,7.7296,7.7144,7.7144,7.657,7.5692,7.4622,7.4316,7.359,7.2559,7.2559,7.2406,7.2062,7.1489,7.1259,7.1259,7.1259,7.1259,7.1336,7.1909,7.1947,7.1565,7.0419,6.9273,6.8356,6.8356,6.7782,6.7095,6.74,6.7515,6.7668,6.8508,6.9158,6.9693,7.0266,7.0648,7.1068,7.1909,7.1909,7.1947,7.2788,7.2979,7.2902,7.2597,7.2559,7.2482,7.2176,7.1642,7.1259,7.1259,7.0763,7.019,6.9616,6.9578,6.9655,6.996,7.0495,7.0839,7.0839,7.1909,7.2788,7.3323,7.3628,7.4049,7.4622,7.4927,7.4927,7.466,7.5212,7.5348,7.5042,7.5348,7.5497,7.5549,7.5583,7.5633,6.0293,6.2051,6.3694,6.507,6.5643,6.6292,6.7973,6.8547,6.8585,6.8012,6.7668,6.7209,6.6407,6.6254,6.6904,6.889,7.0342,7.145,7.2062,7.3323,7.3284,7.0839,7.1985,7.2673,7.1833,7.3246,7.4431,7.5004,7.6074,7.6685,7.6685,7.7831,7.8443,7.8443,7.8443,7.8443,7.8443,7.8175,7.7831,7.7526,7.6685,7.5692,7.466,7.4966,7.466,7.3896,7.3896,7.3705,7.3361,7.252,7.1985,7.1718,7.2024,7.1947,7.1811,7.2673,7.2979,7.2788,7.1374,7.0304,6.9578,6.9273,6.8623,6.7935,6.8279,6.8356,6.8623,6.9769,7.0457,7.0992,7.1527,7.2138,7.2673,7.2941,7.3017,7.3208,7.3781,7.3896,7.3781,7.3476,7.3437,7.3323,7.3055,7.252,7.2138,7.2138,7.168,7.1336,7.1336,7.1068,7.0877,7.0877,7.1107,7.1374,7.168,7.2482,7.3323,7.4163,7.4507,7.4927,7.548,7.5518,7.5518,7.5518,7.5518,7.5518,7.5518,7.5497,7.5549,7.5599,7.5666,7.5715,6.1478,6.3006,6.4535,6.5375,6.6178,6.7209,6.8814,6.847,6.7821,6.7782,6.7095,6.6254,6.5375,6.5222,6.6101,6.8585,6.9807,7.103,7.275,7.3781,7.4049,7.3208,7.3208,7.3514,7.4201,7.4354,7.4393,7.4354,7.5844,7.68,7.6838,7.8443,7.9378,7.9378,7.9378,7.9378,7.9378,7.8481,7.764,7.6761,7.5959,7.5556,7.5556,7.6303,7.6227,7.5556,7.5518,7.5042,7.4278,7.3399,7.2559,7.1909,7.275,7.2559,7.1909,7.2788,7.3132,7.2979,7.2138,7.1259,7.0419,6.9578,6.8776,6.8241,6.9082,6.9311,6.9578,7.1221,7.1718,7.1756,7.1756,7.3017,7.4087,7.3323,7.4316,7.5518,7.5518,7.5518,7.5271,7.4431,7.4278,7.401,7.3208,7.3055,7.3055,7.3055,7.3055,7.3055,7.3017,7.2291,7.1756,7.1756,7.1068,7.0916,7.1756,7.2635,7.3437,7.424,7.5042,7.5518,7.5518,7.5518,7.5518,7.5518,7.5518,7.5518,7.5518,7.5549,7.5599,7.5616,7.5817,7.5895,6.2983,6.4764,6.6407,6.7859,6.7897,6.7859,6.8967,6.805,6.6827,6.6178,6.4879,6.3618,6.2739,6.3121,6.4153,6.6063,6.8661,7.103,7.275,7.4775,7.5768,7.4966,7.5959,7.6303,7.5271,7.6303,7.6761,7.6112,7.7067,7.7946,7.8596,7.9627,8.02,8.02,8.02,8.02,8.02,7.936,7.8519,7.7678,7.68,7.6074,7.5518,7.5692,7.5997,7.6341,7.5768,7.5692,7.5959,7.4507,7.3781,7.359,7.3819,7.3781,7.3667,7.4545,7.4851,7.4736,7.3858,7.3017,7.2215,7.1336,7.0916,7.0763,7.0992,7.061,7.0304,7.1412,7.2176,7.2673,7.2673,7.3896,7.5119,7.4889,7.5195,7.5518,7.5518,7.5518,7.5442,7.5195,7.5157,7.4889,7.4049,7.3896,7.3896,7.3896,7.3896,7.3667,7.3093,7.2788,7.2673,7.2673,7.3017,7.3323,7.3552,7.4354,7.4927,7.5157,7.5386,7.5518,7.5518,7.5518,7.5518,7.5518,7.5518,7.5497,7.5566,7.5583,7.5666,7.5833,7.5864,7.5925,6.4167,6.5681,6.7095,6.8776,6.8547,6.7935,6.8088,6.7095,6.5681,6.4076,6.2968,6.2089,6.1211,6.1745,6.3121,6.5566,6.8165,7.0877,7.3705,7.5577,7.6685,7.6609,7.7449,7.764,7.6685,7.7449,7.7946,7.7831,7.829,7.8787,7.9263,8.0047,8.0506,8.0506,8.0506,8.0506,8.0506,7.9704,7.8863,7.7984,7.7105,7.6265,7.5518,7.5844,7.6265,7.6685,7.6227,7.6265,7.6609,7.531,7.4545,7.424,7.4622,7.4545,7.4316,7.5157,7.5518,7.5442,7.4927,7.4469,7.3896,7.2673,7.1985,7.1756,7.2138,7.1374,7.0648,7.1909,7.2597,7.2979,7.2979,7.424,7.5386,7.5004,7.5233,7.5518,7.5518,7.5518,7.5518,7.5518,7.5518,7.5348,7.4851,7.4775,7.4775,7.4775,7.4775,7.4622,7.4163,7.3743,7.3514,7.3514,7.3628,7.3819,7.4163,7.466,7.508,7.548,7.5518,7.5518,7.5518,7.5553,7.5532,7.5532,7.5566,7.5616,7.5649,7.5699,7.5801,7.5933,7.631,7.6509,6.5261,6.6369,6.74,6.8852,6.847,6.7515,6.6713,6.5681,6.4267,6.2051,6.1516,6.1211,6.0537,6.1058,6.2739,6.6139,6.8126,7.0648,7.4889,7.6303,7.7182,7.8061,7.829,7.8328,7.8328,7.8328,7.8634,7.9416,7.9454,7.9454,7.9454,8.0124,8.0506,8.0506,8.0506,8.0506,8.0506,7.9704,7.8901,7.8175,7.7182,7.6341,7.5671,7.6265,7.6609,7.6685,7.657,7.6609,7.6647,7.5806,7.5042,7.4469,7.5195,7.5042,7.4469,7.5233,7.5518,7.5518,7.5518,7.5518,7.5233,7.3667,7.2559,7.1985,7.275,7.1794,7.0763,7.252,7.2979,7.3017,7.3132,7.4316,7.531,7.4545,7.4966,7.5518,7.5518,7.5518,7.5518,7.5518,7.5518,7.5518,7.5518,7.5518,7.5518,7.5518,7.5518,7.5518,7.5518,7.4851,7.4393,7.4393,7.3743,7.359,7.4316,7.4393,7.4698,7.5442,7.5518,7.5518,7.5535,7.5549,7.5599,7.5616,7.566,7.5708,7.5708,7.5864,7.5972,7.6102,7.6908,7.7361,6.7034,6.8088,6.8852,6.912,6.805,6.6674,6.5834,6.3885,6.2128,6.1707,6.1058,6.0575,6.0422,6.1058,6.2739,6.6139,6.8126,7.0648,7.4889,7.68,7.8099,7.8978,7.9665,8.0086,8.0086,8.0086,8.0124,8.0277,8.0277,8.0277,8.0277,8.043,8.0506,8.0506,8.0506,8.0506,8.0506,7.9704,7.9225,7.9054,7.7449,7.6647,7.6456,7.5959,7.6074,7.6647,7.5997,7.6074,7.6647,7.5806,7.5386,7.5271,7.5442,7.5386,7.5271,7.5442,7.5518,7.5518,7.5518,7.5518,7.531,7.4316,7.3437,7.2788,7.2941,7.1794,7.0763,7.252,7.2979,7.3132,7.3819,7.4736,7.548,7.531,7.5403,7.5518,7.5518,7.5518,7.5518,7.5518,7.5518,7.5518,7.5518,7.5518,7.5518,7.5518,7.5518,7.5518,7.5518,7.5348,7.5271,7.5271,7.5174,7.5119,7.5271,7.5271,7.5348,7.548,7.5518,7.5497,7.5566,7.5583,7.5633,7.5676,7.5692,7.5763,7.5864,7.5879,7.631,7.7077,7.7207,7.7669,6.7454,6.8203,6.8623,6.9082,6.7591,6.5681,6.4382,6.2815,6.1363,6.0485,6.0332,6.0422,6.0422,6.1058,6.2586,6.5528,6.7095,6.9502,7.4163,7.5921,7.7335,7.9111,8.0009,8.0506,8.0506,8.0506,8.0506,8.0506,8.0506,8.0506,8.0506,8.0506,8.0506,8.0506,8.0086,7.9856,7.9856,7.9493,7.9072,7.8634,7.8252,7.7564,7.6685,7.6303,7.6112,7.6036,7.5671,7.5709,7.6036,7.5653,7.5518,7.5518,7.5518,7.5518,7.5518,7.5518,7.5051,7.4543,7.4943,7.4656,7.4081,7.3897,7.3738,7.3705,7.4163,7.3093,7.2024,7.3284,7.3628,7.3705,7.4087,7.4851,7.5518,7.5518,7.5518,7.5518,7.5518,7.5518,7.5518,7.5518,7.5518,7.5518,7.5518,7.5518,7.5518,7.5518,7.5518,7.5518,7.5518,7.5518,7.5518,7.5518,7.5518,7.5671,7.6074,7.573,7.5727,7.6182,7.5799,7.5583,7.5666,7.5715,7.5747,7.5794,7.6263,7.6348,7.5955,7.684,7.7293,7.7323,7.8207,7.8823,6.7114,6.7561,6.7686,6.8028,6.6554,6.4527,6.2788,6.1789,6.0828,5.942,5.9672,6.0144,6.0144,6.0677,6.1987,6.481,6.6008,6.8313,7.3229,7.5004,7.657,7.8748,7.9895,8.0506,8.0506,8.0506,8.0506,8.0506,8.0506,8.0506,8.0506,8.0506,8.0506,8.0506,7.9895,7.9569,7.9569,7.9569,7.9207,7.8557,7.9054,7.8481,7.6953,7.68,7.6265,7.5518,7.5518,7.5518,7.5518,7.5518,7.5518,7.5501,7.5374,7.5318,7.53,7.5208,7.4485,7.3711,7.4354,7.3894,7.3101,7.3489,7.3723,7.4008,7.4595,7.3796,7.2848,7.3647,7.3876,7.3914,7.4104,7.4749,7.5374,7.5445,7.5518,7.5518,7.5518,7.5518,7.5518,7.5518,7.5518,7.5518,7.5518,7.5518,7.5518,7.5518,7.5518,7.5518,7.5518,7.5518,7.5518,7.5518,7.5518,7.5786,7.6379,7.5844,7.582,7.6578,7.5982,7.5649,7.5763,7.6018,7.6164,7.6194,7.71,7.7207,7.6553,7.7861,7.8246,7.7861,7.9208,7.99,6.5945,6.6447,6.64,6.4989,6.4161,6.3148,6.1166,6.0324,5.9798,5.9321,5.9232,5.9325,5.9325,5.9363,6.0619,6.4279,6.56,6.7774,7.2448,7.5119,7.6953,7.7984,7.9513,8.0506,8.0506,8.0506,8.0506,8.0506,8.0506,8.0506,8.0506,8.0506,8.0506,8.0506,8.043,8.0391,8.0391,8.0391,8.0353,8.0277,7.9589,7.8787,7.787,7.7067,7.6265,7.5518,7.5518,7.5518,7.5518,7.5518,7.5518,7.5445,7.4961,7.4766,7.4725,7.4303,7.4049,7.3966,7.4041,7.398,7.392,7.3943,7.3462,7.2799,7.2579,7.2113,7.1808,7.262,7.2845,7.3034,7.3808,7.4401,7.4903,7.5392,7.5518,7.5518,7.5518,7.5518,7.5518,7.5518,7.5518,7.5518,7.5518,7.5518,7.5518,7.5518,7.5518,7.5518,7.5518,7.5518,7.5518,7.5518,7.5518,7.5556,7.5577,7.5556,7.5553,7.5697,7.5638,7.5666,7.5879,7.6625,7.704,7.7169,7.7977,7.8361,7.8246,7.84,7.8861,7.9592,7.9746,8.0208,6.4577,6.5384,6.5602,6.4475,6.3313,6.209,6.0792,5.9963,5.9397,5.9234,5.9215,5.9215,5.9215,5.9215,6.0022,6.2523,6.3238,6.4785,6.8622,7.044,7.2584,7.5704,7.715,7.8561,8.0334,8.0506,8.0506,8.0506,8.0199,8.0159,8.0487,8.0047,8.0009,8.0468,7.9513,7.9095,7.9297,7.9297,7.9115,7.8835,7.9305,7.8841,7.749,7.7206,7.6503,7.5501,7.5151,7.5,7.5,7.5,7.456,7.39,7.4164,7.3964,7.3565,7.3913,7.3484,7.2882,7.3404,7.3029,7.2414,7.2683,7.2706,7.2678,7.3154,7.3131,7.3048,7.3409,7.3484,7.3559,7.3897,7.4331,7.4745,7.4961,7.5263,7.5409,7.5095,7.5263,7.5338,7.4723,7.4824,7.5,7.5,7.5,7.5132,7.5445,7.5518,7.5518,7.5518,7.5518,7.5518,7.5518,7.5518,7.5692,7.6188,7.582,7.5812,7.6394,7.6038,7.5848,7.5955,7.6778,7.7254,7.7284,7.8592,7.9015,7.8477,7.9554,7.9977,7.9823,8.0323,8.0785,6.2755,6.3589,6.3723,6.2923,6.1922,6.0915,5.9956,5.938,5.9007,5.887,5.885,5.885,5.885,5.885,5.9413,6.1235,6.1704,6.2963,6.6165,6.7764,6.9943,7.3426,7.4829,7.6524,7.9069,7.9774,8.002,8.002,7.9686,7.9643,7.9999,7.9259,7.9282,8.0238,7.9133,7.8555,7.8617,7.8617,7.8458,7.804,7.876,7.8375,7.6992,7.6787,7.6087,7.5038,7.4399,7.4254,7.4481,7.3989,7.3555,7.3183,7.3321,7.3236,7.2988,7.3404,7.2929,7.222,7.2876,7.2457,7.1708,7.2049,7.2319,7.263,7.3327,7.3554,7.3554,7.3554,7.3554,7.3603,7.375,7.4056,7.4309,7.4438,7.4783,7.496,7.4582,7.4804,7.4843,7.4147,7.4243,7.4481,7.4481,7.4623,7.4825,7.5226,7.5392,7.5518,7.5518,7.5518,7.5518,7.5518,7.5518,7.5747,7.63,7.591,7.5918,7.6645,7.6194,7.6041,7.6361,7.7207,7.7784,7.8015,7.9438,7.9862,7.9246,8.0516,8.0785,8.0208,8.0823,8.1093,6.0465,6.078,6.0236,5.9465,5.9538,5.9499,5.8317,5.8304,5.8482,5.8074,5.802,5.802,5.802,5.802,5.8694,6.0772,6.1751,6.3286,6.6199,6.8779,7.068,7.1545,7.3086,7.4778,7.6385,7.7976,7.8915,7.8915,7.8915,7.8915,7.8915,7.814,7.8342,7.9648,7.9708,7.9449,7.8915,7.8915,7.8891,7.8891,7.8089,7.73,7.6474,7.5685,7.4821,7.3957,7.3169,7.3281,7.3882,7.229,7.2553,7.385,7.2559,7.2518,7.3246,7.2686,7.2496,7.2496,7.2496,7.2496,7.2496,7.2496,7.2496,7.2496,7.2496,7.2524,7.2524,7.2524,7.2524,7.2638,7.3167,7.3324,7.3415,7.3916,7.4033,7.4033,7.4033,7.4033,7.4033,7.4009,7.4009,7.4033,7.4033,7.4374,7.4705,7.4725,7.5151,7.5518,7.5518,7.5518,7.5518,7.5518,7.5518,7.5535,7.5621,7.5599,7.5666,7.5918,7.5895,7.631,7.7246,7.8054,7.89,7.9746,8.0631,8.1093,8.1054,8.1093,8.1093,8.1093,8.1093,8.1093,5.7287,5.8442,5.9258,5.79,5.8074,5.8326,5.7395,5.7706,5.8142,5.8042,5.7997,5.7997,5.7997,5.8437,5.9402,6.1148,6.2116,6.3344,6.5434,6.7346,6.9409,7.1677,7.5157,7.7563,7.8089,7.8263,7.826,7.8078,7.8263,7.8286,7.8102,7.8365,7.8701,7.9133,7.8643,7.8341,7.8325,7.8363,7.8173,7.7789,7.7355,7.6722,7.5939,7.5145,7.4486,7.3911,7.2756,7.2733,7.3442,7.2348,7.1974,7.2176,7.2309,7.219,7.1978,7.2333,7.2496,7.2496,7.2496,7.2496,7.2496,7.2496,7.2496,7.2496,7.2496,7.2496,7.2496,7.2496,7.2496,7.2524,7.2686,7.3044,7.335,7.3491,7.3774,7.3916,7.3591,7.3774,7.3821,7.3104,7.3261,7.3516,7.3516,7.3916,7.4309,7.4664,7.5151,7.5518,7.5518,7.5518,7.5518,7.5518,7.5518,7.5518,7.5553,7.5566,7.5616,7.5682,7.5731,7.6194,7.7116,7.7977,7.8838,7.9785,8.0669,8.1093,8.1093,8.1093,8.1093,8.1093,8.1093,8.1093,5.5574,5.6712,5.7666,5.6969,5.7189,5.7483,5.7299,5.7629,5.7997,5.7997,5.7997,5.7997,5.7997,5.84,5.9281,6.0896,6.1557,6.2585,6.4567,6.6476,6.884,7.1907,7.5294,7.7378,7.7378,7.7645,7.7709,7.7574,7.7691,7.7709,7.7574,7.8011,7.8309,7.8309,7.801,7.7851,7.7826,7.7797,7.7622,7.7273,7.6515,7.5902,7.5356,7.3942,7.3342,7.3329,7.1917,7.1944,0.0,7.1759,7.147,7.1798,7.1982,7.1945,7.1835,7.2312,7.2496,7.2496,7.2496,7.2496,7.2496,7.2496,7.2496,7.2496,7.2496,7.2496,7.2496,7.2496,7.2496,7.2496,7.2496,7.2742,7.3017,7.3017,7.3209,7.3327,7.3061,7.3209,7.3261,7.2602,7.277,7.3017,7.3017,7.3554,7.4087,7.4374,7.5057,7.5518,7.5518,7.5518,7.5518,7.5518,7.5518,7.5518,7.5518,7.5549,7.5616,7.5649,7.566,7.6261,7.7499,7.8075,7.8967,8.02,8.0738,8.1061,8.1093,8.1093,8.1093,8.1093,8.1093,8.1093,0.0,5.5427,5.5684,5.6381,5.6638,5.6932,5.7666,5.7923,0.0,5.7997,5.7997,5.8033,5.807,5.8107,5.8621,6.0309,6.0566,6.1447,6.3906,6.6439,6.9192,7.2386,7.4147,7.5065,7.5065,7.6393,7.7273,7.72,7.7273,7.7273,7.72,7.7273,7.7273,7.7273,7.7797,7.7826,7.7304,7.7273,7.7273,7.72,7.5622,7.4845,7.4661,7.232,7.1725,7.2349,7.077,7.0991,7.2386,7.0844,7.1101,7.2422,7.1688,7.1835,7.2496,7.2496,7.2496,7.2496,7.2496,7.2496,7.2496,7.2496,7.2496,7.2496,7.2496,7.2496,7.2496,7.2496,7.2496,7.2496,7.2496,7.2496,7.2496,7.2496,7.2496,7.2496,7.2496,7.2496,7.2496,7.2496,7.2496,7.2496,7.2496,7.3313,7.3963,7.4009,7.4824,7.5445,7.5501,7.5518,7.5518,7.5518,7.5518,7.5518,7.5518,7.5549,7.5616,7.5676,7.5676,7.6443,7.8147,7.8262,7.9062,8.0773,8.0888,8.0975,8.1077,8.1093,8.1093,8.1093,8.1093,8.1093,5.2422,0.0,5.4583,5.4142,5.4987,5.5904,0.0,5.7116,5.7997,5.7997,5.7997,5.818,5.8781,5.8914,5.9625,6.1863,6.2254,6.3099,6.5595,6.9082,7.2349,7.4955,7.613,7.6723,7.6723,7.7053,7.7017,7.6423,7.6943,7.7017,7.6423,7.6974,7.7273,7.7273,7.7426,7.7457,7.7273,7.7273,7.698,7.6387,7.5395,7.4258,7.301,7.1872,7.1431,7.1541,7.0513,7.0991,7.2422,7.1431,7.1615,7.2496,7.2312,7.2349,7.2496,7.2496,7.2496,7.2496,7.2496,7.2496,7.2496,7.2496,7.2496,7.2496,7.2496,7.2496,7.2496,7.2496,7.2496,7.2496,7.2496,7.2496,7.2496,7.2496,7.2496,7.2496,7.2496,7.2496,7.2496,7.2496,7.2496,7.2496,7.2496,7.3034,7.3591,7.3963,7.4519,7.5057,7.5427,7.5518,7.5518,7.5518,7.5518,7.5518,7.5518,7.5497,7.5514,7.5532,7.5532,7.6063,7.7165,7.7816,7.8743,7.9966,8.0683,8.1007,8.0959,8.1061,8.1093,8.1093,8.1093,8.1093,5.1005,5.2773,5.4473,5.4803,5.55,5.6235,5.6602,5.6785,5.7005,5.7373,5.7446,5.7703,5.851,5.8657,5.9318,6.1374,6.2034,6.3649,6.7614,7.033,7.2863,7.5249,7.5946,7.6319,7.6717,7.6423,7.6166,7.6093,7.6497,7.657,7.613,7.6533,7.6607,7.6209,7.5836,7.6203,7.7273,7.6576,7.5983,7.5542,7.4001,7.301,7.2459,7.1284,7.1174,7.1835,7.0991,7.1358,7.2459,7.2055,7.2129,7.2496,7.2496,7.2496,7.2496,7.2496,7.2496,7.2496,7.2496,7.2496,7.2496,7.2496,7.2496,7.2496,7.2496,7.2496,7.2496,7.2496,7.2496,7.2496,7.2496,7.2496,7.2496,7.2496,7.2496,7.2496,7.2496,7.2496,7.2496,7.2496,7.2496,7.2496,7.2496,7.2926,7.3441,7.394,7.4374,7.4903,7.5427,7.5518,7.5518,7.5518,7.5518,7.5518,7.5518,7.5518,7.5518,7.5518,7.5518,7.5879,7.6773,7.7214,7.8126,7.9544,8.0136,8.0591,8.0888,8.1007,8.1093,8.1093,8.1093,8.1093,5.043,5.2511,5.4671,5.5941,5.6528,5.6932,5.7336,5.6492,5.5794,5.6492,5.6712,5.7079,5.7997,5.829,5.8951,6.0676,6.1851,6.4237,6.9229,7.0844,7.2312,7.4478,7.4845,7.5175,7.5836,7.5322,7.5175,7.5873,7.5909,7.5909,7.5909,7.5799,7.5469,7.4918,7.4111,7.4661,7.6723,7.5285,7.4478,7.4331,7.2275,7.1615,7.2092,7.0734,7.0917,7.2275,7.1615,7.1762,7.2496,7.2496,7.2496,7.2496,7.2496,7.2496,7.2496,7.2496,7.2496,7.2496,7.2496,7.2496,7.2496,7.2496,7.2496,7.2496,7.2496,7.2422,7.2349,7.2459,7.2496,7.2496,7.2496,7.2496,7.2496,7.2496,7.2496,7.2496,7.2496,7.2496,7.2496,7.2496,7.2496,7.2496,7.2496,7.2881,7.3364,7.394,7.4331,7.4786,7.5409,7.5518,7.5518,7.5518,7.5518,7.5518,7.5518,7.5518,7.5518,7.5518,7.5518,7.5844,7.6685,7.6703,7.7579,7.9333,7.956,8.0065,8.0855,8.0991,8.1061,8.1061,8.1077,8.1093,5.078,5.2777,5.4144,5.3827,5.528,5.6492,5.5244,5.528,5.5633,5.5757,5.6345,5.7262,5.8744,5.9575,6.0786,6.3135,6.5338,6.7283,6.8862,7.0954,7.2716,7.3744,7.4478,7.4955,7.5065,7.4992,7.4955,7.5065,7.5102,7.5102,7.5102,7.4441,7.4331,7.4882,7.4111,7.3891,7.4258,7.334,7.2532,7.1843,7.1505,7.1027,7.044,7.022,7.0624,7.1505,7.1329,7.1762,7.2496,7.2496,7.2496,7.2496,7.2496,7.2496,7.2496,7.2496,7.2496,7.2496,7.2496,7.2496,7.2496,7.2496,7.2496,7.2496,7.2496,7.2018,7.1651,7.2312,7.2496,7.2496,7.2496,7.2496,7.2496,7.2496,7.2496,7.2496,7.2496,7.2496,7.2496,7.2496,7.2496,7.2496,7.2496,7.2582,7.2926,7.3869,7.4041,7.4455,7.5374,7.5518,7.5518,7.5518,7.5518,7.5518,7.5518,7.5518,7.5518,7.5518,7.5518,7.5844,7.6685,7.6811,7.7614,7.9282,7.9459,7.9893,8.065,8.0822,8.091,8.0843,8.1029,8.1061,5.0279,5.2098,5.3543,5.4232,5.6263,5.79,5.7166,5.6602,5.6235,5.6235,5.6528,5.7299,5.8891,5.9478,6.086,6.42,6.6402,6.8274,6.9963,7.077,7.1651,7.2899,7.301,7.3303,7.4184,7.3854,7.378,7.4221,7.4258,7.4258,7.4258,7.3891,7.367,7.3634,7.2826,7.2202,7.1762,7.1394,7.1027,7.066,7.066,7.0477,7.011,7.055,7.1211,7.1945,7.1945,7.2165,7.2496,7.2496,7.2496,7.2496,7.2496,7.2496,7.2496,7.2496,7.2496,7.2496,7.2496,7.2496,7.2422,7.1982,7.2165,7.2349,7.1468,7.1541,7.1945,7.1872,7.1872,7.1945,7.2386,7.2496,7.2496,7.2496,7.2496,7.2496,7.2496,7.2496,7.2496,7.2496,7.2496,7.2496,7.2496,7.2496,7.277,7.3516,7.3845,7.4281,7.4961,7.53,7.5518,7.5518,7.5518,7.5518,7.5518,7.5518,7.5518,7.5518,7.5518,7.5671,7.6036,7.6126,7.6929,7.8557,7.87,7.9365,8.0614,8.0754,8.0826,8.0792,8.0877,8.0893,4.98,5.1318,5.2876,5.4843,5.6809,5.8427,5.8817,5.7666,5.6638,5.7005,5.7226,5.774,5.8964,5.9808,6.152,6.5007,6.71,6.8825,7.0513,7.0697,7.1064,7.2092,7.1835,7.2092,7.3303,7.2863,7.2753,7.3377,7.3413,7.3413,7.3413,7.323,7.2936,7.2496,7.1725,7.1027,7.0403,7.055,7.0477,7.011,7.011,7.0183,7.0403,7.1027,7.1762,7.2496,7.2496,7.2496,7.2496,7.2496,7.2496,7.2496,7.2496,7.2496,7.2496,7.2496,7.2386,7.2275,7.2422,7.2386,7.2129,7.1476,7.1725,7.1945,7.0513,7.0844,7.1578,7.1138,7.1027,7.1248,7.2239,7.2496,7.2496,7.2496,7.2496,7.2496,7.2496,7.2496,7.2496,7.2496,7.2496,7.2496,7.2496,7.2496,7.2658,7.322,7.3677,7.4154,7.4664,7.5151,7.5518,7.5518,7.5518,7.5518,7.5518,7.5518,7.5518,7.5518,7.5518,7.5518,7.5518,7.5518,7.6303,7.7984,7.8056,7.8894,8.0578,8.0723,8.0758,8.0723,8.0775,8.0775,4.9677,5.0816,5.214,5.4527,5.5405,5.6099,5.7717,5.6822,5.6088,5.7593,5.851,5.9038,5.9184,6.1704,6.431,6.6109,6.8385,6.9743,6.9155,7.0954,7.2092,7.1468,7.1982,7.2459,7.2569,7.2532,7.2532,7.2569,7.2606,7.2606,7.2606,7.1872,7.1798,7.2496,7.1725,7.1256,7.1211,7.1945,7.1578,7.011,7.011,7.0477,7.1248,7.1256,7.1762,7.2496,7.2496,7.2496,7.2496,7.2496,7.2496,7.2496,7.2496,7.2496,7.2496,7.2496,7.2055,7.1505,7.2239,7.2018,7.1366,7.1293,7.1329,7.1248,7.0367,6.9669,6.9302,7.0,7.0183,7.055,7.2092,7.2496,7.2496,7.2496,7.2496,7.2496,7.2496,7.2496,7.2496,7.2496,7.2496,7.2496,7.2496,7.2496,7.2658,7.322,7.3677,7.4154,7.4664,7.5151,7.5518,7.5518,7.5518,7.5518,7.5518,7.5518,7.5518,7.5518,7.5518,7.5518,7.5518,7.5518,7.6303,7.7984,7.7984,7.8843,8.0525,8.0578,8.0578,8.0525,8.0705,8.0741,4.9039,5.0417,5.1958,5.3872,5.4802,5.5875,5.8113,5.816,5.805,5.9258,5.9722,5.9942,5.9942,6.2218,6.4457,6.5558,6.7357,6.8862,6.9559,7.044,7.1101,7.1256,7.1578,7.1945,7.2459,7.2496,7.2496,7.2496,7.2496,7.2496,7.2496,7.2202,7.2202,7.2496,7.2202,7.2055,7.2055,7.2349,7.2202,7.1578,7.1578,7.1505,7.1293,7.1835,7.2202,7.2496,7.2496,7.2496,7.2496,7.2496,7.2496,7.2459,7.1945,7.1468,7.1064,7.1578,7.1248,7.0734,7.2055,7.1982,7.1293,7.1293,7.1293,7.1036,6.9743,6.9486,6.9706,7.0,7.0477,7.0991,7.1615,7.2129,7.2386,7.1872,7.1762,7.1762,7.1762,7.1358,7.1284,7.2312,7.2092,7.1908,7.2422,7.2496,7.2582,7.277,7.3479,7.4041,7.4221,7.4999,7.5518,7.5518,7.5518,7.5518,7.5518,7.5518,7.5518,7.5518,7.5518,7.5518,7.5518,7.5518,7.6036,7.7182,7.7717,7.8596,7.9742,8.0276,8.0505,8.0506,8.058,8.0598,4.8792,5.0177,5.1768,5.3204,5.4196,5.5541,5.8372,5.9005,5.9358,6.0542,6.0566,6.0566,6.108,6.2548,6.4053,6.5118,6.688,6.8348,6.9229,6.9779,7.022,7.0513,7.0991,7.1541,7.2092,7.2349,7.2496,7.2496,7.2496,7.2496,7.2496,7.2496,7.2496,7.2496,7.2496,7.2496,7.2496,7.2496,7.2496,7.2496,7.2496,7.2202,7.1725,7.2275,7.2496,7.2496,7.2496,7.2496,7.2496,7.2239,7.1982,7.1688,7.1138,7.0587,7.0183,7.0734,7.0403,6.9926,7.1284,7.1394,7.0917,7.0917,7.0917,7.0697,6.9302,6.9119,6.9339,6.9339,6.9926,7.0522,7.0522,7.1321,7.1945,7.1101,7.0917,7.0917,7.0917,7.0697,7.0734,7.1578,7.1725,7.1798,7.2092,7.2349,7.2496,7.2496,7.3235,7.3774,7.3774,7.4661,7.53,7.5501,7.5518,7.5518,7.5518,7.5518,7.5518,7.5518,7.5518,7.5518,7.5518,7.5518,7.5883,7.6685,7.7564,7.8443,7.9302,8.0086,8.0506,8.0506,8.0506,8.0506,4.9044,5.0163,5.1534,5.2543,5.3358,5.4828,5.8225,5.8981,5.9481,6.1239,6.097,6.0933,6.2487,6.278,6.3356,6.5044,6.732,6.8605,6.7797,6.9082,6.9779,6.9009,7.033,7.1293,7.1293,7.2018,7.2496,7.2496,7.2496,7.2496,7.2496,7.2496,7.2496,7.2496,7.2496,7.2496,7.2496,7.2496,7.2496,7.2496,7.2496,7.2496,7.2496,7.2496,7.2496,7.2496,7.2496,7.2496,7.2422,7.1651,7.0844,7.011,7.0073,7.0073,7.0073,7.0073,6.9596,6.9009,6.9816,7.011,7.011,7.011,7.011,6.9963,6.9155,6.8348,6.7687,6.7714,6.8274,6.8898,6.8898,7.0073,7.1101,7.0293,7.0073,7.0073,7.0073,7.0697,7.1027,7.0257,7.1394,7.2239,7.1439,7.1982,7.2496,7.2496,7.2963,7.3298,7.3324,7.4109,7.4903,7.5427,7.5501,7.5518,7.5518,7.5518,7.5518,7.5518,7.5518,7.5518,7.5518,7.5518,7.5844,7.6685,7.7564,7.8404,7.9302,8.0086,8.0506,8.0506,8.0506,8.0506,4.8394,4.977,5.1566,5.1843,5.3863,5.6218,5.781,5.8578,5.9651,6.1973,6.2254,6.2071,6.1961,6.2915,6.387,6.4383,6.5999,6.732,6.765,6.8605,6.9192,6.8935,6.9816,7.0477,7.0477,7.1174,7.1688,7.1688,7.2202,7.2496,7.2496,7.2496,7.2496,7.2496,7.2496,7.2496,7.2496,7.1945,7.1688,7.1651,7.1101,7.1394,7.2496,7.2496,7.2496,7.2496,7.2496,7.2202,7.1615,7.0807,7.033,7.0036,6.9486,6.8898,6.8458,6.9045,6.8752,6.8238,6.9633,7.011,7.011,7.011,7.011,6.9963,6.9155,6.8348,6.7797,6.8385,6.8715,6.8898,6.8898,6.9265,6.9559,6.9302,6.9265,6.9265,6.9265,6.9009,6.9009,6.9926,7.0477,7.0917,7.1248,7.1982,7.2496,7.2496,7.2963,7.3229,7.2964,7.397,7.4538,7.4144,7.4938,7.5518,7.5518,7.5518,7.5518,7.5518,7.5518,7.5518,7.5518,7.5518,7.5615,7.5844,7.7258,7.8137,7.8404,7.9818,8.0506,8.0506,8.0506,8.0506,5.0185,5.1326,5.2688,5.3434,5.5108,5.6992,5.8503,5.948,6.0567,6.2413,6.2548,6.2291,6.2108,6.2915,6.3796,6.4457,6.5668,6.6769,6.7577,6.8128,6.8421,6.8421,6.9119,6.9633,6.9633,7.0367,7.0844,7.0844,7.1284,7.1541,7.1541,7.1541,7.1688,7.2018,7.1725,7.1688,7.2018,7.1248,7.0844,7.0844,7.033,7.0624,7.1541,7.1541,7.1541,7.1541,7.1541,7.1101,7.033,6.9816,6.9412,6.9082,6.8605,6.8128,6.7787,6.8238,6.8128,6.7834,6.8788,6.9339,6.9633,6.9633,6.9633,6.9522,6.9045,6.8348,6.7797,6.8274,6.8421,6.8421,6.8421,6.8421,6.8421,6.8421,6.8421,6.8421,6.8421,6.8274,6.8458,6.9449,6.9889,7.0257,7.0734,7.1505,7.2018,7.2018,7.2586,7.287,7.2531,7.3461,7.3898,7.3263,7.4389,7.517,7.517,7.5392,7.5518,7.5518,7.5518,7.5518,7.5518,7.5518,7.5518,7.5518,7.68,7.764,7.8022,7.936,8.02,8.0506,8.0506,8.0506,5.3067,5.3795,5.4364,5.6218,5.6768,5.7441,5.9771,6.0896,6.1741,6.2622,6.2218,6.1924,6.2695,6.2853,6.3429,6.4934,6.5888,6.6659,6.7357,6.754,6.7577,6.7577,6.8311,6.8788,6.8788,6.9522,7.0,7.0,7.0073,7.0073,7.0,7.0073,7.0403,7.1036,7.044,7.044,7.1211,7.0403,7.0,7.0,6.9926,6.9889,6.9889,7.0036,7.011,7.011,7.0,6.9633,6.9009,6.8862,6.8385,6.7797,6.7724,6.7687,6.7687,6.7687,6.7687,6.7687,6.7687,6.8238,6.8898,6.8825,6.8862,6.8898,6.8825,6.8274,6.7687,6.7687,6.7687,6.7687,6.7687,6.7687,6.7687,6.7687,6.7687,6.7687,6.7687,6.8274,6.8788,6.8788,6.9449,7.0,7.0,7.0734,7.1293,7.1431,7.2055,7.2364,7.1954,7.2715,7.3131,7.2679,7.3824,7.4626,7.4591,7.5094,7.5427,7.5501,7.5518,7.5518,7.5518,7.5518,7.5518,7.5518,7.6303,7.7105,7.787,7.8825,7.9684,8.0391,8.0468,8.0506,5.1311,5.2587,5.4399,5.5454,5.7171,5.8794,5.9331,6.0089,6.108,6.2487,6.2658,6.2585,6.2743,6.3356,6.3943,6.431,6.5044,6.5632,6.5778,6.6366,6.6769,6.6769,6.7467,6.7944,6.7944,6.8678,6.9155,6.9155,6.9743,6.9816,6.9192,6.9743,6.9889,6.9449,6.9853,7.0183,7.0367,6.9559,6.9155,6.9155,6.8531,6.8201,6.8238,6.9522,7.011,7.0073,6.9449,6.9412,6.9743,6.8458,6.8238,6.8568,6.7944,6.7687,6.7687,6.7687,6.7687,6.7687,6.7687,6.8238,6.8788,6.8164,6.8385,6.8788,6.8128,6.7834,6.7687,6.7687,6.7687,6.7687,6.7687,6.7687,6.7687,6.7687,6.7687,6.7687,6.7687,6.7834,6.7944,6.7944,6.8605,6.9155,6.9155,7.0367,7.1541,7.2165,7.2386,7.2231,7.1526,7.2553,7.2755,7.1355,7.2993,7.4023,7.3795,7.4426,7.5057,7.5445,7.5518,7.5518,7.5518,7.5518,7.5518,7.5518,7.6303,7.68,7.6991,7.8519,7.9378,7.9551,8.02,8.0506,5.2439,5.3667,5.5021,5.6342,5.7657,5.8731,5.9111,5.9515,6.0162,6.141,6.1961,6.2365,6.2732,6.3172,6.3613,6.4016,6.4457,6.4861,6.5264,6.5668,6.5925,6.5925,6.6623,6.7136,6.7136,6.7834,6.8311,6.8311,6.8348,6.8348,6.8311,6.7981,6.8128,6.8898,6.8568,6.8752,6.9522,6.8715,6.8311,6.8311,6.7907,6.7687,6.7724,6.8568,6.8935,6.8935,6.8495,6.8568,6.8862,6.8054,6.7944,6.8274,6.7834,6.7687,6.7687,6.7687,6.7687,6.7687,6.7687,6.7944,6.8238,6.7834,6.7981,6.8238,6.7834,6.7687,6.7687,6.7687,6.7687,6.7687,6.7687,6.7687,6.7687,6.7687,6.7687,6.7687,6.7687,6.7687,6.7797,6.8201,6.8311,6.8458,6.8825,6.9926,7.1138,7.2312,7.2496,7.2202,7.1431,7.2263,7.2455,7.1162,7.262,7.3562,7.3432,7.4212,7.4805,7.5095,7.5374,7.5518,7.5518,7.5518,7.5518,7.5518,7.5921,7.6303,7.6685,7.7602,7.8481,7.9302,7.9283,7.9513,5.3613,5.4775,5.567,5.7547,5.7997,5.818,5.8841,5.8964,5.9245,6.0052,6.0933,6.1777,6.2475,6.2732,6.3062,6.3759,6.387,6.4127,6.4787,6.5007,6.5081,6.5081,6.5815,6.6292,6.6292,6.7026,6.7467,6.7467,6.699,6.6953,6.7467,6.6219,6.6366,6.8238,6.7136,6.7136,6.8458,6.7944,6.7687,6.7687,6.7687,6.7687,6.7687,6.7687,6.7687,6.7687,6.7687,6.7687,6.7687,6.7687,6.7687,6.7687,6.7687,6.7687,6.7687,6.7687,6.7687,6.7687,6.7687,6.7687,6.7687,6.7687,6.7614,6.7467,6.7467,6.7467,6.7467,6.7467,6.7577,6.7687,6.7687,6.7687,6.7687,6.7687,6.7687,6.7687,6.7687,6.7687,6.7907,6.8568,6.8164,6.7944,6.8752,6.9559,7.055,7.1908,7.2202,7.2018,7.1211,7.1688,7.1798,7.0991,7.2133,7.2934,7.2852,7.3845,7.4481,7.4544,7.5018,7.5226,7.5226,7.5226,7.5226,7.5226,7.5409,7.5806,7.6494,7.6647,7.7449,7.8843,7.8252,7.8404,5.0817,5.3119,5.582,5.757,5.7997,5.8033,5.8143,5.8143,5.84,5.9184,6.0566,6.163,6.1741,6.2328,6.2842,6.2952,6.2989,6.3025,6.3135,6.3796,6.4237,6.4237,6.4971,6.5485,6.5485,6.6182,6.6659,6.6659,6.721,6.7283,6.6696,6.6476,6.6182,6.5815,6.6256,6.6586,6.6806,6.7393,6.7687,6.7687,6.7687,6.7687,6.7687,6.7687,6.7687,6.7687,6.7687,6.7687,6.7687,6.7687,6.7687,6.7687,6.7687,6.7687,6.7687,6.7687,6.7687,6.7687,6.7687,6.7687,6.7687,6.7687,6.721,6.6659,6.6659,6.6659,6.6659,6.6659,6.7136,6.7687,6.7687,6.7687,6.7687,6.7687,6.7687,6.7687,6.7687,6.7687,6.7724,6.7834,6.776,6.7944,6.8752,6.9559,7.0183,7.0403,7.1027,7.1174,7.0367,7.033,7.011,6.9302,7.0606,7.147,7.1155,7.2596,7.3652,7.4079,7.4169,7.4214,7.4214,7.4214,7.4214,7.4214,7.5057,7.5556,7.5653,7.6341,7.68,7.7067,7.7717,7.8061,5.1843,5.3857,5.5843,5.757,5.7997,5.7997,5.7997,5.7997,5.8107,5.8437,5.9465,6.0382,6.086,6.1961,6.2658,6.2218,6.2511,6.278,6.278,6.3135,6.3392,6.3392,6.4127,6.464,6.464,6.5375,6.5852,6.5852,6.5742,6.5705,6.5815,6.5411,6.5411,6.5962,6.6329,6.6733,6.7173,6.7063,6.7026,6.7026,6.7467,6.7687,6.7687,6.7687,6.7687,6.7687,6.7687,6.7687,6.7687,6.7687,6.7687,6.7687,6.7687,6.7687,6.7687,6.7687,6.7687,6.7614,6.7173,6.732,6.754,6.6659,6.6402,6.6402,6.5962,6.5852,6.5852,6.5852,6.6402,6.7026,6.7026,6.7357,6.7687,6.7687,6.7687,6.7687,6.7687,6.7687,6.7687,6.7687,6.7687,6.7944,6.8752,6.9192,6.9596,7.0036,7.0403,7.0513,7.0146,7.011,6.9963,6.9596,7.0624,7.1324,7.1452,7.2833,7.3774,7.4009,7.4243,7.4265,7.4033,7.4009,7.4109,7.4374,7.4843,7.5057,7.5076,7.5699,7.6265,7.6685,7.6647,7.6838,5.2243,5.3872,5.5131,5.6901,5.7657,5.7973,5.7997,5.7997,5.7997,5.7997,5.8657,5.9294,5.9722,6.1117,6.2071,6.1667,6.2108,6.2585,6.2743,6.278,6.278,6.278,6.3392,6.3759,6.3759,6.453,6.5007,6.5007,6.464,6.4677,6.5264,6.453,6.4751,6.6145,6.6219,6.6586,6.7393,6.6806,6.6512,6.6512,6.688,6.71,6.71,6.71,6.71,6.71,6.7504,6.7687,6.7687,6.7687,6.7687,6.7687,6.7687,6.7687,6.7687,6.7687,6.7577,6.7283,6.6696,6.6769,6.688,6.5705,6.5558,6.5778,6.5191,6.5007,6.5007,6.5007,6.5558,6.6256,6.6439,6.6953,6.743,6.7677,6.7687,6.7687,6.7687,6.7687,6.7687,6.7687,6.7687,6.7871,6.8495,6.8752,6.9045,6.9412,6.9669,6.9706,6.9522,6.9486,6.9486,6.9486,7.0294,7.1008,7.1353,7.279,7.3672,7.3672,7.4007,7.3986,7.3508,7.3484,7.3602,7.3853,7.4282,7.4664,7.4903,7.53,7.5806,7.6379,7.5768,7.5806,4.9973,5.1653,5.3263,5.5094,5.6699,5.7857,5.7973,5.7997,5.7997,5.7997,5.8657,5.8964,5.8253,5.9428,6.075,6.1484,6.163,6.1924,6.267,6.278,6.278,6.278,6.2842,6.2879,6.2879,6.3649,6.4163,6.4163,6.4824,6.5264,6.5301,6.453,6.4494,6.5338,6.5375,6.5742,6.6549,6.6512,6.6512,6.6476,6.5778,6.5411,6.5411,6.5411,6.5411,6.5521,6.7026,6.7687,6.7687,6.7687,6.7687,6.7687,6.7687,6.7687,6.7687,6.7687,6.721,6.6549,6.6512,6.6035,6.5411,6.5338,6.4824,6.42,6.4163,6.4163,6.4163,6.4163,6.4751,6.5558,6.6292,6.6512,6.6733,6.7504,6.7687,6.7687,6.7687,6.7687,6.7687,6.7687,6.7687,6.7687,6.7787,6.8385,6.8678,6.7907,6.8458,6.8678,6.7907,6.7797,6.7797,6.7797,6.8934,6.9719,6.9707,7.1583,7.2762,7.2762,7.2785,7.2599,7.2123,7.2098,7.1902,7.1498,7.3143,7.4497,7.5445,7.5501,7.5501,7.5539,7.5518,7.5501,4.9849,5.1108,5.233,5.4091,5.5789,5.7028,5.7075,5.7584,5.7997,5.7997,5.8217,5.8327,5.8033,5.9318,6.0346,6.0126,6.0493,6.1117,6.1924,6.2034,6.2218,6.2768,6.278,6.278,6.278,6.3099,6.3282,6.3282,6.3539,6.3723,6.3723,6.3943,6.4237,6.453,6.5521,6.6219,6.6512,6.6512,6.6256,6.5742,6.5448,6.5301,6.5301,6.5301,6.5301,6.5338,6.5925,6.6439,6.6953,6.7467,6.7393,6.6916,6.6916,6.6623,6.6145,6.6145,6.5999,6.5668,6.5154,6.5118,6.5118,6.4053,6.387,6.398,6.3429,6.3282,6.3282,6.3282,6.4273,6.5375,6.5668,6.6512,6.732,6.7614,6.7687,6.7687,6.7687,6.7687,6.7687,6.7687,6.7687,6.7687,6.7687,6.7944,6.8017,6.7724,6.7944,6.8017,6.7724,6.7687,6.781,6.8109,6.9014,6.9825,7.0423,7.1631,7.2394,7.2394,7.2394,7.2407,7.2454,7.2149,7.2485,7.3475,7.3799,7.4033,7.4079,7.4664,7.4843,7.454,7.4843,7.498,4.9059,5.0185,5.1464,5.314,5.4652,5.5925,5.6822,5.7258,5.762,5.796,5.7997,5.7997,5.7997,5.8877,5.9501,5.9221,5.9625,6.0272,6.108,6.119,6.1484,6.2291,6.2401,6.2511,6.2743,6.278,6.278,6.278,6.278,6.278,6.278,6.3356,6.3796,6.409,6.5411,6.6109,6.6109,6.5815,6.5411,6.4897,6.4604,6.4457,6.4457,6.4457,6.4457,6.4494,6.4787,6.5338,6.6145,6.6659,6.6586,6.6109,6.6109,6.5778,6.5301,6.5301,6.5154,6.4824,6.4273,6.4273,6.4273,6.3147,6.3209,6.3576,6.2989,6.278,6.278,6.278,6.3587,6.453,6.4824,6.6072,6.7357,6.7614,6.7467,6.7283,6.7283,6.7504,6.7687,6.7687,6.7687,6.7687,6.7687,6.7687,6.7687,6.7687,6.7687,6.7687,6.7687,6.7836,6.8058,6.837,6.9188,6.9917,7.0535,7.175,7.2358,7.2054,7.2548,7.2772,7.2563,7.2529,7.301,7.4023,7.4196,7.4009,7.3541,7.4497,7.4705,7.4221,7.4544,7.4623,0.0,0.0,0.0,5.2168,5.3231,5.4477,5.7068,5.7078,5.6795,5.7753,5.796,5.796,5.7997,5.7997,5.8253,5.9038,5.9148,5.9441,6.0272,6.0382,6.0676,6.1484,6.1557,6.1887,6.2695,6.2743,6.2743,6.278,6.278,6.278,6.278,6.278,6.3209,6.4053,6.4861,6.5301,6.5301,6.4494,6.409,6.409,6.3209,6.278,6.278,6.278,6.278,6.2879,6.3686,6.4494,6.5228,6.5301,6.5301,6.5264,6.5264,6.5264,6.5228,6.5228,6.4751,6.4053,6.4053,6.3503,6.278,6.278,6.278,6.278,6.278,6.278,6.278,6.278,6.2817,6.3062,6.3943,6.5338,6.6696,6.7467,6.71,6.6512,6.6512,6.7136,6.7687,6.765,6.7677,6.7687,6.7687,6.7687,6.7687,6.7687,6.7687,6.7687,6.7687,6.8109,6.8418,6.8418,6.924,6.9778,6.9835,7.1741,7.2559,7.1718,7.3208,7.3586,7.2376,7.3075,7.3288,7.2838,7.4044,7.446,7.4018,7.5018,7.517,7.4664,7.4685,7.4417,4.6959,0.0,0.0,0.0,0.0,0.0,5.3832,5.441,5.5158,5.6685,5.7001,5.7208,5.7863,5.7997,5.807,5.829,5.8327,5.8621,5.9404,5.9515,5.9832,6.0639,6.075,6.1043,6.1851,6.1924,6.2181,6.2768,6.278,6.278,6.278,6.278,6.3209,6.4053,6.431,6.4714,6.5301,6.4494,6.409,6.409,6.3209,6.278,6.278,6.278,6.278,6.278,6.3062,6.3282,6.3613,6.4824,6.4971,6.442,6.442,6.4053,6.3477,6.3477,6.3356,6.3172,6.3172,6.3025,6.278,6.278,6.278,6.278,6.278,6.278,6.278,6.278,6.3246,6.4053,6.5485,6.6182,6.6549,6.6769,6.71,6.721,6.6623,6.7136,6.7504,6.6953,6.7283,6.7687,6.7687,6.7687,6.7687,6.7687,6.7687,6.7687,6.7687,6.8109,6.8538,6.887,6.9463,6.9928,7.0213,7.0773,7.103,7.0763,7.1794,7.2525,7.2803,7.3269,7.3609,7.3801,7.3857,7.3951,7.4144,7.4657,7.4497,7.3677,7.4056,7.4109,4.7068,4.7932,4.9054,4.9727,0.0,0.0,5.3786,5.4364,5.5003,5.6795,5.7171,5.7341,5.7923,5.7997,5.7997,5.7997,5.7997,5.8143,5.8621,5.8694,5.9024,5.9795,5.9905,6.0346,6.1484,6.1594,6.1924,6.2768,6.278,6.278,6.278,6.278,6.3025,6.3539,6.3576,6.3796,6.4273,6.3796,6.3576,6.3539,6.3062,6.278,6.278,6.278,6.278,6.278,6.278,6.278,6.2853,6.3844,6.398,6.3576,6.3576,6.3246,6.278,6.278,6.278,6.278,6.278,6.278,6.278,6.278,6.278,6.278,6.278,6.278,6.278,6.278,6.3172,6.387,6.5154,6.5485,6.5595,6.5925,6.6109,6.6072,6.5595,6.5852,6.6366,6.688,6.71,6.7283,6.7614,6.7393,6.7283,6.7677,6.7687,6.7687,6.7687,6.8109,6.8609,6.9047,6.9524,6.9983,7.0386,7.0724,7.0801,7.0419,7.1565,7.2482,7.2979,7.3189,7.3589,7.4184,7.3589,7.3437,7.3705,7.4237,7.4131,7.3382,7.3461,7.3484,4.7409,4.8257,4.9365,5.0705,5.1212,0.0,5.5179,5.5372,5.5381,5.7171,5.7547,5.7607,5.768,5.7813,5.7886,5.7886,5.8033,5.8107,5.7997,5.7997,5.8253,5.8964,5.9074,5.9685,6.119,6.1337,6.1667,6.245,6.2622,6.2695,6.2695,6.2743,6.278,6.278,6.278,6.278,6.278,6.278,6.278,6.278,6.278,6.278,6.278,6.278,6.278,6.278,6.278,6.278,6.278,6.278,6.278,6.278,6.278,6.278,6.278,6.278,6.278,6.278,6.278,6.278,6.278,6.278,6.278,6.278,6.278,6.278,6.278,6.278,6.278,6.3025,6.387,6.409,6.4273,6.5007,6.4677,6.42,6.4127,6.4163,6.4861,6.7026,6.6843,6.6586,6.7283,6.6916,6.6733,6.7467,6.7614,6.7687,6.7687,6.8109,6.8609,6.9047,6.9524,6.9965,7.0281,7.109,7.1205,7.0391,7.193,7.2864,7.2864,7.2941,7.3284,7.3896,7.3208,7.2864,7.2864,7.3691,7.3876,7.3358,7.3021,7.2756,4.7047,4.8279,4.98,4.9474,5.0814,0.0,5.2295,5.2681,5.3357,5.4464,5.4761,5.4998,5.5784,5.6534,5.7042,5.7042,5.812,5.8767,5.8107,5.7997,5.807,5.8217,5.8217,5.8621,5.9551,5.9661,6.0015,6.0823,6.1484,6.1814,6.1814,6.2438,6.278,6.278,6.278,6.278,6.278,6.278,6.278,6.278,6.278,6.278,6.278,6.278,6.278,6.278,6.278,6.278,6.278,6.278,6.278,6.278,6.278,6.278,6.278,6.278,6.278,6.278,6.278,6.278,6.278,6.278,6.278,6.278,6.278,6.278,6.278,6.278,6.278,6.3025,6.387,6.409,6.4127,6.431,6.4714,6.4897,6.4237,6.4604,6.5228,6.5668,6.5632,6.5595,6.5742,6.6182,6.6549,6.6696,6.7283,6.7687,6.7687,6.8109,6.8609,6.9047,6.9524,6.9853,6.9928,7.0366,7.0438,6.9947,7.1222,7.1947,7.1947,7.2635,7.275,7.2176,7.2024,7.1947,7.1947,7.3079,7.321,7.2487,7.3088,7.2589,4.7446,4.8279,4.951,4.951,5.0705,0.0,0.0,5.2908,5.3549,5.4568,5.4591,5.4672,5.5483,5.6064,5.6473,5.6777,5.7813,5.8344,5.7643,5.8493,5.9061,5.8657,5.8621,5.8767,5.9148,5.9184,5.9515,6.0346,6.1153,6.1594,6.1594,6.2365,6.278,6.278,6.278,6.278,6.278,6.278,6.278,6.278,6.278,6.278,6.278,6.278,6.278,6.278,6.278,6.278,6.278,6.278,6.278,6.278,6.278,6.278,6.278,6.278,6.278,6.278,6.278,6.278,6.278,6.278,6.278,6.278,6.278,6.278,6.278,6.278,6.278,6.2915,6.3356,6.3466,6.3466,6.3466,6.3759,6.3943,6.3539,6.3759,6.4053,6.4053,6.4053,6.4347,6.5154,6.5301,6.5558,6.6366,6.6843,6.7247,6.7677,6.7915,6.8222,6.8688,6.8959,6.9282,6.974,7.0001,7.0109,7.0109,7.0701,7.1259,7.168,7.168,7.1489,7.1068,7.1068,7.1068,7.1068,7.2101,7.2244,7.1615,7.1793,7.1525,4.8387,4.8858,4.9727,5.0198,5.1176,5.2286,0.0,0.0,0.0,5.4794,5.4422,5.4134,5.4822,5.5051,5.5342,5.5885,5.7015,5.7679,5.7191,5.8907,5.9908,5.8895,5.8917,5.8964,5.8964,5.8964,5.9245,5.9905,6.0676,6.119,6.1374,6.2144,6.2658,6.278,6.278,6.278,6.278,6.278,6.278,6.278,6.278,6.278,6.278,6.278,6.278,6.278,6.278,6.278,6.278,6.278,6.278,6.278,6.278,6.278,6.278,6.278,6.278,6.278,6.278,6.278,6.278,6.278,6.278,6.278,6.278,6.278,6.278,6.278,6.278,6.278,6.278,6.278,6.278,6.278,6.278,6.278,6.278,6.278,6.278,6.278,6.278,6.3246,6.4604,6.442,6.4567,6.6035,6.6402,6.6769,6.7577,6.7687,6.7889,6.8346,6.8394,6.8688,6.9484,6.9682,6.989,7.0106,7.0298,7.0724,7.1412,7.0763,7.0419,7.0419,7.0315,7.0298,7.0419,7.0934,7.108,7.0877,7.066,7.0599,5.0053,5.0923,5.1937,5.1321,5.2842,5.4182,5.2938,0.0,5.2963,5.2375,0.0,5.095,5.1465,0.0,0.0,5.2806,5.5353,5.7277,5.7191,5.8631,5.9103,5.7517,5.7788,5.8143,5.8143,5.8143,5.818,5.8253,5.9024,5.9795,6.0493,6.13,6.2071,6.278,6.278,6.278,6.278,6.278,6.278,6.278,6.278,6.278,6.278,6.278,6.278,6.278,6.278,6.278,6.278,6.278,6.278,6.278,6.278,6.278,6.278,6.278,6.278,6.278,6.278,6.278,6.278,6.278,6.278,6.278,6.278,6.278,6.278,6.278,6.278,6.278,6.278,6.278,6.278,6.278,6.278,6.278,6.278,6.278,6.278,6.278,6.278,6.2853,6.3037,6.3649,6.4383,6.5301,6.6035,6.6769,6.7577,6.7687,6.7889,6.8346,6.8394,6.8442,6.8562,6.9303,6.9643,6.9261,6.9981,7.0457,7.0533,7.0457,7.0419,7.0419,7.0055,7.0055,7.0402,6.9738,6.9776,7.0506,7.1197,7.0725,4.9619,5.0234,5.1036,5.0807,5.18,5.2593,5.1797,5.2036,5.2287,5.1829,0.0,0.0,0.0,0.0,0.0,0.0,5.4073,5.5328,5.5276,5.5913,5.6675,5.7567,5.7956,5.813,5.801,5.7997,5.7997,5.7997,5.8767,5.9331,5.9685,6.0896,6.1741,6.2108,6.2585,6.278,6.278,6.278,6.278,6.278,6.278,6.278,6.278,6.278,6.278,6.278,6.278,6.278,6.278,6.278,6.278,6.278,6.278,6.278,6.278,6.278,6.278,6.278,6.278,6.278,6.278,6.278,6.278,6.278,6.278,6.278,6.278,6.278,6.278,6.278,6.278,6.278,6.278,6.278,6.278,6.278,6.278,6.278,6.278,6.278,6.278,6.278,6.278,6.3099,6.3649,6.4494,6.4897,6.5558,6.6843,6.699,6.7279,6.7919,6.7982,6.8109,6.837,6.8757,6.9134,6.9504,7.0053,7.0419,7.0419,7.0419,7.0419,7.0419,7.023,7.023,7.0402,6.9797,6.9701,7.0055,7.0138,6.9806,4.9771,4.9955,5.0294,5.0443,5.0818,5.1095,5.0946,5.1386,5.1702,5.1122,5.0774,0.0,0.0,0.0,5.1227,5.1585,0.0,5.3442,5.3389,5.3567,5.4545,5.6903,5.7467,5.7629,5.7461,5.7594,5.7726,5.775,5.8393,5.8941,5.9184,6.0529,6.1374,6.1594,6.2401,6.278,6.278,6.278,6.278,6.278,6.278,6.278,6.278,6.278,6.278,6.278,6.278,6.278,6.278,6.278,6.278,6.278,6.278,6.278,6.278,6.278,6.278,6.278,6.278,6.278,6.278,6.278,6.278,6.278,6.278,6.278,6.278,6.278,6.278,6.278,6.278,6.278,6.278,6.278,6.278,6.278,6.278,6.278,6.278,6.278,6.278,6.278,6.278,6.278,6.3099,6.398,6.409,6.4604,6.5999,6.6182,6.6402,6.699,6.7026,6.7174,6.7518,6.7876,6.851,6.9526,6.9981,7.023,7.023,7.0331,7.0419,7.0419,7.0281,7.0281,7.0419,6.9853,6.9662,6.9816,6.9303,6.9091,5.1368,5.1102,5.0681,5.0716,5.0716,5.0716,5.0724,5.1137,5.1087,4.9597,4.9686,4.9727,4.8697,0.0,0.0,0.0,0.0,0.0,0.0,5.2565,5.3451,5.4729,5.562,5.6075,5.6067,5.6589,5.6989,5.7116,5.7559,5.8223,5.9148,6.0015,6.0786,6.1557,6.2401,6.278,6.278,6.278,6.278,6.278,6.278,6.278,6.278,6.278,6.278,6.278,6.278,6.278,6.278,6.278,6.278,6.278,6.278,6.278,6.278,6.278,6.278,6.278,6.278,6.278,6.278,6.278,6.278,6.278,6.278,6.278,6.278,6.278,6.278,6.278,6.278,6.278,6.278,6.278,6.278,6.278,6.278,6.278,6.278,6.278,6.278,6.278,6.278,6.278,6.3099,6.398,6.409,6.4383,6.5228,6.5338,6.5375,6.5375,6.5375,6.5375,6.54,6.6507,6.7775,6.9053,6.9564,6.9835,6.9835,7.0196,7.0419,7.0419,7.0019,7.0019,7.0402,6.9546,6.9344,6.9816,6.9303,6.9091,5.0427,5.1192,5.1885,5.0509,5.0844,5.1172,4.9976,5.0546,5.083,4.9142,4.9664,4.9992,0.0,0.0,0.0,0.0,0.0,0.0,0.0,5.1366,5.1957,5.2546,5.3634,5.4764,5.5893,5.6536,5.6964,5.7091,5.7631,5.806,5.84,5.9171,5.9735,6.0015,6.0786,6.1484,6.1998,6.1998,6.2291,6.278,6.278,6.278,6.278,6.278,6.278,6.278,6.278,6.278,6.278,6.278,6.278,6.278,6.278,6.278,6.278,6.278,6.278,6.278,6.278,6.278,6.278,6.278,6.278,6.278,6.278,6.278,6.278,6.278,6.278,6.278,6.278,6.278,6.278,6.278,6.278,6.278,6.278,6.278,6.278,6.278,6.278,6.278,6.278,6.278,6.2915,6.3209,6.3246,6.3539,6.4383,6.4494,6.4714,6.5264,6.5301,6.5301,6.5301,6.647,6.7351,6.7835,6.8769,6.9323,6.9323,6.9466,6.9546,6.9546,6.9405,6.9564,7.0019,6.9091,6.887,6.9303,6.8562,6.8514,5.0697,5.1356,5.2057,5.0704,5.102,5.1208,4.9494,5.0047,5.042,4.8773,4.9159,4.9683,0.0,0.0,0.0,0.0,0.0,0.0,0.0,5.0499,5.102,5.134,5.2435,5.384,5.5466,5.5907,5.6376,5.7065,5.7376,5.7679,5.7973,5.8767,5.9184,5.9184,5.9979,6.0639,6.1153,6.1153,6.1594,6.2365,6.2108,6.2254,6.278,6.2218,6.2108,6.2365,6.2365,6.2365,6.2401,6.2695,6.278,6.278,6.278,6.278,6.278,6.278,6.278,6.278,6.278,6.278,6.278,6.278,6.278,6.278,6.278,6.278,6.278,6.278,6.278,6.278,6.278,6.278,6.278,6.278,6.278,6.278,6.278,6.278,6.278,6.278,6.278,6.278,6.278,6.278,6.278,6.278,6.278,6.3025,6.3576,6.3649,6.3833,6.4383,6.442,6.4567,6.4861,6.5632,6.6198,6.6494,6.7477,6.8137,6.8399,6.8553,6.879,6.9091,6.9091,6.924,6.9564,6.8937,6.8711,6.8825,6.8222,6.8247]}]]